[[{"header":{"parameterUnit":"m.s-1","parameterCategory":1,"la1":31.0,"la2":29.5877,"lo1":-88.7671,"lo2":-86.6584,"dy":0.0162,"dx":0.0185,"nx":115,"ny":88,"refTime":"2023-02-26T18:00:00:Z","depth":0,"parameterNumber":2,"parameterNumberName":"U-component_of_WINDS"},"data":[0.0,0.0,0.0,0.0,0.0,0.0,0.0,0.0,0.0,0.0,0.0,0.0,0.0,0.0,0.0,0.0,0.0,0.0,0.0,0.0,0.0,0.0,0.0,0.0,0.0,0.0,0.0,0.0,0.0,0.0,0.0,0.0,0.0,0.0,0.0,0.0,0.0,0.0,0.0,0.0,0.0,0.0,0.0,0.0,0.0,0.0,0.0,0.0,0.0,0.0,0.0,0.0,0.0,0.0,0.0,0.0,0.0,0.0,0.0,0.0,0.0,0.0,0.0,0.0,0.0,0.0,0.0,0.0,0.0,0.0,0.0,0.0,0.0,0.0,0.0,0.0,0.0,0.0,0.0,0.0,0.0,0.0,0.0,0.0,0.0,0.0,0.0,0.0,0.0,0.0,0.0,0.0,0.0,0.0,0.0,0.0,0.0,0.0,0.0,0.0,0.0,0.0,0.0,0.0,0.0,0.0,0.0,0.0,0.0,0.0,0.0,0.0,0.0,0.0,0.0,0.0,0.0,0.0,0.0,0.0,0.0,0.0,0.0,0.0,0.0,0.0,0.0,0.0,0.0,0.0,0.0,0.0,0.0,0.0,0.0,0.0,0.0,0.0,0.0,0.0,0.0,0.0,0.0,0.0,0.0,0.0,0.0,0.0,0.0,0.0,0.0,0.0,0.0,0.0,0.0,0.0,0.0,0.0,0.0,0.0,0.0,0.0,0.0,0.0,0.0,0.0,0.0,0.0,0.0,0.0,0.0,0.0,0.0,0.0,0.0,0.0,0.0,0.0,0.0,0.0,0.0,0.0,0.0,0.0,0.0,0.0,0.0,0.0,0.0,0.0,0.0,0.0,0.0,0.0,0.0,0.0,0.0,0.0,0.0,0.0,0.0,0.0,0.0,0.0,0.0,0.0,0.0,0.0,0.0,0.0,0.0,0.0,0.0,0.0,0.0,0.0,0.0,0.0,0.0,0.0,0.0,0.0,0.0,0.0,0.0,0.0,0.0,0.0,0.0,0.0,0.0,0.0,0.0,0.0,0.0,0.0,0.0,0.0,0.0,0.0,0.0,0.0,0.0,0.0,0.0,0.0,0.0,0.0,0.0,0.0,0.0,0.0,0.0,0.0,0.0,0.0,0.0,0.0,0.0,0.0,0.0,0.0,0.0,0.0,0.0,0.0,0.0,0.0,0.0,0.0,0.0,0.0,0.0,0.0,0.0,0.0,0.0,0.0,0.0,0.0,0.0,0.0,0.0,0.0,0.0,0.0,0.0,0.0,0.0,0.0,0.0,0.0,0.0,0.0,0.0,0.0,0.0,0.0,0.0,0.0,0.0,0.0,0.0,0.0,0.0,0.0,0.0,0.0,0.0,0.0,0.0,0.0,0.0,0.0,0.0,0.0,0.0,0.0,0.0,0.0,0.0,0.0,0.0,0.0,0.0,0.0,0.0,0.0,0.0,0.0,0.0,0.0,0.0,0.0,0.0,0.0,0.0,0.0,0.0,0.0,0.0,0.0,0.0,0.0,0.0,0.0,0.0,0.0,0.0,0.0,0.0,0.0,0.0,0.0,0.0,0.0,0.0,0.0,0.0,0.0,0.0,0.0,0.0,0.0,0.0,0.0,0.0,0.0,0.0,0.0,0.0,0.0,0.0,0.0,0.0,0.0,0.0,0.0,0.0,0.0,0.0,0.0,0.0,0.0,0.0,0.0,0.0,0.0,0.0,0.0,0.0,0.0,0.0,0.0,0.0,0.0,0.0,0.0,0.0,0.0,0.0,0.0,0.0,0.0,0.0,0.0,0.0,0.0,0.0,0.0,0.0,0.0,0.0,0.0,0.0,0.0,0.0,0.0,0.0,0.0,0.0,0.0,0.0,0.0,0.0,0.0,0.0,0.0,0.0,0.0,0.0,0.0,0.0,0.0,0.0,0.0,0.0,0.0,0.0,0.0,0.0,0.0,0.0,0.0,0.0,0.0,0.0,0.0,0.0,0.0,0.0,0.0,0.0,0.0,0.0,0.0,0.0,0.0,0.0,0.0,0.0,0.0,0.0,0.0,0.0,0.0,0.0,0.0,0.0,0.0,0.0,0.0,0.0,0.0,0.0,0.0,0.0,0.0,0.0,0.0,0.0,0.0,0.0,0.0,0.0,0.0,0.0,0.0,0.0,0.0,0.0,0.0,0.0,0.0,0.0,0.0,0.0,0.0,0.0,0.0,0.0,0.0,0.0,0.0,0.0,0.0,0.0,0.0,0.0,0.0,0.0,0.0,0.0,0.0,0.0,0.0,0.0,0.0,0.0,0.0,0.0,0.0,0.0,0.0,0.0,0.0,0.0,0.0,0.0,0.0,0.0,0.0,0.0,0.0,0.0,0.0,0.0,0.0,0.0,0.0,0.0,0.0,0.0,0.0,0.0,0.0,0.0,0.0,0.0,0.0,0.0,0.0,0.0,0.0,0.0,0.0,0.0,0.0,0.0,0.0,0.0,0.0,0.0,0.0,0.0,0.0,0.0,0.0,0.0,0.0,0.0,0.0,0.0,0.0,0.0,0.0,0.0,0.0,0.0,0.0,0.0,0.0,0.0,0.0,0.0,0.0,0.0,0.0,0.0,0.0,0.0,0.0,0.0,0.0,0.0,0.0,0.0,0.0,0.0,0.0,0.0,0.0,0.0,0.0,0.0,0.0,0.0,0.0,0.0,0.0,0.0,0.0,0.0,0.0,0.0,0.0,0.0,0.0,0.0,0.0,0.0,0.0,0.0,0.0,0.0,0.0,0.0,0.0,0.0,0.0,0.0,0.0,0.0,0.0,0.0,0.0,0.0,0.0,0.0,0.0,0.0,0.0,0.0,0.0,0.0,0.0,0.0,0.0,0.0,0.0,0.0,0.0,0.0,0.0,0.0,0.0,0.0,0.0,0.0,0.0,0.0,0.0,0.0,0.0,0.0,0.0,0.0,0.0,0.0,0.0,0.0,0.0,0.0,0.0,0.0,0.0,0.0,0.0,0.0,0.0,0.0,0.0,0.0,0.0,0.0,0.0,0.0,0.0,0.0,0.0,0.0,0.0,0.0,0.0,0.0,0.0,0.0,0.0,0.0,0.0,0.0,0.0,0.0,0.0,0.0,0.0,0.0,0.0,0.0,0.0,0.0,0.0,0.0,0.0,0.0,0.0,0.0,0.0,0.0,0.0,0.0,0.0,0.0,0.0,0.0,0.0,0.0,0.0,0.0,0.0,0.0,0.0,0.0,0.0,0.0,0.0,0.0,0.0,0.0,0.0,0.0,0.0,0.0,0.0,0.0,0.0,0.0,0.0,0.0,0.0,0.0,0.0,0.0,0.0,0.0,0.0,0.0,0.0,0.0,0.0,0.0,0.0,0.0,0.0,0.0,0.0,0.0,0.0,0.0,0.0,0.0,0.0,0.0,0.0,0.0,0.0,0.0,0.0,0.0,0.0,0.0,0.0,0.0,0.0,0.0,0.0,0.0,0.0,0.0,0.0,0.0,0.0,0.0,0.0,0.0,0.0,0.0,0.0,0.0,0.0,0.0,0.0,0.0,0.0,0.0,0.0,0.0,0.0,0.0,0.0,0.0,0.0,0.0,0.0,0.0,0.0,0.0,0.0,0.0,0.0,0.0,0.0,0.0,0.0,0.0,0.0,0.0,0.0,0.0,0.0,0.0,0.0,0.0,0.0,0.0,0.0,0.0,0.0,0.0,0.0,0.0,0.0,0.0,0.0,0.0,0.0,0.0,0.0,0.0,0.0,0.0,0.0,0.0,0.0,0.0,0.0,0.0,0.0,0.0,0.0,0.0,0.0,0.0,0.0,0.0,0.0,0.0,0.0,0.0,0.0,0.0,0.0,0.0,0.0,0.0,0.0,0.0,0.0,0.0,0.0,0.0,0.0,0.0,0.0,0.0,0.0,0.0,0.0,0.0,0.0,0.0,0.0,0.0,0.0,0.0,0.0,0.0,0.0,0.0,0.0,0.0,0.0,0.0,0.0,0.0,0.0,0.0,0.0,0.0,0.0,0.0,0.0,0.0,0.0,0.0,0.0,0.0,0.0,0.0,0.0,0.0,0.0,0.0,0.0,0.0,0.0,0.0,0.0,0.0,0.0,0.0,0.0,0.0,0.0,0.0,0.0,0.0,0.0,0.0,0.0,0.0,0.0,0.0,0.0,0.0,0.0,0.0,0.0,0.0,0.0,0.0,0.0,0.0,0.0,0.0,0.0,0.0,0.0,0.0,0.0,0.0,0.0,0.0,0.0,0.0,0.0,-4.5012,0.0,0.0,0.0,0.0,0.0,0.0,0.0,0.0,0.0,0.0,0.0,0.0,0.0,0.0,0.0,0.0,0.0,0.0,0.0,0.0,0.0,0.0,0.0,0.0,0.0,0.0,0.0,0.0,0.0,0.0,0.0,0.0,0.0,0.0,0.0,0.0,0.0,0.0,0.0,0.0,0.0,0.0,0.0,0.0,0.0,0.0,0.0,0.0,0.0,0.0,0.0,0.0,0.0,0.0,0.0,0.0,0.0,0.0,0.0,0.0,0.0,0.0,0.0,0.0,0.0,0.0,0.0,0.0,0.0,0.0,0.0,0.0,0.0,0.0,0.0,0.0,0.0,0.0,0.0,0.0,0.0,0.0,0.0,0.0,0.0,0.0,0.0,0.0,0.0,0.0,0.0,0.0,0.0,0.0,0.0,0.0,0.0,0.0,0.0,0.0,0.0,0.0,0.0,0.0,0.0,0.0,0.0,0.0,0.0,0.0,-4.3827,-4.427,-4.429,-4.4278,-4.4234,0.0,0.0,0.0,0.0,0.0,0.0,0.0,0.0,0.0,0.0,0.0,0.0,0.0,0.0,0.0,0.0,0.0,0.0,0.0,0.0,0.0,0.0,0.0,0.0,0.0,0.0,0.0,0.0,0.0,0.0,0.0,0.0,0.0,0.0,0.0,0.0,0.0,0.0,0.0,0.0,0.0,0.0,0.0,0.0,0.0,0.0,0.0,0.0,0.0,0.0,0.0,0.0,0.0,0.0,0.0,0.0,0.0,0.0,0.0,0.0,0.0,0.0,0.0,0.0,0.0,0.0,0.0,0.0,0.0,0.0,0.0,0.0,0.0,0.0,0.0,0.0,0.0,0.0,0.0,0.0,0.0,0.0,0.0,0.0,0.0,0.0,0.0,0.0,0.0,0.0,0.0,0.0,0.0,0.0,0.0,0.0,0.0,0.0,0.0,0.0,0.0,0.0,0.0,0.0,0.0,0.0,0.0,0.0,0.0,0.0,0.0,0.0,-4.4387,-4.4348,-4.4407,0.0,0.0,0.0,0.0,0.0,0.0,0.0,0.0,0.0,0.0,0.0,0.0,0.0,0.0,0.0,0.0,0.0,0.0,0.0,0.0,0.0,0.0,0.0,0.0,0.0,0.0,0.0,0.0,0.0,0.0,0.0,0.0,0.0,0.0,0.0,0.0,0.0,0.0,0.0,0.0,0.0,0.0,0.0,0.0,0.0,0.0,0.0,0.0,0.0,0.0,0.0,0.0,0.0,0.0,0.0,0.0,0.0,0.0,0.0,0.0,0.0,0.0,0.0,0.0,0.0,0.0,0.0,0.0,0.0,0.0,0.0,0.0,0.0,0.0,0.0,0.0,0.0,0.0,0.0,0.0,0.0,0.0,0.0,0.0,0.0,0.0,0.0,0.0,0.0,0.0,0.0,0.0,0.0,0.0,0.0,0.0,0.0,0.0,0.0,0.0,0.0,0.0,0.0,0.0,0.0,0.0,0.0,0.0,0.0,0.0,-4.3945,-4.7122,-4.6437,0.0,-4.6741,0.0,0.0,0.0,0.0,0.0,0.0,0.0,0.0,0.0,0.0,0.0,0.0,0.0,0.0,0.0,0.0,0.0,0.0,0.0,0.0,0.0,0.0,0.0,0.0,0.0,0.0,0.0,0.0,0.0,0.0,0.0,0.0,0.0,0.0,0.0,0.0,0.0,0.0,0.0,0.0,0.0,0.0,0.0,0.0,0.0,0.0,0.0,0.0,0.0,0.0,0.0,0.0,0.0,0.0,0.0,0.0,0.0,0.0,0.0,0.0,0.0,0.0,0.0,0.0,0.0,0.0,0.0,0.0,0.0,0.0,0.0,0.0,0.0,0.0,0.0,0.0,0.0,0.0,0.0,0.0,0.0,0.0,0.0,0.0,0.0,0.0,0.0,0.0,0.0,0.0,0.0,0.0,0.0,0.0,0.0,0.0,0.0,0.0,0.0,0.0,0.0,0.0,0.0,0.0,0.0,0.0,0.0,0.0,0.0,0.0,-4.3085,-4.5988,-4.5609,-4.5223,0.0,0.0,0.0,0.0,0.0,0.0,0.0,0.0,0.0,0.0,0.0,0.0,0.0,0.0,0.0,0.0,0.0,0.0,0.0,0.0,0.0,0.0,0.0,0.0,0.0,0.0,0.0,0.0,0.0,0.0,0.0,0.0,0.0,0.0,0.0,0.0,0.0,0.0,0.0,0.0,0.0,0.0,0.0,0.0,0.0,0.0,0.0,0.0,0.0,0.0,0.0,0.0,0.0,0.0,0.0,0.0,0.0,0.0,0.0,0.0,0.0,0.0,0.0,0.0,0.0,0.0,0.0,0.0,0.0,0.0,0.0,0.0,0.0,0.0,0.0,0.0,0.0,0.0,0.0,0.0,0.0,0.0,0.0,0.0,0.0,0.0,0.0,0.0,0.0,0.0,0.0,0.0,0.0,0.0,0.0,0.0,0.0,0.0,0.0,0.0,0.0,0.0,0.0,0.0,0.0,0.0,0.0,0.0,0.0,0.0,-4.1855,-4.3456,-4.5849,-4.5234,-4.445,-4.3703,0.0,0.0,0.0,0.0,0.0,0.0,0.0,0.0,0.0,0.0,0.0,0.0,0.0,0.0,0.0,0.0,0.0,0.0,0.0,0.0,0.0,0.0,0.0,0.0,0.0,0.0,0.0,0.0,0.0,0.0,0.0,0.0,0.0,0.0,0.0,0.0,0.0,0.0,0.0,0.0,0.0,0.0,0.0,0.0,0.0,0.0,0.0,0.0,0.0,0.0,0.0,0.0,0.0,0.0,0.0,0.0,0.0,0.0,0.0,0.0,0.0,0.0,0.0,0.0,0.0,0.0,0.0,0.0,0.0,0.0,0.0,0.0,0.0,0.0,0.0,0.0,0.0,0.0,0.0,0.0,0.0,0.0,0.0,0.0,0.0,0.0,0.0,0.0,0.0,0.0,0.0,0.0,0.0,0.0,0.0,0.0,0.0,0.0,0.0,0.0,0.0,0.0,0.0,0.0,0.0,0.0,0.0,0.0,-4.6758,-4.5547,-4.6054,-4.8468,-4.6266,-4.4852,0.0,0.0,0.0,0.0,0.0,0.0,0.0,0.0,0.0,0.0,0.0,0.0,0.0,0.0,0.0,0.0,0.0,0.0,0.0,0.0,0.0,0.0,0.0,0.0,0.0,0.0,0.0,0.0,0.0,0.0,0.0,0.0,0.0,0.0,0.0,0.0,0.0,0.0,0.0,0.0,0.0,0.0,0.0,0.0,0.0,0.0,0.0,0.0,0.0,0.0,0.0,0.0,0.0,0.0,0.0,0.0,0.0,0.0,0.0,0.0,0.0,0.0,0.0,0.0,0.0,0.0,0.0,0.0,0.0,0.0,0.0,0.0,0.0,0.0,0.0,0.0,0.0,0.0,0.0,0.0,0.0,0.0,0.0,0.0,0.0,0.0,0.0,0.0,0.0,0.0,0.0,0.0,0.0,0.0,0.0,0.0,0.0,0.0,0.0,0.0,0.0,0.0,0.0,0.0,0.0,0.0,0.0,0.0,0.0,-4.1777,-4.3885,-4.5717,-4.7081,-4.5193,-4.404,0.0,0.0,0.0,0.0,0.0,0.0,0.0,0.0,0.0,0.0,0.0,0.0,0.0,0.0,0.0,0.0,0.0,0.0,0.0,0.0,0.0,0.0,0.0,0.0,0.0,0.0,0.0,0.0,0.0,0.0,0.0,0.0,0.0,0.0,0.0,0.0,0.0,0.0,0.0,0.0,0.0,0.0,0.0,0.0,0.0,0.0,0.0,0.0,0.0,0.0,0.0,0.0,0.0,0.0,0.0,0.0,0.0,0.0,0.0,0.0,0.0,0.0,0.0,0.0,0.0,0.0,0.0,0.0,0.0,0.0,0.0,0.0,0.0,0.0,0.0,0.0,0.0,0.0,0.0,0.0,0.0,0.0,0.0,0.0,0.0,0.0,0.0,0.0,0.0,0.0,0.0,0.0,0.0,0.0,0.0,0.0,0.0,0.0,0.0,0.0,0.0,0.0,0.0,0.0,0.0,0.0,0.0,0.0,0.0,-4.1094,0.0,-4.6847,-4.6261,-4.484,-4.3338,0.0,0.0,0.0,0.0,0.0,0.0,0.0,0.0,0.0,0.0,0.0,0.0,0.0,0.0,0.0,0.0,0.0,0.0,0.0,0.0,0.0,0.0,0.0,0.0,0.0,0.0,0.0,0.0,0.0,0.0,0.0,0.0,0.0,0.0,0.0,0.0,0.0,0.0,0.0,0.0,0.0,0.0,0.0,0.0,0.0,0.0,0.0,0.0,0.0,0.0,0.0,0.0,0.0,0.0,0.0,0.0,0.0,0.0,0.0,0.0,0.0,0.0,0.0,0.0,0.0,0.0,0.0,0.0,0.0,0.0,0.0,0.0,0.0,0.0,0.0,0.0,0.0,0.0,0.0,0.0,0.0,0.0,0.0,0.0,0.0,0.0,0.0,0.0,0.0,0.0,0.0,0.0,0.0,0.0,0.0,0.0,0.0,0.0,0.0,0.0,0.0,0.0,0.0,0.0,0.0,0.0,0.0,0.0,-4.0176,-4.5879,-4.9293,-4.9388,-4.644,-4.5312,-4.2851,0.0,0.0,0.0,0.0,0.0,0.0,0.0,0.0,0.0,0.0,0.0,0.0,0.0,0.0,0.0,0.0,0.0,0.0,0.0,0.0,0.0,0.0,0.0,0.0,0.0,0.0,0.0,0.0,0.0,0.0,0.0,0.0,0.0,0.0,0.0,0.0,0.0,0.0,0.0,0.0,0.0,0.0,0.0,0.0,0.0,0.0,0.0,0.0,0.0,0.0,0.0,0.0,0.0,0.0,0.0,0.0,0.0,0.0,0.0,0.0,0.0,0.0,0.0,0.0,0.0,0.0,0.0,0.0,0.0,0.0,0.0,0.0,0.0,0.0,0.0,0.0,0.0,0.0,0.0,0.0,0.0,0.0,0.0,0.0,0.0,0.0,0.0,0.0,0.0,0.0,0.0,0.0,0.0,0.0,0.0,0.0,0.0,0.0,0.0,0.0,0.0,0.0,0.0,0.0,0.0,0.0,0.0,0.0,0.0,-4.1035,-4.4919,-4.7063,-4.7062,-4.3439,-4.1857,0.0,0.0,0.0,0.0,0.0,0.0,0.0,0.0,0.0,0.0,0.0,0.0,0.0,0.0,0.0,0.0,0.0,0.0,0.0,0.0,0.0,0.0,0.0,0.0,0.0,0.0,0.0,0.0,0.0,0.0,0.0,0.0,0.0,0.0,0.0,0.0,0.0,0.0,0.0,0.0,0.0,0.0,0.0,0.0,0.0,0.0,0.0,0.0,0.0,0.0,0.0,0.0,0.0,0.0,0.0,0.0,0.0,0.0,0.0,0.0,0.0,0.0,0.0,0.0,0.0,0.0,0.0,0.0,0.0,0.0,0.0,0.0,0.0,0.0,0.0,0.0,0.0,0.0,0.0,0.0,0.0,0.0,0.0,0.0,0.0,0.0,0.0,0.0,0.0,0.0,0.0,0.0,0.0,0.0,0.0,0.0,0.0,0.0,0.0,0.0,0.0,0.0,0.0,0.0,0.0,0.0,0.0,0.0,0.0,-4.1191,-4.5173,-4.7436,-4.761,-4.3766,-4.188,-4.2196,0.0,0.0,0.0,0.0,0.0,0.0,0.0,0.0,0.0,0.0,0.0,0.0,0.0,0.0,0.0,0.0,0.0,0.0,0.0,0.0,0.0,0.0,0.0,0.0,0.0,0.0,0.0,0.0,0.0,0.0,0.0,0.0,0.0,0.0,0.0,0.0,0.0,0.0,0.0,0.0,0.0,0.0,0.0,0.0,0.0,0.0,0.0,0.0,0.0,0.0,0.0,0.0,0.0,0.0,0.0,0.0,0.0,0.0,0.0,0.0,0.0,0.0,0.0,0.0,0.0,0.0,0.0,0.0,0.0,0.0,0.0,0.0,0.0,0.0,0.0,0.0,0.0,0.0,0.0,0.0,0.0,0.0,0.0,0.0,0.0,0.0,0.0,0.0,0.0,0.0,0.0,0.0,0.0,0.0,0.0,0.0,0.0,0.0,0.0,0.0,0.0,0.0,0.0,0.0,0.0,0.0,0.0,0.0,-4.5137,-4.9335,-5.0329,-4.7904,-4.5847,-4.2848,0.0,0.0,0.0,0.0,0.0,0.0,0.0,0.0,0.0,0.0,0.0,0.0,0.0,0.0,0.0,0.0,0.0,0.0,0.0,0.0,0.0,0.0,0.0,0.0,0.0,0.0,0.0,0.0,0.0,0.0,0.0,0.0,0.0,0.0,0.0,0.0,0.0,0.0,0.0,0.0,0.0,0.0,0.0,0.0,0.0,0.0,0.0,0.0,0.0,0.0,0.0,0.0,0.0,0.0,0.0,0.0,0.0,0.0,0.0,0.0,0.0,0.0,0.0,0.0,0.0,0.0,0.0,0.0,0.0,0.0,0.0,0.0,0.0,0.0,0.0,0.0,0.0,0.0,0.0,0.0,0.0,0.0,0.0,0.0,0.0,0.0,0.0,0.0,0.0,0.0,0.0,0.0,0.0,0.0,0.0,0.0,0.0,0.0,0.0,0.0,0.0,0.0,0.0,0.0,0.0,0.0,0.0,0.0,0.0,-4.6973,-5.1112,-5.2399,-5.0403,-4.6255,-4.3685,0.0,0.0,0.0,0.0,0.0,0.0,0.0,0.0,0.0,0.0,0.0,0.0,0.0,0.0,0.0,0.0,0.0,0.0,0.0,0.0,0.0,0.0,0.0,0.0,0.0,0.0,0.0,0.0,0.0,0.0,0.0,0.0,0.0,0.0,0.0,0.0,0.0,0.0,0.0,0.0,0.0,0.0,0.0,0.0,0.0,0.0,0.0,0.0,0.0,0.0,0.0,0.0,0.0,0.0,0.0,0.0,0.0,0.0,0.0,0.0,0.0,0.0,0.0,0.0,0.0,0.0,0.0,0.0,0.0,0.0,0.0,0.0,0.0,0.0,0.0,0.0,0.0,0.0,0.0,0.0,0.0,0.0,0.0,0.0,0.0,0.0,0.0,0.0,0.0,0.0,0.0,0.0,0.0,0.0,0.0,0.0,0.0,0.0,0.0,0.0,0.0,0.0,0.0,0.0,0.0,0.0,0.0,0.0,-4.5488,-4.9141,-5.1972,-5.3141,-5.2512,-4.8867,-4.563,0.0,0.0,0.0,0.0,0.0,0.0,0.0,0.0,0.0,0.0,0.0,0.0,0.0,0.0,0.0,0.0,0.0,0.0,0.0,0.0,0.0,0.0,0.0,0.0,0.0,0.0,0.0,0.0,0.0,0.0,0.0,0.0,0.0,0.0,0.0,0.0,0.0,0.0,0.0,0.0,0.0,0.0,0.0,0.0,0.0,0.0,0.0,0.0,0.0,0.0,0.0,0.0,0.0,0.0,0.0,0.0,0.0,0.0,0.0,0.0,0.0,0.0,0.0,0.0,0.0,0.0,0.0,0.0,0.0,0.0,0.0,0.0,0.0,0.0,0.0,0.0,0.0,0.0,0.0,0.0,0.0,0.0,0.0,0.0,0.0,0.0,0.0,0.0,0.0,0.0,0.0,0.0,0.0,0.0,0.0,0.0,0.0,0.0,0.0,0.0,0.0,0.0,0.0,0.0,0.0,0.0,0.0,0.0,-4.625,-5.0898,-5.2108,-5.2985,-5.3488,-5.1761,-4.7697,0.0,0.0,0.0,0.0,0.0,0.0,0.0,0.0,0.0,0.0,0.0,0.0,0.0,0.0,0.0,0.0,0.0,0.0,0.0,0.0,0.0,0.0,0.0,0.0,0.0,0.0,0.0,0.0,0.0,0.0,0.0,0.0,0.0,0.0,0.0,0.0,0.0,0.0,0.0,0.0,0.0,0.0,0.0,0.0,0.0,0.0,0.0,0.0,0.0,0.0,0.0,0.0,0.0,0.0,0.0,0.0,0.0,0.0,0.0,0.0,0.0,0.0,0.0,0.0,0.0,0.0,0.0,0.0,0.0,0.0,0.0,0.0,0.0,0.0,0.0,0.0,0.0,0.0,0.0,0.0,0.0,0.0,0.0,0.0,0.0,0.0,0.0,0.0,0.0,0.0,0.0,0.0,0.0,0.0,0.0,0.0,0.0,0.0,0.0,0.0,0.0,0.0,0.0,0.0,0.0,0.0,0.0,0.0,-4.6601,-4.8398,-5.1208,-5.2122,-5.0949,-4.8617,-4.5653,0.0,0.0,0.0,0.0,0.0,0.0,0.0,0.0,0.0,0.0,0.0,0.0,0.0,0.0,0.0,0.0,0.0,0.0,0.0,0.0,0.0,0.0,0.0,0.0,0.0,0.0,0.0,0.0,0.0,0.0,0.0,0.0,0.0,0.0,0.0,0.0,0.0,0.0,0.0,0.0,0.0,0.0,0.0,0.0,0.0,0.0,0.0,0.0,-3.8836,0.0,0.0,0.0,0.0,0.0,0.0,0.0,0.0,0.0,0.0,0.0,0.0,0.0,0.0,0.0,0.0,0.0,0.0,0.0,0.0,0.0,0.0,0.0,0.0,0.0,0.0,0.0,0.0,0.0,0.0,0.0,0.0,0.0,0.0,0.0,0.0,0.0,0.0,0.0,0.0,0.0,0.0,0.0,0.0,0.0,0.0,0.0,0.0,0.0,0.0,0.0,0.0,0.0,0.0,0.0,0.0,0.0,0.0,0.0,-4.6504,-4.8183,-4.9976,-5.0655,-5.0027,-4.7204,-4.4163,0.0,0.0,0.0,0.0,0.0,0.0,0.0,0.0,0.0,0.0,0.0,0.0,0.0,0.0,0.0,0.0,0.0,0.0,0.0,0.0,0.0,0.0,0.0,0.0,0.0,0.0,0.0,0.0,0.0,0.0,0.0,0.0,0.0,0.0,0.0,0.0,0.0,0.0,0.0,0.0,0.0,0.0,0.0,0.0,0.0,0.0,0.0,0.0,0.0,0.0,0.0,0.0,0.0,0.0,0.0,0.0,0.0,0.0,0.0,0.0,0.0,0.0,0.0,0.0,0.0,0.0,0.0,0.0,0.0,0.0,0.0,0.0,0.0,0.0,0.0,0.0,0.0,0.0,0.0,0.0,0.0,0.0,0.0,0.0,0.0,0.0,0.0,0.0,0.0,0.0,0.0,0.0,0.0,0.0,0.0,0.0,0.0,0.0,0.0,0.0,0.0,0.0,0.0,0.0,0.0,0.0,0.0,-4.2773,-4.5879,-4.8357,-4.8627,-4.8954,-4.9456,-4.6405,-4.307,-3.9601,0.0,0.0,0.0,0.0,0.0,0.0,0.0,0.0,0.0,0.0,0.0,0.0,0.0,0.0,0.0,0.0,0.0,0.0,0.0,0.0,0.0,0.0,0.0,0.0,0.0,0.0,0.0,0.0,0.0,0.0,0.0,0.0,0.0,0.0,0.0,0.0,0.0,0.0,-3.3889,-3.5087,0.0,0.0,0.0,0.0,0.0,0.0,0.0,0.0,-3.8021,0.0,0.0,0.0,0.0,0.0,0.0,0.0,0.0,0.0,0.0,0.0,0.0,0.0,0.0,0.0,0.0,0.0,0.0,0.0,0.0,0.0,0.0,0.0,0.0,0.0,0.0,0.0,0.0,0.0,0.0,0.0,0.0,0.0,0.0,0.0,0.0,0.0,0.0,0.0,0.0,0.0,0.0,0.0,0.0,0.0,0.0,0.0,0.0,0.0,0.0,0.0,0.0,0.0,0.0,0.0,0.0,-4.1698,-4.248,-4.4082,-4.6678,-4.7437,-4.753,-4.6898,-4.4961,-4.2261,-3.8856,0.0,0.0,0.0,0.0,0.0,0.0,0.0,0.0,0.0,0.0,0.0,0.0,0.0,0.0,0.0,0.0,0.0,0.0,0.0,0.0,0.0,0.0,0.0,0.0,0.0,0.0,0.0,0.0,0.0,0.0,0.0,0.0,0.0,0.0,0.0,0.0,0.0,0.0,0.0,-3.7264,-3.7862,0.0,0.0,0.0,0.0,0.0,0.0,0.0,0.0,-3.7237,0.0,0.0,0.0,0.0,0.0,0.0,0.0,0.0,0.0,0.0,0.0,0.0,0.0,0.0,0.0,0.0,0.0,0.0,0.0,0.0,0.0,0.0,0.0,0.0,0.0,0.0,0.0,0.0,0.0,0.0,0.0,0.0,0.0,0.0,0.0,0.0,0.0,0.0,0.0,0.0,0.0,0.0,0.0,0.0,0.0,0.0,0.0,0.0,0.0,0.0,0.0,0.0,0.0,0.0,0.0,-4.0271,-4.1737,-4.365,-4.6168,-4.5832,-4.5592,-4.5584,-4.3075,-4.0454,0.0,0.0,0.0,0.0,0.0,0.0,0.0,0.0,0.0,0.0,0.0,0.0,0.0,0.0,0.0,0.0,0.0,0.0,0.0,0.0,0.0,0.0,0.0,0.0,0.0,0.0,0.0,0.0,0.0,0.0,0.0,0.0,0.0,0.0,0.0,0.0,0.0,0.0,0.0,0.0,-3.8283,-3.8855,-3.8925,0.0,0.0,0.0,0.0,0.0,0.0,-3.6321,-3.5768,0.0,0.0,0.0,0.0,0.0,0.0,0.0,0.0,0.0,0.0,0.0,0.0,0.0,0.0,0.0,0.0,0.0,0.0,0.0,0.0,0.0,0.0,0.0,0.0,0.0,0.0,0.0,0.0,0.0,0.0,0.0,0.0,0.0,0.0,0.0,0.0,0.0,0.0,0.0,0.0,0.0,0.0,0.0,0.0,0.0,0.0,0.0,0.0,0.0,0.0,0.0,0.0,0.0,0.0,0.0,-3.8081,-4.06,-4.3157,-4.5578,-4.4422,-4.4123,-4.4893,-4.1442,-3.8803,0.0,0.0,0.0,0.0,0.0,0.0,0.0,0.0,0.0,0.0,0.0,0.0,0.0,0.0,0.0,0.0,0.0,0.0,0.0,0.0,0.0,0.0,0.0,0.0,0.0,0.0,0.0,0.0,0.0,0.0,0.0,0.0,0.0,0.0,0.0,0.0,0.0,0.0,0.0,0.0,0.0,-3.9789,-4.0578,-3.9706,0.0,0.0,0.0,0.0,-3.5942,-3.6051,0.0,0.0,0.0,0.0,0.0,0.0,0.0,0.0,0.0,0.0,0.0,0.0,0.0,0.0,0.0,0.0,0.0,0.0,0.0,0.0,0.0,0.0,0.0,0.0,0.0,0.0,0.0,0.0,0.0,0.0,0.0,0.0,0.0,0.0,0.0,0.0,0.0,0.0,0.0,0.0,0.0,0.0,0.0,0.0,0.0,0.0,0.0,0.0,0.0,0.0,0.0,0.0,0.0,0.0,0.0,0.0,-3.6279,-3.8879,-4.1418,-4.3854,-4.3795,-4.4123,-4.4914,-4.0877,-3.8177,0.0,0.0,0.0,0.0,0.0,0.0,0.0,0.0,0.0,0.0,0.0,0.0,0.0,0.0,0.0,0.0,0.0,0.0,0.0,0.0,0.0,0.0,0.0,0.0,0.0,0.0,0.0,0.0,0.0,0.0,0.0,0.0,0.0,0.0,0.0,0.0,0.0,0.0,0.0,0.0,0.0,-4.1215,-3.9344,-3.9405,-3.909,0.0,0.0,-3.8398,-3.9797,-4.0509,0.0,0.0,0.0,0.0,0.0,0.0,0.0,0.0,0.0,0.0,0.0,0.0,0.0,0.0,0.0,0.0,0.0,0.0,0.0,0.0,0.0,0.0,0.0,0.0,0.0,0.0,0.0,0.0,0.0,0.0,0.0,0.0,0.0,0.0,0.0,0.0,0.0,0.0,0.0,0.0,0.0,0.0,0.0,0.0,0.0,0.0,0.0,0.0,0.0,0.0,0.0,0.0,0.0,0.0,0.0,-3.3824,-3.5964,-3.7604,-3.9654,-4.2076,-4.1311,-4.1207,-4.203,-3.8295,-3.6103,0.0,0.0,0.0,0.0,0.0,0.0,0.0,0.0,0.0,0.0,0.0,0.0,0.0,0.0,0.0,0.0,0.0,0.0,0.0,0.0,0.0,0.0,0.0,0.0,0.0,0.0,0.0,0.0,0.0,0.0,0.0,0.0,0.0,0.0,0.0,0.0,0.0,0.0,0.0,0.0,0.0,0.0,-4.0013,-3.9859,0.0,0.0,0.0,-3.8478,-3.9167,0.0,0.0,0.0,0.0,0.0,0.0,0.0,0.0,0.0,0.0,0.0,0.0,0.0,0.0,0.0,0.0,0.0,0.0,0.0,0.0,0.0,0.0,0.0,0.0,0.0,0.0,0.0,0.0,0.0,0.0,0.0,0.0,0.0,0.0,0.0,0.0,0.0,0.0,0.0,0.0,0.0,0.0,0.0,0.0,0.0,0.0,0.0,0.0,0.0,0.0,0.0,0.0,0.0,0.0,0.0,0.0,0.0,-3.5337,-3.664,-3.8339,-4.0356,-3.9234,-3.897,-3.9715,-3.6216,0.0,0.0,0.0,0.0,0.0,0.0,0.0,0.0,0.0,0.0,0.0,0.0,0.0,0.0,0.0,0.0,0.0,0.0,0.0,0.0,0.0,0.0,0.0,0.0,0.0,0.0,0.0,-2.9598,0.0,0.0,0.0,0.0,0.0,0.0,0.0,0.0,0.0,0.0,0.0,0.0,0.0,0.0,-3.9268,-4.0158,-4.0092,-4.0209,0.0,0.0,-3.8499,-3.8517,-3.8301,-3.7359,0.0,0.0,0.0,0.0,0.0,0.0,0.0,0.0,0.0,0.0,0.0,0.0,0.0,0.0,0.0,0.0,0.0,0.0,0.0,0.0,0.0,0.0,0.0,0.0,0.0,0.0,0.0,0.0,0.0,0.0,0.0,0.0,0.0,0.0,0.0,0.0,0.0,0.0,0.0,0.0,0.0,0.0,0.0,0.0,0.0,0.0,0.0,0.0,0.0,0.0,0.0,0.0,0.0,0.0,-3.2662,-3.3611,-3.6013,-3.777,-3.8728,-3.8614,-3.8935,-3.9696,-3.563,-3.3764,0.0,0.0,0.0,0.0,0.0,0.0,0.0,0.0,0.0,0.0,0.0,0.0,0.0,0.0,0.0,0.0,0.0,0.0,0.0,0.0,0.0,0.0,0.0,0.0,0.0,0.0,0.0,0.0,0.0,0.0,0.0,0.0,0.0,0.0,0.0,0.0,0.0,0.0,0.0,0.0,0.0,-3.9374,-3.8652,-3.9754,-4.0905,0.0,-4.0399,-3.9315,-3.9297,-4.0456,-3.9858,-3.5315,0.0,0.0,0.0,0.0,0.0,0.0,0.0,0.0,0.0,0.0,0.0,0.0,0.0,0.0,0.0,0.0,0.0,0.0,0.0,0.0,0.0,0.0,0.0,0.0,0.0,0.0,0.0,0.0,0.0,0.0,0.0,0.0,0.0,0.0,0.0,0.0,0.0,0.0,0.0,0.0,0.0,0.0,0.0,0.0,0.0,0.0,0.0,0.0,0.0,0.0,0.0,0.0,0.0,-3.2524,-3.3396,-3.492,-3.6106,-3.6897,-3.6907,-3.6791,-3.6587,-3.4455,-3.2954,0.0,0.0,0.0,0.0,0.0,0.0,0.0,0.0,0.0,0.0,0.0,0.0,0.0,0.0,0.0,0.0,0.0,0.0,0.0,0.0,0.0,0.0,0.0,0.0,0.0,0.0,0.0,0.0,-2.9316,-2.9101,-2.8785,0.0,0.0,0.0,0.0,0.0,0.0,0.0,0.0,0.0,0.0,-3.7286,-3.69,-3.8212,0.0,0.0,-3.8642,-3.8118,-3.8589,-3.792,-3.6526,-3.4244,-3.2412,0.0,0.0,0.0,0.0,0.0,0.0,0.0,0.0,0.0,0.0,0.0,0.0,0.0,0.0,0.0,0.0,0.0,0.0,0.0,0.0,0.0,0.0,0.0,0.0,0.0,0.0,0.0,0.0,0.0,0.0,0.0,0.0,0.0,0.0,0.0,0.0,0.0,0.0,0.0,0.0,0.0,0.0,0.0,0.0,0.0,0.0,0.0,0.0,0.0,0.0,0.0,0.0,-3.227,-3.3377,-3.3745,-3.444,-3.55,-3.5251,-3.4837,-3.4228,-3.3359,-3.2214,0.0,0.0,0.0,0.0,0.0,0.0,0.0,0.0,0.0,0.0,0.0,0.0,0.0,0.0,0.0,0.0,0.0,0.0,0.0,0.0,0.0,0.0,0.0,0.0,0.0,0.0,0.0,0.0,-2.9254,-2.8982,-2.8724,0.0,0.0,0.0,0.0,0.0,0.0,0.0,0.0,0.0,0.0,-3.5587,-3.5535,-3.6894,-3.7911,-3.7846,-3.7158,-3.6832,-3.7377,-3.5856,-3.4172,-3.2886,0.0,0.0,0.0,0.0,0.0,0.0,0.0,0.0,0.0,0.0,0.0,0.0,0.0,0.0,0.0,0.0,0.0,0.0,0.0,0.0,0.0,0.0,0.0,0.0,0.0,0.0,0.0,0.0,0.0,0.0,-3.0821,0.0,0.0,0.0,0.0,0.0,0.0,0.0,0.0,0.0,0.0,0.0,0.0,0.0,0.0,0.0,0.0,0.0,0.0,0.0,0.0,0.0,0.0,-3.1683,-3.3338,-3.262,-3.3003,-3.4644,-3.3835,-3.3372,-3.331,-3.2476,-3.1603,-3.0694,0.0,0.0,0.0,0.0,0.0,0.0,0.0,0.0,0.0,0.0,0.0,0.0,0.0,0.0,0.0,0.0,0.0,0.0,0.0,0.0,0.0,0.0,0.0,0.0,0.0,0.0,-2.9504,-2.9248,-2.9038,0.0,0.0,0.0,0.0,0.0,0.0,0.0,0.0,0.0,0.0,-3.3709,-3.4697,-3.4603,-3.598,-3.6922,-3.6904,-3.6254,-3.5786,-3.5786,-3.5098,-3.3791,0.0,0.0,0.0,0.0,0.0,0.0,0.0,0.0,0.0,0.0,0.0,0.0,0.0,0.0,0.0,0.0,0.0,0.0,0.0,0.0,0.0,0.0,0.0,0.0,0.0,0.0,0.0,-3.391,-3.2158,0.0,0.0,0.0,0.0,0.0,0.0,0.0,0.0,0.0,0.0,0.0,-3.0022,-3.1714,0.0,0.0,0.0,0.0,0.0,0.0,0.0,0.0,0.0,0.0,0.0,0.0,-3.132,-3.2465,-3.2244,-3.2642,-3.3716,-3.3462,-3.3028,-3.2457,-3.2151,-3.1056,-2.9036,0.0,0.0,0.0,0.0,0.0,0.0,0.0,0.0,0.0,0.0,0.0,0.0,0.0,0.0,0.0,0.0,0.0,0.0,0.0,0.0,0.0,0.0,0.0,0.0,0.0,-2.9655,0.0,0.0,0.0,0.0,0.0,0.0,0.0,0.0,0.0,0.0,0.0,-2.9769,-3.0602,-3.2069,-3.2885,-3.247,-3.3648,-3.4289,0.0,0.0,0.0,0.0,0.0,0.0,0.0,0.0,0.0,0.0,0.0,0.0,0.0,0.0,-3.1436,-3.0847,-3.0357,-2.9833,-2.9308,0.0,0.0,0.0,0.0,0.0,0.0,0.0,0.0,0.0,0.0,0.0,0.0,0.0,0.0,-3.3744,0.0,-3.2775,0.0,0.0,0.0,0.0,0.0,0.0,0.0,0.0,-3.1154,-3.1212,-3.0472,-3.2162,-3.2659,0.0,-3.2101,-3.1624,0.0,0.0,0.0,0.0,0.0,0.0,0.0,0.0,-3.0733,-3.1595,-3.1619,-3.1874,-3.236,-3.2114,-3.1511,-3.0687,-3.0648,-2.9716,-2.7738,-2.7119,-2.6384,0.0,0.0,0.0,0.0,0.0,0.0,0.0,0.0,0.0,0.0,0.0,0.0,0.0,0.0,0.0,0.0,0.0,0.0,0.0,0.0,0.0,0.0,0.0,-2.9664,0.0,0.0,0.0,0.0,0.0,0.0,0.0,0.0,0.0,-2.8868,-2.8797,-2.9071,-2.9866,-3.0862,-3.1376,-3.0947,0.0,0.0,0.0,0.0,0.0,0.0,0.0,-3.0726,-2.9929,-3.0219,-3.0328,-2.9531,-3.0274,-3.084,-3.0307,0.0,0.0,-3.0321,-2.9857,-2.9363,-2.8868,-2.8421,-2.8312,-2.8927,-2.8944,-2.9004,0.0,0.0,0.0,0.0,0.0,0.0,0.0,0.0,-3.2279,-3.2706,0.0,-3.2451,0.0,0.0,0.0,0.0,0.0,-3.0653,0.0,0.0,-3.2405,-3.2819,-3.2111,-3.215,-3.215,-3.215,-3.2131,-3.1672,-3.0848,-2.9956,0.0,0.0,0.0,0.0,0.0,0.0,-2.9916,-3.0734,-3.0691,-3.0667,-3.065,-2.9839,-2.8997,-2.8201,-2.8162,-2.7773,-2.6961,-2.6831,-2.6403,-2.5531,-2.5395,0.0,0.0,0.0,0.0,0.0,0.0,0.0,0.0,0.0,0.0,0.0,0.0,0.0,0.0,0.0,0.0,0.0,0.0,0.0,0.0,-2.978,0.0,0.0,0.0,0.0,0.0,0.0,0.0,0.0,0.0,0.0,-2.9126,-2.9115,-2.9351,-3.0027,0.0,0.0,0.0,0.0,-3.1144,-3.0392,-3.0809,-3.1203,-3.1216,-3.1065,-3.0686,-2.9888,0.0,0.0,-2.8804,-2.8696,-2.8891,-2.9223,-2.9354,-2.9468,-2.9984,-2.9092,-2.8203,-2.81,-2.7604,-2.7282,-2.7637,-2.792,-2.7996,-3.8622,0.0,0.0,0.0,0.0,-3.6196,-3.6112,-3.6251,-3.5776,-3.499,-3.4038,-3.3215,0.0,0.0,0.0,0.0,0.0,0.0,-3.021,-3.0799,-3.1298,-3.1709,-3.2131,-3.2735,-3.3027,-3.3008,-3.2404,-3.1965,-3.1668,-3.0227,-2.9488,-2.9393,0.0,0.0,0.0,0.0,-2.956,-2.978,-2.9765,-2.9774,-2.9791,-2.8909,-2.8356,-2.8104,-2.8104,-2.7693,-2.6871,-2.6805,-2.6396,-2.5526,-2.546,0.0,0.0,0.0,0.0,0.0,0.0,0.0,0.0,0.0,0.0,0.0,0.0,0.0,0.0,0.0,0.0,0.0,0.0,0.0,-2.9719,-2.9729,-2.9701,0.0,0.0,0.0,0.0,0.0,0.0,0.0,0.0,0.0,-2.9512,-2.9283,-2.9407,0.0,0.0,-2.9691,-3.0361,-3.0083,-2.9765,-2.9691,-2.968,0.0,-2.9745,-3.0076,-3.0086,-2.929,-2.9512,-2.9872,-3.0062,-3.0018,-2.9783,-2.926,-2.9071,-2.8906,-2.8497,-2.8608,-2.845,-2.7981,-2.7892,-2.8024,-2.8166,-2.832,-2.8437,-4.0945,-4.0026,-3.7972,-3.7185,-3.726,-3.7238,-3.6966,-3.6543,-3.6502,-3.5883,-3.4875,-3.4053,-3.2854,-3.1338,-3.0053,0.0,0.0,0.0,-3.0261,-3.0764,-3.1498,-3.1914,-3.2131,-3.2638,-3.2891,-3.2832,-3.1992,-3.1408,-3.1057,-2.9674,-2.8786,-2.8391,0.0,0.0,-2.7186,-2.7987,-2.8426,-2.8427,-2.8749,-2.8749,-2.8404,-2.7563,-2.7101,-2.7121,-2.7448,-2.7237,-2.6373,-2.6634,-2.6405,-2.5557,-2.5519,-2.549,0.0,0.0,0.0,0.0,0.0,0.0,0.0,0.0,0.0,0.0,0.0,-2.9429,-2.9433,0.0,0.0,0.0,-2.9167,-2.9345,-2.9673,-2.9701,0.0,0.0,0.0,0.0,0.0,0.0,0.0,-2.9531,-2.9608,-2.9701,-2.9701,-2.9492,-2.9508,-2.9945,-2.9617,-2.9531,-3.0046,0.0,-2.9384,-2.9492,-2.9272,-2.9104,-2.9123,-2.933,-2.932,-2.8877,-2.9081,-2.9393,-2.9714,-2.9711,-2.9437,-2.8844,-2.8603,-2.8355,-2.7804,-2.8105,-2.8298,-2.7824,-2.7899,-2.8161,-2.8361,-2.8476,-2.8625,-4.2868,-4.2608,-4.0106,-3.825,-3.7022,-3.7905,-3.6948,-3.487,-3.5662,-3.5929,-3.5747,-3.4952,-3.4495,-3.4086,-3.1017,0.0,-3.0694,-3.0763,-3.0775,-3.0758,-3.2366,-3.2713,-3.2012,-3.1839,-3.1858,-3.1956,-3.1055,-3.0217,-2.9496,-2.8639,-2.7764,-2.69,-2.6892,-2.6503,-2.579,-2.6506,-2.6877,-2.6913,-2.7694,-2.7665,-2.6816,-2.602,-2.5611,-2.5629,-2.6373,-2.6422,-2.568,-2.622,-2.6219,-2.5437,-2.5403,-2.5008,-2.4157,0.0,0.0,0.0,0.0,0.0,0.0,0.0,0.0,0.0,0.0,0.0,0.0,0.0,0.0,0.0,-2.8519,0.0,-2.9635,-2.971,0.0,0.0,0.0,-2.9701,-2.9701,-2.9701,-2.9701,-2.9701,0.0,0.0,-2.9701,-2.9701,-2.9636,-2.9443,-2.9579,-2.9655,-2.9536,-2.9654,-2.9701,-2.9673,-2.9394,-2.9148,-2.9137,-2.8917,-2.8704,-2.86,-2.8605,-2.8595,-2.8483,-2.8448,-2.83,-2.811,-2.8,-2.7925,-2.773,-2.7751,-2.7716,-2.7733,-2.7719,-2.7822,-2.8216,-2.831,-2.8387,-4.3472,-4.2997,-4.1694,-4.059,-3.9616,-3.9104,-3.8815,-3.872,-3.8633,-3.7862,-3.6557,-3.5783,-3.4337,-3.2484,-3.1673,-3.1088,-3.0722,-3.1393,-3.1345,-3.0688,-3.0505,-3.0637,-3.0948,-2.9742,-2.9827,-3.0957,-2.9535,-2.9048,-2.9438,-2.8619,-2.7768,-2.6924,-2.6897,-2.6464,-2.5694,-2.648,-2.6884,-2.6891,-2.7102,-2.6792,-2.594,-2.5757,-2.5641,-2.5609,-2.5788,-2.5816,-2.5593,-2.5111,-2.4721,-2.4532,-2.4525,-2.4118,-2.3267,-2.4463,0.0,0.0,0.0,0.0,0.0,0.0,0.0,0.0,0.0,-2.9817,-2.9724,0.0,-2.8973,0.0,-2.9489,-2.9622,-2.983,-2.9849,0.0,0.0,-2.9755,-2.9701,-2.9701,-2.9701,-2.9701,-2.9701,-2.9701,-2.9701,-2.9701,-2.9701,-2.9692,-2.9636,-2.9655,-2.9917,-3.0413,-3.003,-2.9701,-2.9673,-2.9598,-2.9492,-2.9312,-2.9041,-2.8737,-2.8502,-2.8432,-2.8393,-2.8273,-2.8164,-2.8085,-2.8014,-2.7864,-2.776,-2.7663,-2.7716,-2.7698,-2.7716,-2.7716,-2.7736,-2.784,-2.7755,-2.7651,-4.3368,-4.3149,-4.2385,-4.1588,-4.0747,-3.9919,-3.9676,-3.9745,-3.9167,-3.8148,-3.6826,-3.5646,-3.4327,-3.2996,-3.2203,-3.1616,-3.123,-3.1705,-3.127,-3.0106,-3.0047,-2.9874,-2.9577,-2.9029,-2.9287,-3.018,-2.9238,-2.881,-2.8878,-2.803,-2.7197,-2.6381,-2.637,-2.6137,-2.5682,-2.6089,-2.6514,-2.6891,-2.6542,-2.6113,-2.5683,-2.5682,-2.5682,-2.5644,-2.5612,-2.5411,-2.5017,-2.4857,-2.4633,-2.4268,-2.4582,-2.4385,-2.3589,-2.4043,-2.3918,0.0,0.0,0.0,0.0,0.0,0.0,0.0,0.0,0.0,0.0,0.0,-2.9015,-2.9804,-2.9627,-2.9604,-2.9958,-2.9996,-2.9988,-2.9988,-2.9918,-2.9866,-2.9799,-2.979,-2.9783,-2.9701,-2.9363,-2.927,-2.9636,-2.9363,-2.927,-2.9626,-2.9701,-2.9852,-3.0227,-2.9964,-2.9701,-2.9701,-2.9598,-2.9394,-2.909,-2.8892,-2.8669,-2.8393,-2.8313,-2.8166,-2.7691,-2.7506,-2.7348,-2.6943,-2.6739,-2.6683,-2.6665,-2.6683,-2.6683,-2.6683,-2.6665,-2.6929,-2.7543,-2.7367,-2.7053,-4.2779,-4.294,-4.2335,-4.1711,-4.1059,-4.0454,-3.9931,-3.9446,-3.8698,-3.7796,-3.6801,-3.5259,-3.4568,-3.4452,-3.2977,-3.2237,-3.2126,-3.2061,-3.1172,-2.9691,-3.0148,-2.9638,-2.8379,-2.8896,-2.9285,-2.9497,-2.9387,-2.8958,-2.8176,-2.7322,-2.6498,-2.5738,-2.5687,-2.5749,-2.5831,-2.5702,-2.5996,-2.6716,-2.616,-2.5804,-2.5707,-2.5825,-2.5825,-2.5708,-2.5527,-2.5093,-2.4371,-2.4752,-2.4693,-2.4044,-2.4739,-2.4752,-2.3883,-2.3437,-2.3084,0.0,-2.2398,0.0,0.0,0.0,0.0,0.0,0.0,0.0,0.0,-2.905,-2.8968,-2.9726,-2.9161,-2.9098,-2.9907,-2.9868,-2.9804,-2.9785,-2.9791,-2.9766,-2.9755,-2.9769,-2.9712,-2.9596,-2.8883,-2.8705,-2.9194,-2.8697,-2.8538,-2.911,-2.9214,-2.9214,-2.9364,-2.9514,-2.9626,-2.9551,-2.9201,-2.864,-2.8205,-2.8191,-2.8128,-2.7942,-2.7759,-2.7566,-2.6747,-2.6631,-2.6347,-2.5653,-2.5524,-2.5472,-2.5401,-2.5437,-2.5437,-2.5507,-2.5437,-2.577,-2.6876,-2.6844,-2.6476,-4.1857,-4.1855,-4.1252,-4.104,-4.1059,-4.0444,-4.0126,-3.9994,-3.9432,-3.8325,-3.6849,-3.5886,-3.5433,-3.5419,-3.5123,-3.4563,-3.3871,-3.318,-3.2314,-3.1245,-2.9415,-2.8764,-2.9008,-2.7921,-2.814,-2.9385,-2.8766,-2.8364,-2.8184,-2.7331,-2.6498,-2.5718,-2.5701,-2.6032,-2.6599,0.0,0.0,0.0,-2.6463,-2.6404,-2.5765,-2.6391,-2.6411,-2.5727,-2.5,0.0,-2.435,-2.3117,-2.2351,-2.2211,-2.3013,0.0,0.0,0.0,0.0,0.0,0.0,0.0,0.0,0.0,0.0,0.0,-2.7343,-2.7431,-2.8142,-2.7988,-2.7892,-2.8064,-2.8043,-2.8345,-2.921,-2.8647,-2.8224,-2.8224,-2.8147,-2.8318,-2.8907,-2.8996,-2.8965,-2.8885,-2.8677,-2.8317,-2.7785,-2.7471,-2.7417,-2.764,-2.7603,-2.7586,-2.7633,-2.8765,-2.9308,-2.869,-2.7884,-2.7051,-2.6286,-2.6516,-2.6766,-2.6428,-2.6239,-2.603,-2.576,-2.5666,-2.5653,-2.5314,-2.5401,-2.5331,-2.5314,-2.5401,-2.5191,-2.5366,-2.4875,-2.4783,-2.563,-2.5717,-2.563,-4.1063,0.0,-4.0827,-4.0608,0.0,-3.9706,-3.9462,-3.9515,-3.895,-3.7784,-3.6239,-3.5825,-3.5643,-3.5623,-3.5234,-3.4582,-3.3712,-3.2856,-3.1773,-3.052,-2.9266,-2.8686,-2.871,-2.8265,-2.8563,-2.9401,-2.861,-2.8192,-2.8133,-2.692,-2.6108,-2.5699,-2.5699,-2.5894,-2.6264,-2.5898,-2.5697,-2.5699,-2.615,-2.6133,-2.5746,-2.6137,-2.6137,-2.5708,-2.5269,0.0,0.0,0.0,0.0,0.0,0.0,0.0,0.0,0.0,0.0,-2.3107,-2.3835,-2.4309,-2.4294,-2.5059,-2.5698,-2.608,-2.6126,-2.6429,-2.719,-2.7584,-2.7802,-2.7788,-2.786,-2.8082,-2.8487,-2.8155,-2.789,-2.7885,-2.7839,-2.7953,-2.8235,-2.8306,-2.8262,-2.8061,-2.7634,-2.725,-2.7271,-2.6759,-2.668,-2.7015,-2.71,-2.7054,-2.713,-2.7792,-2.8045,-2.7233,-2.7075,-2.6561,-2.5741,-2.5976,-2.6213,-2.5979,-2.5881,-2.5572,-2.4945,-2.494,-2.4749,-2.3982,-2.3716,-2.3623,-2.3202,-2.3119,-2.3137,-2.3102,-2.2815,-2.2687,-2.3114,-2.3734,-2.4247,-4.0262,-4.042,-4.0471,-4.0113,-3.9488,-3.886,-3.8537,-3.8428,0.0,0.0,0.0,-3.5357,-3.5297,-3.5129,-3.448,-3.3789,-3.3049,-3.2198,-3.1038,-2.9747,-2.9287,-2.8797,-2.8365,-2.8842,-2.9194,-2.934,-2.8873,-2.8482,-2.8151,-2.6797,-2.605,-2.5913,-2.5913,-2.5991,-2.6108,-2.5993,-2.5928,-2.5928,-2.5935,-2.586,-2.5723,-2.584,-2.584,-2.5704,-2.5549,-2.5127,-2.4433,-2.4258,-2.4179,-2.4179,-2.4246,-2.4575,-2.5175,-2.4792,-2.4392,-2.4104,-2.3713,-2.3398,-2.3289,-2.3992,-2.4455,-2.4432,-2.5105,-2.5778,-2.645,-2.7155,-2.7623,-2.7759,-2.7643,-2.7604,-2.7759,-2.7643,-2.7546,-2.7565,-2.7542,-2.7526,-2.7594,-2.7615,-2.753,-2.7287,-2.6664,-2.6231,-2.6687,-2.6099,-2.583,-2.6438,-2.6485,-2.6617,-2.6599,-2.6711,-2.6617,-2.5863,-2.6023,-2.608,-2.5316,-2.5464,-2.5838,-2.5247,-2.5288,-2.5057,-2.4122,-2.388,-2.3383,-2.2148,-2.1797,-2.1586,-2.1018,-2.1035,-2.0824,-2.0807,-2.0701,-2.0666,-2.0859,-2.168,-2.2493,-3.9296,-3.9351,-3.9564,-3.9219,-3.8507,-3.8588,-3.789,-3.6774,-3.6901,-3.6036,-3.4486,-3.4488,-3.411,-3.345,-3.332,-3.3223,-3.3044,-3.2198,-3.1676,-3.1308,-2.9205,-2.8517,-2.9102,-2.8543,-2.864,-2.9326,-2.9992,-2.9613,-2.831,-2.7943,-2.747,-2.6807,-2.6729,-2.708,-2.7725,-2.7166,-2.6823,-2.6827,-2.6812,-2.6466,-2.5731,-2.6433,-2.6452,-2.5732,-2.4975,-2.4548,-2.4416,-2.3699,-2.3272,-2.3292,-2.3984,-2.4101,-2.3548,-2.4724,-2.478,-2.3493,-2.4551,-2.4995,-2.4285,-2.494,-2.5381,-2.5333,-2.543,-2.5565,-2.5662,-2.5782,-2.613,-2.6764,-2.6323,-2.613,-2.6725,-2.63,-2.5975,-2.5936,-2.5874,-2.6098,-2.6754,-2.6852,-2.6781,-2.6658,-2.6481,-2.5958,-2.5395,-2.5073,-2.4926,-2.491,-2.5155,-2.4963,-2.5131,-2.5465,-2.5503,-2.4899,-2.4768,-2.4445,-2.3866,-2.4036,-2.4169,-2.3406,-2.3295,-2.2999,-2.2017,-2.1875,-2.1683,-2.1068,-2.0971,-2.0883,-2.0719,-2.0824,-2.0684,-2.0585,-2.0216,-2.0023,-2.0497,-2.0504,-2.0469,-3.9101,-3.9115,-3.9232,-3.8837,-3.8022,-3.7386,-3.6445,-3.5496,-3.5769,-3.5311,-3.4302,-3.4248,-3.3815,-3.3084,-3.3086,-3.2845,-3.2372,-3.1966,-3.156,-3.1081,-2.994,-2.9616,-2.9945,-2.9634,-2.964,-2.999,-2.9991,-2.9615,-2.893,-2.8432,-2.7976,-2.7626,-2.7606,-2.7801,-2.8134,-2.7844,-2.7418,-2.6932,-2.6516,-2.6095,-2.5708,-2.608,-2.6101,-2.5696,-2.5307,-2.5114,-2.5097,-2.4261,-2.4027,-2.4497,-2.4425,-2.4427,-2.4537,-2.5232,-2.5311,-2.4597,-2.5253,-2.5527,-2.5076,-2.535,-2.5521,-2.5523,-2.5507,-2.5507,-2.5507,-2.5507,-2.5662,-2.601,-2.5681,-2.5642,-2.601,-2.57,-2.5507,-2.5507,-2.5507,-2.5642,-2.5948,-2.602,-2.5965,-2.5895,-2.5798,-2.5498,-2.5032,-2.4823,-2.4692,-2.4621,-2.4566,-2.4508,-2.4481,-2.4398,-2.4259,-2.3925,-2.4175,-2.3896,-2.2887,-2.3162,-2.3169,-2.2401,-2.2272,-2.1935,-2.1263,-2.1167,-2.094,-2.0361,-2.0198,-2.0023,-1.9707,-1.9549,-1.9549,-1.9531,-1.9338,-1.924,-1.9384,-1.9178,-1.9416,-3.9101,-3.9101,-3.9101,-3.8525,-3.7511,-3.606,-3.5109,-3.4663,-3.4936,-3.4713,-3.4152,-3.3994,-3.3369,-3.2497,-3.2505,-3.2158,-3.1579,-3.1541,-3.1197,-3.0617,-3.0385,-3.0404,-3.0559,-3.0424,-3.0403,-3.0516,-2.9955,-2.9625,-2.9407,-2.8617,-2.8203,-2.823,-2.8385,-2.8483,-2.8502,-2.8308,-2.7859,-2.7178,-2.6203,-2.5702,-2.5702,-2.5702,-2.5707,-2.5692,-2.5693,-2.5696,-2.5661,-2.5059,-2.5001,-2.5607,-2.5062,-2.4985,-2.5648,-2.5687,-2.5687,-2.5689,-2.5699,-2.5683,-2.5604,-2.5543,-2.5515,-2.551,-2.5507,-2.5519,-2.5515,-2.5519,-2.5507,-2.5507,-2.5526,-2.5507,-2.5546,-2.5507,-2.5507,-2.5507,-2.5507,-2.5507,-2.548,-2.5412,-2.5387,-2.5373,-2.5253,-2.5162,-2.5086,-2.4929,-2.4779,-2.47,-2.4615,-2.4551,-2.4434,-2.3888,-2.3489,-2.3314,-2.3646,-2.3543,-2.2423,-2.259,-2.2488,-2.1644,-2.1615,-2.1317,-2.0861,-2.0761,-2.055,-1.9694,-1.9446,-1.9232,-1.867,-1.8547,-1.86,-1.8653,-1.8608,-1.8498,-1.85,-1.8503,-1.8703,-3.9101,-3.9101,-3.9101,-3.8209,-3.6699,-3.5089,-3.4456,-3.4591,-3.4636,-3.4387,-3.3888,-3.3352,-3.227,-3.0853,-3.08,-3.0776,-3.0728,-3.0714,-3.0694,-3.052,-2.979,-2.9843,-3.0482,-2.9824,-2.9829,-3.0515,-3.0496,-3.0075,-2.947,-2.8668,-2.8247,-2.8305,-2.8989,-2.9379,-2.9321,-2.86,-2.8171,-2.8056,-2.6519,-2.5703,-2.5701,-2.5701,-2.5703,-2.5703,-2.5692,-2.5696,-2.5699,-2.5634,-2.5602,-2.5701,-2.5606,-2.5609,-2.5687,-2.5687,-2.5687,-2.5687,-2.5689,-2.5678,-2.5624,-2.5607,-2.5564,-2.5518,-2.5518,-2.552,-2.5505,-2.5517,-2.5511,-2.5515,-2.5515,-2.5507,-2.5507,-2.5507,-2.5507,-2.5507,-2.5488,-2.5484,-2.5406,-2.54,-2.5382,-2.5384,-2.5317,-2.5224,-2.5138,-2.5055,-2.4961,-2.4742,-2.4684,-2.4647,-2.4547,-2.4285,-2.3959,-2.3302,-2.2773,-2.2561,-2.2646,-2.246,-2.1869,-2.1086,-2.0886,-2.0554,-1.9957,-1.95,-1.9137,-1.9262,-1.8842,-1.8704,-1.8632,-1.8495,-1.8524,-1.8573,-1.8506,-1.8398,-1.8351,-1.845,-1.8712,-3.9101,-3.9101,-3.9101,-3.8172,-3.6569,-3.4903,-3.4257,-3.4363,-3.4528,-3.4208,-3.3573,-3.3407,-3.2503,-3.1027,-3.0553,-3.0358,-3.0428,-3.0505,-3.0564,-3.0559,-3.0211,-3.0269,-3.052,-3.0269,-3.0288,-3.0564,-3.0604,-3.0439,-3.0118,-2.982,-2.9705,-2.9766,-3.0119,-3.0256,-3.0217,-2.9399,-2.897,-2.8911,-2.7275,-2.64,-2.6359,-2.5952,-2.5701,-2.5705,-2.5691,-2.5696,-2.5702,-2.569,-2.5693,-2.5694,-2.5696,-2.5697,-2.5698,-2.5698,-2.5699,-2.5703,-2.5705,-2.5677,-2.5605,-2.5601,-2.5587,-2.5545,-2.5556,-2.5547,-2.5559,-2.5556,-2.5557,-2.5549,-2.5508,-2.5507,-2.5511,-2.5511,-2.5507,-2.5507,-2.5476,-2.5429,-2.5401,-2.5391,-2.5388,-2.5398,-2.5327,-2.5293,-2.5228,-2.5149,-2.5037,-2.4847,-2.4757,-2.4715,-2.4693,-2.4177,-2.3913,-2.3907,-2.2615,-2.1529,-2.1818,-2.1996,-2.1384,-2.0493,-2.0084,-1.98,-1.9482,-1.9251,-1.9132,-1.8948,-1.8834,-1.878,-1.8825,-1.8789,-1.8807,-1.878,-1.8789,-1.8725,-1.8661,-1.8698,-1.8679,-3.9101,-3.9027,-3.8637,-3.7764,-3.6569,-3.4903,-3.4216,-3.4221,-3.4397,-3.418,-3.3671,-3.352,-3.2778,-3.1595,-3.0823,-3.0567,-3.0618,-3.0521,-3.053,-3.0593,-3.0617,-3.0617,-3.0617,-3.0617,-3.0617,-3.0602,-3.061,-3.0481,-3.032,-3.0341,-3.0406,-3.0448,-3.0451,-3.0431,-3.0373,-2.9769,-2.9515,-2.934,-2.7801,-2.7004,-2.7082,-2.6244,-2.5703,-2.5689,-2.5689,-2.5694,-2.5702,-2.5704,-2.5704,-2.5704,-2.5689,-2.5689,-2.5689,-2.5689,-2.5595,-2.5366,-2.5351,-2.5323,-2.5273,-2.5488,-2.5622,-2.5608,-2.5611,-2.5504,-2.535,-2.5457,-2.549,-2.526,-2.5404,-2.5534,-2.5503,-2.5523,-2.5507,-2.5488,-2.5433,-2.5397,-2.5393,-2.5397,-2.5394,-2.5384,-2.5322,-2.5308,-2.5279,-2.5208,-2.5115,-2.4962,-2.4862,-2.4804,-2.483,-2.4227,-2.3904,-2.416,-2.2576,-2.183,-2.1548,-2.1191,-2.086,-2.0407,-1.9924,-1.9629,-1.9383,-1.9353,-1.9289,-1.9115,-1.9056,-1.8998,-1.8947,-1.8972,-1.9006,-1.9016,-1.8999,-1.8983,-1.886,-1.8887,-1.8913,-3.9101,-3.8859,-3.7448,-3.6853,-3.6588,-3.4959,-3.4216,-3.4216,-3.4233,-3.4333,-3.4322,-3.3512,-3.2686,-3.2099,-3.1632,-3.1376,-3.1303,-3.0775,-3.0598,-3.069,-3.0694,-3.0636,-3.0617,-3.0617,-3.0617,-3.0617,-3.0602,-3.026,-2.9612,-2.9593,-2.9549,-2.963,-2.971,-2.9632,-2.9691,-2.9593,-2.9515,-2.9318,-2.7799,-2.7253,-2.776,-2.6496,-2.5695,-2.5697,-2.5699,-2.5701,-2.5703,-2.5689,-2.5694,-2.5692,-2.5702,-2.5689,-2.5689,-2.5669,-2.5301,-2.4623,-2.447,-2.4454,-2.4558,-2.5115,-2.5527,-2.5525,-2.5396,-2.5209,-2.4557,-2.4987,-2.5078,-2.4511,-2.501,-2.5377,-2.5351,-2.5421,-2.5515,-2.5507,-2.5445,-2.5406,-2.5408,-2.5415,-2.5365,-2.5327,-2.5313,-2.5308,-2.5303,-2.5303,-2.5228,-2.5132,-2.5072,-2.5037,-2.4936,-2.4807,-2.4218,-2.3348,-2.3076,-2.3414,-2.3133,-2.1673,-2.0573,-2.0128,-1.9824,-1.9602,-1.9515,-1.9446,-1.9361,-1.9274,-1.917,-1.9097,-1.904,-1.9023,-1.9074,-1.9092,-1.9092,-1.9051,-1.9084,-1.9127,-1.9152,-3.9101,-3.899,-3.7944,-3.7169,-3.6588,-3.5491,-3.4729,-3.4216,-3.4216,-3.4257,-3.4279,-3.3917,-3.3662,-3.343,-3.2861,-3.1827,-3.0612,-3.09,-3.1232,-3.1419,-3.1942,-3.1908,-3.141,-3.1366,-3.1081,-3.0656,-3.0617,-3.0455,-3.0242,-3.0224,-3.0279,-3.0269,-3.0324,-3.0353,-3.0236,-2.9769,-2.9508,-2.9321,-2.7783,-2.7053,-2.7232,-2.6215,-2.5632,-2.5634,-2.5665,-2.5699,-2.5699,-2.5701,-2.5703,-2.5705,-2.5689,-2.5691,-2.5653,-2.5169,-2.4745,-2.4396,-2.388,-2.3553,-2.3595,-2.3857,-2.4018,-2.4,-2.4004,-2.3944,-2.3691,-2.3825,-2.388,-2.3745,-2.3812,-2.3986,-2.4206,-2.4892,-2.5546,-2.5546,-2.5554,-2.5495,-2.5518,-2.5452,-2.5394,-2.538,-2.5331,-2.5308,-2.5308,-2.5308,-2.5274,-2.5214,-2.5154,-2.5126,-2.5121,-2.5025,-2.4531,-2.3774,-2.3564,-2.348,-2.2948,-2.1669,-2.0527,-2.0071,-1.9731,-1.9639,-1.9555,-1.9548,-1.9479,-1.9446,-1.9346,-1.9323,-1.93,-1.9308,-1.9318,-1.9326,-1.9329,-1.9272,-1.9308,-1.9311,-1.9352,-3.9101,-3.8971,-3.8228,-3.7429,-3.663,-3.5844,-3.499,-3.4253,-3.4216,-3.4216,-3.4216,-3.4216,-3.4079,-3.3794,-3.3374,-3.2311,-3.0818,-3.1519,-3.1962,-3.2179,-3.2814,-3.2633,-3.1927,-3.1797,-3.1386,-3.0714,-3.0617,-3.0601,-3.0606,-3.0672,-3.0707,-3.0703,-3.0739,-3.0769,-3.0633,-2.9907,-2.958,-2.9471,-2.791,-2.6946,-2.7042,-2.6164,-2.5601,-2.5607,-2.5639,-2.568,-2.565,-2.5394,-2.5399,-2.5619,-2.5426,-2.5407,-2.5563,-2.4594,-2.3977,-2.3884,-2.3153,-2.2693,-2.2754,-2.2953,-2.3112,-2.3112,-2.3099,-2.3024,-2.279,-2.2949,-2.2988,-2.2891,-2.3045,-2.3097,-2.3311,-2.414,-2.4885,-2.5118,-2.518,-2.5327,-2.5535,-2.549,-2.5437,-2.5399,-2.5359,-2.5327,-2.5308,-2.5308,-2.5308,-2.5308,-2.5228,-2.5222,-2.5268,-2.5141,-2.4793,-2.4236,-2.3921,-2.3463,-2.295,-2.1994,-2.1123,-2.0612,-1.9859,-1.9715,-1.9583,-1.9583,-1.9583,-1.9583,-1.9583,-1.9583,-1.9583,-1.9583,-1.9583,-1.9583,-1.9541,-1.9457,-1.9479,-1.9468,-1.9457,-3.9101,-3.899,-3.8247,-3.7522,-3.676,-3.6067,-3.5101,-3.4414,-3.429,-3.4309,-3.4216,-3.4216,-3.3844,-3.3243,-3.3229,-3.268,-3.2285,-3.2604,-3.2812,-3.2839,-3.3086,-3.2733,-3.1942,-3.185,-3.1366,-3.0636,-3.0617,-3.0621,-3.0621,-3.0665,-3.0685,-3.0694,-3.0697,-3.0719,-3.07,-2.9962,-2.9865,-2.9858,-2.8149,-2.7327,-2.777,-2.6463,-2.567,-2.5618,-2.5582,-2.5601,-2.5591,-2.4808,-2.4817,-2.5481,-2.49,-2.4842,-2.5348,-2.4123,-2.3153,-2.3086,-2.2312,-2.1872,-2.1957,-2.2506,-2.2799,-2.28,-2.2962,-2.2536,-2.2087,-2.2461,-2.2578,-2.2129,-2.2461,-2.2969,-2.2949,-2.3027,-2.3437,-2.4131,-2.4317,-2.4645,-2.5262,-2.552,-2.5482,-2.5417,-2.5389,-2.537,-2.5322,-2.5308,-2.5308,-2.5303,-2.5293,-2.5288,-2.5303,-2.5259,-2.4933,-2.437,-2.4169,-2.3932,-2.3226,-2.2524,-2.1893,-2.1262,-2.0379,-1.9836,-1.9653,-1.9583,-1.9583,-1.9583,-1.9583,-1.9583,-1.9583,-1.9583,-1.9576,-1.9576,-1.9583,-1.9569,-1.9541,-1.9493,-1.9479,-3.9101,-3.9064,-3.8841,-3.8265,-3.7541,-3.7243,-3.6389,-3.5157,-3.5101,-3.4785,-3.429,-3.4216,-3.4048,-3.3881,-3.3807,-3.3724,-3.3586,-3.3979,-3.3982,-3.3664,-3.3794,-3.3495,-3.2708,-3.2091,-3.1371,-3.0733,-3.0617,-3.0602,-3.0606,-3.0625,-3.0634,-3.0649,-3.0697,-3.0707,-3.0688,-3.0425,-3.0217,-2.9644,-2.8962,-2.8171,-2.7253,-2.6645,-2.6118,-2.5606,-2.5531,-2.5556,-2.5564,-2.4766,-2.4778,-2.5619,-2.4881,-2.4803,-2.5192,-2.4045,-2.3152,-2.2947,-2.1706,-2.0932,-2.1016,-2.1235,-2.1453,-2.1414,-2.14,-2.1285,-2.1051,-2.1269,-2.1328,-2.1055,-2.125,-2.1406,-2.1406,-2.1387,-2.2012,-2.334,-2.3528,-2.3856,-2.4651,-2.5216,-2.5489,-2.5415,-2.5391,-2.5372,-2.5313,-2.5293,-2.5317,-2.5303,-2.5298,-2.5293,-2.5293,-2.5313,-2.4986,-2.4298,-2.4423,-2.425,-2.329,-2.2738,-2.2457,-2.1808,-2.0978,-2.0217,-1.9945,-1.9769,-1.9731,-1.9583,-1.9583,-1.9576,-1.9576,-1.9576,-1.9562,-1.9529,-1.9541,-1.9526,-1.9505,-1.949,-1.9468,-3.9101,-3.9101,-3.9101,-3.8432,-3.7541,-3.7745,-3.6811,-3.525,-3.538,-3.4996,-3.4327,-3.4216,-3.4216,-3.4216,-3.4216,-3.4216,-3.4227,-3.4636,-3.4576,-3.4289,-3.4616,-3.4286,-3.3439,-3.265,-3.1657,-3.083,-3.0907,-3.0888,-3.0602,-3.0604,-3.0602,-3.061,-3.0638,-3.0649,-3.0607,-3.0323,-2.9955,-2.9694,-2.9113,-2.8422,-2.7701,-2.7015,-2.6447,-2.599,-2.566,-2.5541,-2.5532,-2.4759,-2.4581,-2.4933,-2.4374,-2.4218,-2.4588,-2.3655,-2.2976,-2.2459,-2.1685,-2.0911,-2.0666,-2.067,-2.0594,-2.0594,-2.0598,-2.062,-2.0601,-2.0604,-2.0605,-2.0605,-2.0644,-2.0605,-2.0625,-2.0605,-2.1133,-2.2012,-2.25,-2.3047,-2.3827,-2.4632,-2.5024,-2.5018,-2.524,-2.536,-2.5386,-2.5359,-2.5363,-2.5361,-2.5348,-2.5345,-2.5336,-2.5327,-2.4822,-2.4432,-2.437,-2.3908,-2.3081,-2.2858,-2.2924,-2.2312,-2.1582,-2.0918,-2.0462,-2.0284,-2.0203,-1.9706,-1.955,-1.9548,-1.9541,-1.9533,-1.9508,-1.9493,-1.9497,-1.949,-1.9468,-1.9446,-1.9413,-3.9101,-3.9101,-3.9101,-3.8302,-3.7169,-3.7758,-3.6848,-3.4934,-3.5287,-3.5231,-3.4587,-3.429,-3.4271,-3.429,-3.429,-3.4216,-3.4257,-3.4495,-3.4586,-3.4669,-3.5023,-3.4802,-3.3718,-3.3158,-3.2179,-3.1062,-3.1405,-3.1289,-3.0641,-3.0615,-3.0621,-3.0617,-3.0589,-3.0593,-3.0464,-2.978,-2.9877,-3.0163,-2.907,-2.8726,-2.9035,-2.7677,-2.6749,-2.6621,-2.592,-2.5535,-2.5474,-2.4662,-2.4233,-2.4294,-2.3887,-2.3673,-2.3419,-2.3207,-2.2765,-2.2134,-2.1842,-2.1227,-2.0766,-2.0593,-2.0594,-2.0594,-2.0597,-2.0599,-2.0601,-2.0603,-2.0604,-2.0604,-2.0605,-2.0605,-2.0605,-2.0605,-2.0684,-2.0723,-2.1582,-2.2344,-2.2988,-2.38,-2.4269,-2.448,-2.496,-2.5462,-2.5425,-2.5452,-2.5459,-2.5457,-2.5436,-2.5387,-2.517,-2.4999,-2.4764,-2.4427,-2.4008,-2.3644,-2.2855,-2.2822,-2.2873,-2.2563,-2.1894,-2.1293,-2.0634,-2.0373,-2.0244,-1.9784,-1.9522,-1.9501,-1.9486,-1.9479,-1.949,-1.9475,-1.9461,-1.9453,-1.9413,-1.939,-1.9367,-3.9064,-3.9101,-3.9101,-3.8841,-3.8507,-3.8711,-3.8079,-3.6928,-3.6463,-3.6203,-3.5795,-3.4717,-3.4606,-3.5033,-3.4476,-3.4216,-3.4257,-3.4473,-3.4465,-3.442,-3.4832,-3.4313,-3.337,-3.3147,-3.258,-3.1652,-3.1758,-3.1371,-3.0656,-3.0714,-3.0689,-3.0592,-3.0573,-3.0471,-3.0369,-3.0204,-3.0218,-3.0422,-3.0187,-2.9607,-2.9143,-2.8272,-2.7369,-2.6734,-2.6005,-2.5619,-2.5476,-2.4179,-2.3763,-2.4392,-2.4861,-2.5017,-2.4647,-2.3719,-2.2965,-2.262,-2.1594,-2.0898,-2.0709,-2.0594,-2.0594,-2.0594,-2.0597,-2.0599,-2.0599,-2.0601,-2.0602,-2.0603,-2.0604,-2.0605,-2.0605,-2.0605,-2.0605,-2.0703,-2.1328,-2.1914,-2.2266,-2.2946,-2.364,-2.4205,-2.4462,-2.482,-2.5182,-2.534,-2.5331,-2.5346,-2.5281,-2.5124,-2.4681,-2.4462,-2.4173,-2.355,-2.3137,-2.305,-2.2874,-2.2816,-2.2752,-2.2611,-2.2078,-2.1442,-2.0645,-1.9908,-1.978,-1.9529,-1.9512,-1.9483,-1.9475,-1.9461,-1.9453,-1.942,-1.9398,-1.9357,-1.9338,-1.9315,-1.9311,-3.904,-3.9064,-3.9087,-3.8897,-3.8674,-3.8952,-3.8451,-3.7541,-3.7299,-3.6983,-3.6519,-3.572,-3.533,-3.5436,-3.4959,-3.4525,-3.4258,-3.4351,-3.434,-3.4316,-3.4674,-3.4265,-3.3623,-3.3705,-3.3395,-3.2368,-3.2567,-3.2272,-3.1694,-3.1526,-3.1526,-3.1471,-3.1089,-3.0873,-3.0873,-3.0488,-3.0359,-3.0346,-3.0411,-3.0183,-2.9687,-2.8877,-2.8304,-2.7639,-2.6919,-2.6389,-2.5893,-2.443,-2.3548,-2.3486,-2.3772,-2.4064,-2.4025,-2.3541,-2.3082,-2.3031,-2.1828,-2.1131,-2.106,-2.0847,-2.0594,-2.0594,-2.0596,-2.0597,-2.0598,-2.0599,-2.0601,-2.0601,-2.0603,-2.0604,-2.0605,-2.0605,-2.0605,-2.0664,-2.1055,-2.1367,-2.1348,-2.2109,-2.2728,-2.3224,-2.3593,-2.3905,-2.4453,-2.4479,-2.4479,-2.443,-2.4306,-2.4081,-2.3796,-2.3688,-2.3388,-2.2703,-2.2238,-2.2107,-2.1812,-2.1684,-2.1752,-2.1713,-2.1611,-2.1085,-2.0653,-1.975,-1.958,-1.9519,-1.9483,-1.9461,-1.9453,-1.942,-1.9372,-1.9357,-1.9326,-1.9311,-1.9285,-1.9259,-1.9272,-3.8997,-3.8993,-3.9073,-3.8692,-3.8247,-3.8767,-3.8395,-3.7318,-3.7596,-3.7541,-3.7039,-3.6718,-3.6049,-3.5621,-3.5268,-3.4878,-3.4216,-3.4233,-3.4215,-3.4333,-3.4582,-3.4471,-3.4135,-3.4691,-3.4225,-3.3201,-3.3671,-3.3334,-3.2722,-3.2651,-3.2732,-3.2459,-3.1908,-3.1658,-3.1524,-3.0994,-3.0618,-3.0739,-3.0861,-3.0881,-3.0535,-2.9742,-2.9115,-2.889,-2.797,-2.7171,-2.6322,-2.5027,-2.3699,-2.2172,-2.1967,-2.2257,-2.2241,-2.2752,-2.2861,-2.2719,-2.198,-2.1458,-2.1564,-2.0882,-2.057,-2.0567,-2.0567,-2.0589,-2.0564,-2.0566,-2.0571,-2.0574,-2.0561,-2.056,-2.0583,-2.0585,-2.0586,-2.0605,-2.0664,-2.0625,-2.0742,-2.1307,-2.1793,-2.1909,-2.2548,-2.2858,-2.3057,-2.3056,-2.3118,-2.3748,-2.3587,-2.3386,-2.3098,-2.2872,-2.2402,-2.17,-2.1365,-2.1139,-2.0766,-2.0391,-2.0493,-2.0564,-2.0579,-2.0372,-2.0477,-1.9928,-1.965,-1.9493,-1.9525,-1.9489,-1.9416,-1.9376,-1.9346,-1.9326,-1.9311,-1.9306,-1.9274,-1.924,-1.9224,-3.8935,-3.9007,-3.9059,-3.9008,-3.8878,-3.9027,-3.8878,-3.8525,-3.8061,-3.8154,-3.8061,-3.6662,-3.6123,-3.6333,-3.5194,-3.4346,-3.4216,-3.4209,-3.4245,-3.4386,-3.4666,-3.4743,-3.4661,-3.5119,-3.4691,-3.3956,-3.3894,-3.3607,-3.3044,-3.2984,-3.2833,-3.28,-3.2642,-3.2382,-3.2306,-3.2077,-3.2077,-3.2111,-3.2139,-3.2098,-3.1785,-3.0655,-2.9908,-2.9743,-2.8541,-2.7415,-2.6554,-2.5562,-2.459,-2.3723,-2.2985,-2.2569,-2.2664,-2.2384,-2.2306,-2.2137,-2.1428,-2.0847,-2.0773,-2.0713,-2.0493,-2.0453,-2.0474,-2.0508,-2.0437,-2.0451,-2.0469,-2.0501,-2.0479,-2.047,-2.0531,-2.0518,-2.0543,-2.0566,-2.0605,-2.0605,-2.0625,-2.076,-2.1187,-2.1691,-2.1997,-2.2364,-2.2954,-2.2893,-2.2929,-2.3051,-2.2893,-2.2732,-2.2427,-2.2094,-2.1615,-2.1007,-2.0843,-2.0713,-2.0535,-2.019,-2.0171,-2.0153,-2.005,-2.0001,-2.0087,-2.0051,-1.9736,-1.9616,-1.9604,-1.9536,-1.9468,-1.9416,-1.9394,-1.9367,-1.9314,-1.9274,-1.9224,-1.92,-1.916,-3.8935,-3.8993,-3.9073,-3.9101,-3.9101,-3.9101,-3.9101,-3.9008,-3.8674,-3.8692,-3.8692,-3.7294,-3.6699,-3.6575,-3.5417,-3.4643,-3.4296,-3.4269,-3.4587,-3.4892,-3.4971,-3.5026,-3.5304,-3.5181,-3.4827,-3.4456,-3.4429,-3.4132,-3.3876,-3.3762,-3.3859,-3.3724,-3.3333,-3.3137,-3.2995,-3.2775,-3.2471,-3.2452,-3.2586,-3.2607,-3.2351,-3.1379,-3.0368,-2.9949,-2.8852,-2.7829,-2.7013,-2.5767,-2.4833,-2.4024,-2.3254,-2.3022,-2.3402,-2.3075,-2.2885,-2.2744,-2.1664,-2.1089,-2.0996,-2.0648,-2.04,-2.0361,-2.0402,-2.0398,-2.0383,-2.0386,-2.0424,-2.0445,-2.0432,-2.0422,-2.0493,-2.0511,-2.052,-2.0543,-2.0585,-2.0605,-2.0605,-2.0603,-2.0718,-2.1165,-2.1259,-2.1471,-2.1784,-2.2136,-2.2018,-2.1784,-2.1745,-2.1585,-2.1505,-2.1196,-2.1057,-2.0668,-2.0482,-2.0356,-2.0312,-2.0205,-2.0135,-2.0108,-2.0045,-1.9998,-2.003,-1.9948,-1.98,-1.9732,-1.9656,-1.9608,-1.9536,-1.9493,-1.945,-1.939,-1.9318,-1.9248,-1.9158,-1.9109,-1.9033,-3.8954,-3.9007,-3.9078,-3.9101,-3.9101,-3.9101,-3.9101,-3.9101,-3.9101,-3.9027,-3.8934,-3.8247,-3.7299,-3.6643,-3.5826,-3.5008,-3.4543,-3.4867,-3.5394,-3.554,-3.556,-3.5812,-3.6072,-3.5638,-3.5315,-3.5191,-3.5116,-3.4993,-3.4823,-3.4964,-3.4775,-3.4756,-3.4226,-3.3903,-3.3714,-3.3241,-3.2985,-3.3069,-3.3079,-3.305,-3.2888,-3.2129,-3.1276,-3.0213,-2.9387,-2.8529,-2.7609,-2.6413,-2.5152,-2.4294,-2.3448,-2.3529,-2.3916,-2.3949,-2.3914,-2.3818,-2.2298,-2.1593,-2.1297,-2.0806,-2.0311,-2.0299,-2.0299,-2.0319,-2.0341,-2.0338,-2.0377,-2.0383,-2.0398,-2.0415,-2.0466,-2.0483,-2.0481,-2.0493,-2.0542,-2.0586,-2.0585,-2.0584,-2.0641,-2.0658,-2.0812,-2.0986,-2.0926,-2.1024,-2.0769,-2.0594,-2.0594,-2.0592,-2.057,-2.0563,-2.0581,-2.0552,-2.0434,-2.0302,-2.025,-2.0148,-2.0079,-2.0045,-1.9996,-1.9988,-1.9982,-1.9919,-1.9824,-1.9751,-1.968,-1.9658,-1.9613,-1.9578,-1.9504,-1.9424,-1.9357,-1.9285,-1.9156,-1.8998,-1.8965,-3.8954,-3.8993,-3.9059,-3.9101,-3.9101,-3.9101,-3.9101,-3.9101,-3.9101,-3.9101,-3.899,-3.826,-3.7448,-3.6699,-3.5863,-3.5033,-3.4859,-3.5518,-3.6175,-3.6186,-3.6413,-3.6931,-3.6841,-3.6336,-3.6171,-3.6384,-3.615,-3.5618,-3.5147,-3.531,-3.5172,-3.4846,-3.464,-3.4575,-3.4557,-3.4462,-3.4188,-3.4112,-3.4121,-3.4169,-3.4027,-3.3307,-3.2227,-3.092,-3.001,-2.9215,-2.8472,-2.7592,-2.6728,-2.5925,-2.5133,-2.4865,-2.4659,-2.3828,-2.3304,-2.303,-2.2407,-2.1886,-2.1629,-2.0882,-2.0372,-2.0248,-2.026,-2.0265,-2.025,-2.0235,-2.0285,-2.0331,-2.0377,-2.0394,-2.0338,-2.0402,-2.0408,-2.0417,-2.0466,-2.054,-2.0543,-2.0566,-2.0603,-2.0599,-2.0598,-2.0597,-2.0596,-2.0595,-2.0596,-2.0594,-2.0591,-2.0568,-2.0544,-2.0536,-2.0521,-2.0494,-2.0458,-2.0331,-2.0242,-2.0111,-2.0011,-2.0005,-1.9974,-1.9963,-1.9943,-1.9913,-1.9855,-1.977,-1.9757,-1.977,-1.9732,-1.9667,-1.9606,-1.9536,-1.9427,-1.9335,-1.9204,-1.9066,-1.8957,-3.891,-3.8993,-3.9036,-3.9059,-3.9101,-3.9101,-3.9101,-3.9101,-3.9101,-3.9101,-3.8859,-3.8265,-3.7721,-3.7182,-3.6495,-3.5863,-3.5839,-3.5861,-3.659,-3.6945,-3.7279,-3.7589,-3.7683,-3.7087,-3.6869,-3.699,-3.6956,-3.6351,-3.5391,-3.5141,-3.5106,-3.49,-3.4788,-3.4819,-3.4849,-3.4784,-3.481,-3.48,-3.4769,-3.479,-3.4679,-3.3715,-3.2379,-3.1345,-3.0351,-2.9518,-2.8798,-2.8415,-2.7744,-2.6949,-2.6127,-2.5792,-2.5361,-2.4704,-2.3767,-2.3371,-2.2967,-2.2525,-2.2088,-2.1376,-2.0913,-2.0792,-2.0508,-2.0225,-2.0197,-2.0218,-2.0231,-2.0283,-2.0327,-2.034,-2.0296,-2.0366,-2.0386,-2.0415,-2.0458,-2.0484,-2.0517,-2.0524,-2.0566,-2.0601,-2.0601,-2.06,-2.0595,-2.0595,-2.0596,-2.0594,-2.057,-2.0544,-2.0516,-2.0504,-2.0511,-2.0482,-2.0439,-2.0308,-2.0196,-2.0088,-1.9971,-1.9958,-1.9926,-1.9913,-1.9897,-1.9874,-1.9843,-1.9801,-1.9819,-1.9825,-1.9795,-1.9719,-1.9673,-1.962,-1.9506,-1.9394,-1.9251,-1.9115,-1.9017,-3.8881,-3.8997,-3.8979,-3.9007,-3.9059,-3.9092,-3.9073,-3.9073,-3.9087,-3.9101,-3.9008,-3.8451,-3.7986,-3.7541,-3.7039,-3.6662,-3.6694,-3.6385,-3.7285,-3.7807,-3.8015,-3.8173,-3.8267,-3.7909,-3.7389,-3.7299,-3.6994,-3.6975,-3.5866,-3.545,-3.5041,-3.476,-3.4708,-3.4758,-3.4749,-3.4771,-3.471,-3.4697,-3.4655,-3.468,-3.4195,-3.3157,-3.2019,-3.1212,-3.0351,-2.9575,-2.9101,-2.8722,-2.8358,-2.7698,-2.7037,-2.6462,-2.6242,-2.5697,-2.4981,-2.4291,-2.4016,-2.3507,-2.2895,-2.2109,-2.1646,-2.1617,-2.0819,-2.0518,-2.0386,-2.0389,-2.0226,-2.0285,-2.03,-2.0307,-2.0313,-2.035,-2.0363,-2.0388,-2.0433,-2.0477,-2.048,-2.0494,-2.0542,-2.0566,-2.0585,-2.0602,-2.0598,-2.0572,-2.0553,-2.0548,-2.0542,-2.0529,-2.05,-2.0506,-2.0509,-2.0458,-2.0408,-2.0271,-2.0163,-2.0084,-1.9993,-1.9922,-1.9902,-1.9874,-1.9844,-1.9813,-1.9813,-1.9838,-1.9813,-1.9813,-1.9795,-1.977,-1.9725,-1.9648,-1.9569,-1.9471,-1.9331,-1.9206,-1.9092,-3.8851,-3.8906,-3.8892,-3.8906,-3.8954,-3.8993,-3.9007,-3.9021,-3.9073,-3.9101,-3.9082,-3.8934,-3.8154,-3.7262,-3.6904,-3.6755,-3.7154,-3.7929,-3.8322,-3.839,-3.883,-3.9043,-3.9077,-3.8501,-3.7935,-3.7535,-3.6597,-3.5905,-3.5656,-3.5957,-3.554,-3.4723,-3.4572,-3.4615,-3.4615,-3.4658,-3.4615,-3.4572,-3.4506,-3.4223,-3.3646,-3.2835,-3.2037,-3.1193,-3.0389,-2.9821,-2.9556,-2.9158,-2.8703,-2.8559,-2.7797,-2.7042,-2.6443,-2.6253,-2.5722,-2.5013,-2.437,-2.383,-2.3564,-2.2914,-2.2468,-2.2315,-2.1642,-2.1306,-2.111,-2.07,-2.0384,-2.0285,-2.0354,-2.0416,-2.0462,-2.0372,-2.0352,-2.0337,-2.0374,-2.0415,-2.0408,-2.0465,-2.0485,-2.0522,-2.0546,-2.0585,-2.0601,-2.0555,-2.0507,-2.0519,-2.051,-2.0516,-2.0501,-2.049,-2.0476,-2.0447,-2.0416,-2.0276,-2.0203,-2.0117,-2.0024,-1.9936,-1.9902,-1.988,-1.9912,-1.9906,-1.9864,-1.987,-1.9882,-1.9839,-1.9795,-1.9789,-1.9757,-1.9694,-1.9621,-1.9525,-1.9402,-1.9287,-1.9158,-3.8795,-3.8851,-3.8851,-3.8877,-3.8935,-3.8935,-3.8993,-3.905,-3.905,-3.9059,-3.9101,-3.9101,-3.8674,-3.7986,-3.7647,-3.7671,-3.805,-3.8486,-3.8756,-3.8788,-3.9239,-3.9427,-3.9126,-3.8565,-3.8077,-3.762,-3.6831,-3.6075,-3.5764,-3.5299,-3.4846,-3.458,-3.4443,-3.4495,-3.4506,-3.4561,-3.4495,-3.445,-3.4386,-3.4119,-3.3426,-3.2723,-3.2027,-3.1204,-3.0351,-2.9991,-2.9802,-2.965,-2.9385,-2.9252,-2.8616,-2.7828,-2.7053,-2.651,-2.5865,-2.51,-2.4753,-2.4537,-2.4435,-2.3705,-2.3387,-2.3094,-2.2566,-2.2093,-2.1957,-2.1448,-2.1195,-2.1696,-2.1235,-2.1023,-2.0989,-2.1005,-2.0689,-2.0552,-2.0537,-2.046,-2.0478,-2.0411,-2.045,-2.0483,-2.0522,-2.0566,-2.0603,-2.0578,-2.055,-2.0542,-2.0529,-2.0513,-2.0496,-2.0459,-2.0443,-2.0425,-2.0382,-2.0315,-2.0242,-2.0167,-2.0079,-2.0005,-2.0024,-2.001,-2.0057,-2.0041,-2.0157,-2.0233,-2.0314,-2.0195,-1.9951,-1.9776,-1.9732,-1.9687,-1.9661,-1.9578,-1.9479,-1.9331,-1.918,-3.8719,-3.8762,-3.8762,-3.8855,-3.8925,-3.8877,-3.8935,-3.9031,-3.9021,-3.905,-3.9013,-3.8915,-3.8859,-3.8878,-3.8302,-3.8191,-3.8985,-3.8492,-3.8675,-3.9077,-3.9266,-3.9285,-3.9096,-3.8611,-3.8093,-3.7615,-3.6959,-3.6061,-3.5231,-3.4878,-3.471,-3.4377,-3.4386,-3.4374,-3.4386,-3.4431,-3.4439,-3.4269,-3.4473,-3.414,-3.3385,-3.2713,-3.1982,-3.1204,-3.0446,-2.9916,-2.9916,-2.9878,-2.9878,-2.9674,-2.9036,-2.821,-2.74,-2.66,-2.5856,-2.5206,-2.4885,-2.4917,-2.4797,-2.4436,-2.4176,-2.3864,-2.3399,-2.2838,-2.2561,-2.2115,-2.197,-2.2549,-2.2207,-2.188,-2.1835,-2.1867,-2.1663,-2.1259,-2.0922,-2.0772,-2.0643,-2.0663,-2.0568,-2.0474,-2.0518,-2.0547,-2.0584,-2.06,-2.0594,-2.0565,-2.0551,-2.0511,-2.049,-2.0465,-2.0434,-2.0417,-2.0383,-2.0346,-2.0285,-2.0214,-2.0134,-2.0084,-2.0079,-2.02,-2.0295,-2.0545,-2.0791,-2.0834,-2.0828,-2.0915,-2.0896,-2.0288,-1.9706,-1.9693,-1.9673,-1.9638,-1.9555,-1.9394,-1.9219,-3.8689,-3.8689,-3.8723,-3.8738,-3.8735,-3.8795,-3.8851,-3.8935,-3.8997,-3.9036,-3.899,-3.8414,-3.8488,-3.8767,-3.8488,-3.8414,-3.9096,-3.9163,-3.9117,-3.9122,-3.9219,-3.9205,-3.9053,-3.8752,-3.8162,-3.7071,-3.6575,-3.5683,-3.4884,-3.5175,-3.4767,-3.4363,-3.4596,-3.4405,-3.4293,-3.434,-3.434,-3.4281,-3.4473,-3.4159,-3.3414,-3.2751,-3.2094,-3.1223,-3.0427,-2.9916,-2.9916,-2.9899,-2.9874,-2.9777,-2.909,-2.8428,-2.7603,-2.6673,-2.5868,-2.5401,-2.5029,-2.5036,-2.4916,-2.4891,-2.4898,-2.467,-2.4238,-2.3572,-2.3202,-2.2824,-2.2753,-2.2992,-2.2905,-2.2765,-2.2712,-2.2682,-2.2579,-2.2153,-2.1729,-2.1585,-2.1369,-2.1021,-2.0891,-2.0621,-2.0591,-2.0761,-2.0564,-2.0579,-2.0594,-2.0566,-2.0542,-2.0498,-2.0493,-2.0468,-2.0425,-2.0412,-2.0399,-2.035,-2.0299,-2.025,-2.019,-2.0106,-2.0065,-2.0329,-2.0602,-2.0935,-2.1438,-2.1417,-2.1422,-2.1628,-2.1685,-2.1039,-2.045,-1.993,-1.9741,-1.9836,-1.969,-1.9494,-1.9292,-3.8707,-3.8707,-3.8707,-3.8738,-3.8747,-3.875,-3.8822,-3.8954,-3.8935,-3.9007,-3.9045,-3.8339,-3.8339,-3.8804,-3.8897,-3.8767,-3.9082,-3.9156,-3.9124,-3.9129,-3.9142,-3.9124,-3.899,-3.8525,-3.7745,-3.6848,-3.629,-3.5826,-3.5231,-3.551,-3.5733,-3.5554,-3.5293,-3.4673,-3.4468,-3.4276,-3.4233,-3.4293,-3.4375,-3.4159,-3.3488,-3.3233,-3.2577,-3.1223,-3.1014,-3.0389,-3.0002,-2.9876,-2.9823,-2.9609,-2.9041,-2.8487,-2.7902,-2.6904,-2.6145,-2.5667,-2.5325,-2.506,-2.4984,-2.5004,-2.5018,-2.5025,-2.4771,-2.447,-2.4009,-2.38,-2.3903,-2.3976,-2.3832,-2.3611,-2.3601,-2.3567,-2.3403,-2.2953,-2.2623,-2.2451,-2.2142,-2.1768,-2.1362,-2.1135,-2.1119,-2.119,-2.0897,-2.0576,-2.0572,-2.0565,-2.0539,-2.0504,-2.048,-2.0456,-2.0432,-2.0402,-2.0385,-2.039,-2.035,-2.0295,-2.0246,-2.0208,-2.0155,-2.0565,-2.1029,-2.1658,-2.2042,-2.2015,-2.2116,-2.2379,-2.2304,-2.176,-2.1294,-2.0921,-2.0492,-2.0175,-1.9948,-1.9681,-1.9519,-3.8707,-3.8707,-3.8707,-3.8719,-3.8765,-3.8719,-3.8795,-3.8925,-3.8896,-3.8935,-3.9022,-3.8498,-3.853,-3.899,-3.9082,-3.9064,-3.9082,-3.9115,-3.9101,-3.9101,-3.9115,-3.9101,-3.8897,-3.8544,-3.8024,-3.7089,-3.6588,-3.6216,-3.5882,-3.6105,-3.6328,-3.6439,-3.6365,-3.5733,-3.4767,-3.4309,-3.4216,-3.4257,-3.433,-3.4355,-3.3767,-3.3562,-3.3355,-3.1953,-3.1526,-3.0903,-3.0452,-3.0287,-3.0009,-2.9699,-2.922,-2.8842,-2.8179,-2.7417,-2.6559,-2.6088,-2.5724,-2.5288,-2.506,-2.501,-2.503,-2.5051,-2.5063,-2.5062,-2.5025,-2.4676,-2.4654,-2.4929,-2.4677,-2.4414,-2.4423,-2.4423,-2.4332,-2.3956,-2.3458,-2.3199,-2.2914,-2.2558,-2.2072,-2.1707,-2.1534,-2.1094,-2.0955,-2.0591,-2.0598,-2.0586,-2.0519,-2.0489,-2.0432,-2.0412,-2.0402,-2.0388,-2.039,-2.0395,-2.0376,-2.036,-2.0411,-2.0723,-2.075,-2.107,-2.1556,-2.2206,-2.2847,-2.3136,-2.3243,-2.3281,-2.3093,-2.2785,-2.2423,-2.2028,-2.1496,-2.0931,-2.0443,-2.0219,-2.002,-3.8707,-3.8707,-3.8707,-3.8707,-3.8723,-3.8707,-3.875,-3.8818,-3.8744,-3.8836,-3.897,-3.884,-3.8883,-3.9069,-3.9101,-3.9101,-3.9073,-3.9087,-3.9087,-3.9073,-3.9059,-3.9087,-3.9069,-3.8846,-3.84,-3.8005,-3.7535,-3.7108,-3.6699,-3.7145,-3.7225,-3.7113,-3.7113,-3.6649,-3.5473,-3.4599,-3.4234,-3.424,-3.4358,-3.4398,-3.4309,-3.3917,-3.3554,-3.2769,-3.1936,-3.122,-3.0609,-3.0668,-3.0302,-2.9626,-2.9533,-2.9157,-2.8583,-2.7708,-2.6995,-2.6531,-2.6254,-2.5743,-2.5098,-2.5022,-2.5024,-2.5089,-2.5082,-2.512,-2.5193,-2.5121,-2.5042,-2.5215,-2.5064,-2.5084,-2.5177,-2.5197,-2.5034,-2.4812,-2.4278,-2.4045,-2.3779,-2.3309,-2.2841,-2.2552,-2.1521,-2.0682,-2.0676,-2.0627,-2.0644,-2.062,-2.053,-2.0507,-2.0575,-2.0426,-2.0455,-2.0754,-2.0775,-2.0766,-2.0782,-2.0554,-2.0613,-2.0977,-2.1323,-2.1617,-2.2123,-2.2813,-2.3448,-2.4031,-2.4069,-2.3844,-2.3919,-2.3949,-2.3369,-2.2753,-2.2276,-2.1725,-2.1197,-2.0811,-2.0697,-3.8707,-3.8707,-3.8707,-3.8707,-3.8707,-3.8707,-3.8753,-3.8715,-3.8372,-3.8426,-3.8793,-3.8474,-3.8591,-3.8906,-3.9087,-3.9073,-3.9036,-3.9036,-3.9021,-3.8979,-3.8979,-3.9007,-3.9021,-3.8957,-3.867,-3.8084,-3.7875,-3.7888,-3.7517,-3.7894,-3.8209,-3.8191,-3.7281,-3.65,-3.5529,-3.4699,-3.4216,-3.4221,-3.4328,-3.4401,-3.4446,-3.4226,-3.3727,-3.2825,-3.209,-3.1337,-3.0528,-3.0772,-3.0506,-2.983,-2.9795,-2.9598,-2.909,-2.8301,-2.7642,-2.7346,-2.7081,-2.5837,-2.5237,-2.5004,-2.5018,-2.5063,-2.5089,-2.512,-2.518,-2.5208,-2.5201,-2.5217,-2.5225,-2.5271,-2.5273,-2.5274,-2.5192,-2.5216,-2.4941,-2.4992,-2.4758,-2.4155,-2.3648,-2.3531,-2.2849,-2.1933,-2.1558,-2.1425,-2.1362,-2.1186,-2.1141,-2.1211,-2.1274,-2.0795,-2.059,-2.1144,-2.1365,-2.1333,-2.1262,-2.1228,-2.1449,-2.1941,-2.2042,-2.2086,-2.2688,-2.3408,-2.3588,-2.3964,-2.4182,-2.4369,-2.4289,-2.4182,-2.3877,-2.3391,-2.2921,-2.2333,-2.1688,-2.1498,-2.1565,-3.8707,-3.8707,-3.8707,-3.8707,-3.8707,-3.8707,-3.8738,-3.867,-3.8254,-3.842,-3.875,-3.8428,-3.8493,-3.8938,-3.9045,-3.9036,-3.8983,-3.8968,-3.8968,-3.891,-3.891,-3.8968,-3.8979,-3.8974,-3.8809,-3.8363,-3.8302,-3.8321,-3.8334,-3.8302,-3.8358,-3.8061,-3.7127,-3.616,-3.5324,-3.4717,-3.4216,-3.4221,-3.4293,-3.434,-3.4397,-3.4252,-3.3875,-3.2941,-3.219,-3.1625,-3.0957,-3.0776,-3.0912,-3.0484,-3.0355,-3.0311,-2.9841,-2.9194,-2.849,-2.8222,-2.7195,-2.6065,-2.5598,-2.5068,-2.5075,-2.5057,-2.5076,-2.5126,-2.518,-2.5203,-2.5208,-2.5225,-2.5264,-2.5255,-2.5271,-2.5273,-2.5298,-2.5322,-2.5322,-2.5354,-2.5231,-2.4601,-2.4163,-2.4083,-2.3707,-2.2949,-2.2497,-2.2381,-2.2236,-2.2027,-2.1817,-2.1945,-2.205,-2.1574,-2.1249,-2.1761,-2.2114,-2.211,-2.2134,-2.2151,-2.245,-2.2893,-2.2892,-2.2783,-2.3326,-2.4013,-2.3938,-2.3893,-2.4222,-2.4428,-2.4447,-2.4291,-2.3952,-2.3757,-2.3539,-2.29,-2.2195,-2.2103,-2.2189,-3.8655,-3.8652,-3.8655,-3.867,-3.8634,-3.8652,-3.8707,-3.8707,-3.867,-3.8762,-3.8892,-3.8855,-3.888,-3.8974,-3.8993,-3.895,-3.8925,-3.8892,-3.8881,-3.8881,-3.887,-3.8925,-3.895,-3.896,-3.8906,-3.9017,-3.8971,-3.8822,-3.9027,-3.8655,-3.8377,-3.7671,-3.642,-3.5659,-3.5101,-3.4624,-3.4234,-3.4228,-3.424,-3.43,-3.434,-3.4356,-3.3889,-3.3136,-3.2539,-3.2096,-3.1736,-3.1806,-3.1843,-3.179,-3.1885,-3.1559,-3.1007,-3.0271,-2.9538,-2.8501,-2.7138,-2.6645,-2.5989,-2.5454,-2.5107,-2.5088,-2.5089,-2.5144,-2.5174,-2.5191,-2.5216,-2.5208,-2.5231,-2.5217,-2.5223,-2.5261,-2.5297,-2.5293,-2.5298,-2.5309,-2.5311,-2.4951,-2.4524,-2.4182,-2.3747,-2.3301,-2.3239,-2.3146,-2.314,-2.3141,-2.3065,-2.3308,-2.3265,-2.2691,-2.248,-2.2727,-2.2975,-2.294,-2.2985,-2.3069,-2.3351,-2.3774,-2.3681,-2.3648,-2.42,-2.4421,-2.4323,-2.4265,-2.4414,-2.4461,-2.4311,-2.4163,-2.3979,-2.3831,-2.3725,-2.3545,-2.2855,-2.2633,-2.2639,-3.8028,-3.7129,-3.8212,-3.8358,-3.797,-3.8469,-3.8707,-3.8707,-3.8707,-3.878,-3.891,-3.8833,-3.8877,-3.8997,-3.895,-3.8896,-3.8833,-3.8803,-3.8777,-3.878,-3.878,-3.8855,-3.8896,-3.8954,-3.9007,-3.9041,-3.9064,-3.9008,-3.8841,-3.8599,-3.7795,-3.6941,-3.5919,-3.5231,-3.4711,-3.4327,-3.4253,-3.4216,-3.4216,-3.4252,-3.4276,-3.4288,-3.3794,-3.3202,-3.2877,-3.2441,-3.2151,-3.2445,-3.24,-3.2039,-3.2598,-3.2536,-3.1815,-3.1119,-3.0335,-2.8885,-2.8097,-2.7593,-2.6463,-2.6024,-2.5639,-2.5145,-2.507,-2.5101,-2.5144,-2.5149,-2.5199,-2.5197,-2.5214,-2.5201,-2.5217,-2.525,-2.5292,-2.5303,-2.5331,-2.5364,-2.5332,-2.5074,-2.4726,-2.4813,-2.4354,-2.4101,-2.404,-2.4029,-2.4048,-2.4183,-2.4313,-2.4499,-2.4411,-2.3794,-2.3585,-2.3793,-2.3787,-2.3739,-2.3918,-2.4025,-2.431,-2.4556,-2.4351,-2.4212,-2.4406,-2.4551,-2.4559,-2.4503,-2.4409,-2.4248,-2.4047,-2.3937,-2.3925,-2.3852,-2.3739,-2.3714,-2.3617,-2.3307,-2.3074,-3.7184,-3.6523,-3.7679,-3.8083,-3.8083,-3.8487,-3.8707,-3.8707,-3.8707,-3.8765,-3.8851,-3.8822,-3.8833,-3.891,-3.8881,-3.8822,-3.878,-3.8765,-3.8735,-3.8719,-3.8707,-3.8777,-3.8866,-3.8869,-3.8752,-3.8804,-3.8785,-3.8692,-3.8265,-3.7411,-3.6569,-3.6216,-3.5417,-3.4791,-3.4364,-3.4234,-3.4234,-3.4216,-3.4216,-3.4216,-3.4216,-3.4179,-3.3707,-3.3224,-3.3045,-3.2692,-3.2395,-3.289,-3.2671,-3.2389,-3.3106,-3.2674,-3.1825,-3.0974,-3.0503,-2.9207,-2.8693,-2.7918,-2.6923,-2.6328,-2.5747,-2.5256,-2.5094,-2.5076,-2.5101,-2.5107,-2.5162,-2.5185,-2.5203,-2.522,-2.5217,-2.5245,-2.5273,-2.5298,-2.5378,-2.5439,-2.5277,-2.5098,-2.5221,-2.5481,-2.5331,-2.5039,-2.4918,-2.489,-2.4913,-2.4946,-2.5016,-2.5126,-2.509,-2.4749,-2.4597,-2.4693,-2.4623,-2.4534,-2.4689,-2.4689,-2.4715,-2.475,-2.4631,-2.4549,-2.4653,-2.4561,-2.4486,-2.4374,-2.4266,-2.4086,-2.3937,-2.3927,-2.3886,-2.3824,-2.3803,-2.3792,-2.3792,-2.3741,-2.3566,-3.6229,-3.6119,-3.7052,-3.7753,-3.8432,-3.8505,-3.8505,-3.8524,-3.8358,-3.8624,-3.8737,-3.8792,-3.8792,-3.8822,-3.8807,-3.8765,-3.8719,-3.8704,-3.8704,-3.8707,-3.8707,-3.878,-3.8829,-3.8795,-3.8437,-3.8336,-3.8321,-3.8302,-3.7039,-3.6309,-3.5863,-3.5436,-3.4699,-3.4253,-3.4253,-3.4216,-3.4216,-3.4216,-3.4216,-3.4216,-3.4216,-3.4104,-3.3863,-3.3305,-3.3175,-3.3083,-3.3064,-3.3087,-3.3048,-3.3127,-3.2887,-3.2325,-3.1356,-3.0615,-3.0185,-2.9599,-2.9001,-2.8339,-2.7478,-2.6832,-2.6106,-2.5568,-2.52,-2.5379,-2.5507,-2.5184,-2.515,-2.5168,-2.5166,-2.5197,-2.5214,-2.5238,-2.5279,-2.5333,-2.5395,-2.5489,-2.5452,-2.5357,-2.5444,-2.5639,-2.5604,-2.5371,-2.5369,-2.5302,-2.523,-2.5457,-2.5531,-2.5583,-2.5489,-2.5311,-2.5267,-2.5283,-2.5123,-2.4936,-2.4952,-2.4941,-2.4846,-2.4823,-2.4761,-2.4681,-2.4634,-2.452,-2.4355,-2.4248,-2.4134,-2.4018,-2.3907,-2.3907,-2.3907,-2.3845,-2.3845,-2.3868,-2.3917,-2.3927,-2.3907,-3.555,-3.4559,-3.5987,-3.6725,-3.6945,-3.7529,-3.7456,-3.689,-3.6872,-3.7614,-3.8611,-3.8728,-3.8695,-3.8666,-3.8732,-3.8704,-3.8707,-3.8707,-3.8707,-3.8689,-3.8689,-3.8688,-3.8696,-3.8319,-3.7961,-3.7983,-3.8005,-3.7745,-3.7076,-3.6166,-3.5436,-3.5361,-3.4624,-3.4216,-3.4216,-3.4216,-3.4216,-3.4216,-3.4216,-3.4216,-3.4216,-3.4216,-3.403,-3.3881,-3.3863,-3.3826,-3.3658,-3.328,-3.3125,-3.301,-3.2496,-3.1807,-3.0979,-3.079,-3.04,-2.9834,-2.9135,-2.8615,-2.8121,-2.7489,-2.6896,-2.6828,-2.6679,-2.6415,-2.6077,-2.5457,-2.5132,-2.515,-2.5168,-2.518,-2.5231,-2.5249,-2.5301,-2.536,-2.5428,-2.5532,-2.56,-2.5629,-2.5669,-2.5677,-2.5701,-2.5703,-2.5701,-2.5675,-2.5644,-2.5608,-2.5588,-2.5593,-2.5528,-2.5383,-2.5328,-2.5318,-2.5298,-2.5203,-2.5191,-2.5082,-2.494,-2.4849,-2.4776,-2.4696,-2.4618,-2.4408,-2.4229,-2.4134,-2.4016,-2.3966,-2.3927,-2.3966,-2.3945,-2.3876,-2.3907,-2.3958,-2.3947,-2.3976,-2.4006,-3.461,-3.395,-3.5169,-3.6174,-3.6776,-3.6942,-3.6905,-3.6795,-3.645,-3.6791,-3.7665,-3.8003,-3.8187,-3.836,-3.8521,-3.8689,-3.8689,-3.8707,-3.8707,-3.8689,-3.8664,-3.8482,-3.8247,-3.7917,-3.717,-3.701,-3.6469,-3.6203,-3.663,-3.572,-3.4847,-3.4884,-3.4383,-3.4234,-3.4234,-3.4216,-3.4216,-3.4216,-3.4216,-3.4216,-3.4216,-3.4216,-3.4216,-3.4216,-3.4216,-3.4216,-3.3937,-3.3473,-3.3101,-3.2634,-3.2016,-3.1763,-3.1145,-3.0716,-3.0252,-2.9864,-2.9401,-2.8984,-2.8612,-2.8196,-2.7746,-2.768,-2.7543,-2.7015,-2.6308,-2.5729,-2.5412,-2.5399,-2.5212,-2.521,-2.5257,-2.5288,-2.5383,-2.546,-2.551,-2.5572,-2.5642,-2.5663,-2.5694,-2.5679,-2.5702,-2.5703,-2.5701,-2.5697,-2.5665,-2.5616,-2.56,-2.5569,-2.5502,-2.544,-2.5382,-2.5337,-2.5292,-2.5236,-2.5163,-2.5044,-2.4921,-2.4837,-2.4764,-2.4602,-2.4434,-2.4238,-2.4067,-2.4046,-2.4034,-2.3996,-2.3986,-2.3996,-2.3986,-2.3955,-2.3986,-2.4064,-2.4006,-2.3917,-2.3896,-3.3739,-3.3822,-3.4651,-3.5701,-3.685,-3.6413,-3.6376,-3.674,-3.6248,-3.5936,-3.6152,-3.6942,-3.7327,-3.7768,-3.8157,-3.8487,-3.8689,-3.8707,-3.8707,-3.8723,-3.875,-3.8574,-3.8214,-3.7704,-3.6962,-3.6192,-3.5558,-3.5522,-3.5733,-3.5182,-3.4922,-3.4401,-3.4271,-3.4327,-3.4253,-3.4216,-3.4216,-3.4216,-3.4216,-3.4216,-3.4216,-3.4216,-3.4216,-3.4216,-3.4216,-3.4216,-3.3956,-3.3417,-3.2953,-3.243,-3.1666,-3.1158,-3.0878,-3.0377,-3.0095,-2.9697,-2.946,-2.9164,-2.8917,-2.8644,-2.8248,-2.7981,-2.7797,-2.7437,-2.6826,-2.6336,-2.604,-2.5653,-2.5466,-2.5267,-2.5308,-2.5335,-2.5441,-2.5534,-2.5572,-2.5619,-2.5659,-2.5692,-2.5697,-2.57,-2.5703,-2.5703,-2.574,-2.5736,-2.5683,-2.5634,-2.5595,-2.5535,-2.5499,-2.5425,-2.5346,-2.5293,-2.5225,-2.518,-2.5133,-2.5012,-2.4907,-2.479,-2.4693,-2.4485,-2.4302,-2.4191,-2.4095,-2.4084,-2.4054,-2.4054,-2.4044,-2.4054,-2.4034,-2.3945,-2.3955,-2.3945,-2.38,-2.3707,-2.366,-3.3661,-3.3771,-3.4586,-3.483,-3.4669,-3.5023,-3.4986,-3.4541,-3.4449,-3.4284,-3.4816,-3.5917,-3.6831,-3.7511,-3.7603,-3.801,-3.8689,-3.8707,-3.8707,-3.8707,-3.875,-3.8651,-3.8276,-3.7587,-3.7086,-3.6472,-3.5927,-3.591,-3.5843,-3.5925,-3.5473,-3.4376,-3.5027,-3.4878,-3.4253,-3.4234,-3.4271,-3.4401,-3.4383,-3.4346,-3.429,-3.4271,-3.4216,-3.4216,-3.4216,-3.4216,-3.3863,-3.276,-3.2648,-3.2307,-3.1641,-3.0817,-3.0341,-3.0104,-2.9813,-2.967,-2.9413,-2.9397,-2.9206,-2.8982,-2.8661,-2.9107,-2.8992,-2.8791,-2.8157,-2.749,-2.7012,-2.6275,-2.596,-2.5485,-2.5433,-2.5399,-2.5456,-2.5556,-2.5614,-2.5655,-2.569,-2.5696,-2.57,-2.5702,-2.5703,-2.5761,-2.5857,-2.5833,-2.5787,-2.5722,-2.5641,-2.5596,-2.5452,-2.5389,-2.5332,-2.5252,-2.5181,-2.5184,-2.5193,-2.5006,-2.4874,-2.4775,-2.4604,-2.4382,-2.4247,-2.42,-2.4169,-2.4333,-2.4223,-2.415,-2.415,-2.418,-2.3896,-2.3824,-2.3834,-2.3792,-2.362,-2.3486,-2.3445]},{"header":{"parameterUnit":"m.s-1","parameterCategory":1,"la1":31.0,"la2":29.5877,"lo1":-88.7671,"lo2":-86.6584,"dy":0.0162,"dx":0.0185,"nx":115,"ny":88,"refTime":"2023-02-26T18:00:00:Z","depth":0,"parameterNumber":3,"parameterNumberName":"V-component_of_WINDS"},"data":[0.0,0.0,0.0,0.0,0.0,0.0,0.0,0.0,0.0,0.0,0.0,0.0,0.0,0.0,0.0,0.0,0.0,0.0,0.0,0.0,0.0,0.0,0.0,0.0,0.0,0.0,0.0,0.0,0.0,0.0,0.0,0.0,0.0,0.0,0.0,0.0,0.0,0.0,0.0,0.0,0.0,0.0,0.0,0.0,0.0,0.0,0.0,0.0,0.0,0.0,0.0,0.0,0.0,0.0,0.0,0.0,0.0,0.0,0.0,0.0,0.0,0.0,0.0,0.0,0.0,0.0,0.0,0.0,0.0,0.0,0.0,0.0,0.0,0.0,0.0,0.0,0.0,0.0,0.0,0.0,0.0,0.0,0.0,0.0,0.0,0.0,0.0,0.0,0.0,0.0,0.0,0.0,0.0,0.0,0.0,0.0,0.0,0.0,0.0,0.0,0.0,0.0,0.0,0.0,0.0,0.0,0.0,0.0,0.0,0.0,0.0,0.0,0.0,0.0,0.0,0.0,0.0,0.0,0.0,0.0,0.0,0.0,0.0,0.0,0.0,0.0,0.0,0.0,0.0,0.0,0.0,0.0,0.0,0.0,0.0,0.0,0.0,0.0,0.0,0.0,0.0,0.0,0.0,0.0,0.0,0.0,0.0,0.0,0.0,0.0,0.0,0.0,0.0,0.0,0.0,0.0,0.0,0.0,0.0,0.0,0.0,0.0,0.0,0.0,0.0,0.0,0.0,0.0,0.0,0.0,0.0,0.0,0.0,0.0,0.0,0.0,0.0,0.0,0.0,0.0,0.0,0.0,0.0,0.0,0.0,0.0,0.0,0.0,0.0,0.0,0.0,0.0,0.0,0.0,0.0,0.0,0.0,0.0,0.0,0.0,0.0,0.0,0.0,0.0,0.0,0.0,0.0,0.0,0.0,0.0,0.0,0.0,0.0,0.0,0.0,0.0,0.0,0.0,0.0,0.0,0.0,0.0,0.0,0.0,0.0,0.0,0.0,0.0,0.0,0.0,0.0,0.0,0.0,0.0,0.0,0.0,0.0,0.0,0.0,0.0,0.0,0.0,0.0,0.0,0.0,0.0,0.0,0.0,0.0,0.0,0.0,0.0,0.0,0.0,0.0,0.0,0.0,0.0,0.0,0.0,0.0,0.0,0.0,0.0,0.0,0.0,0.0,0.0,0.0,0.0,0.0,0.0,0.0,0.0,0.0,0.0,0.0,0.0,0.0,0.0,0.0,0.0,0.0,0.0,0.0,0.0,0.0,0.0,0.0,0.0,0.0,0.0,0.0,0.0,0.0,0.0,0.0,0.0,0.0,0.0,0.0,0.0,0.0,0.0,0.0,0.0,0.0,0.0,0.0,0.0,0.0,0.0,0.0,0.0,0.0,0.0,0.0,0.0,0.0,0.0,0.0,0.0,0.0,0.0,0.0,0.0,0.0,0.0,0.0,0.0,0.0,0.0,0.0,0.0,0.0,0.0,0.0,0.0,0.0,0.0,0.0,0.0,0.0,0.0,0.0,0.0,0.0,0.0,0.0,0.0,0.0,0.0,0.0,0.0,0.0,0.0,0.0,0.0,0.0,0.0,0.0,0.0,0.0,0.0,0.0,0.0,0.0,0.0,0.0,0.0,0.0,0.0,0.0,0.0,0.0,0.0,0.0,0.0,0.0,0.0,0.0,0.0,0.0,0.0,0.0,0.0,0.0,0.0,0.0,0.0,0.0,0.0,0.0,0.0,0.0,0.0,0.0,0.0,0.0,0.0,0.0,0.0,0.0,0.0,0.0,0.0,0.0,0.0,0.0,0.0,0.0,0.0,0.0,0.0,0.0,0.0,0.0,0.0,0.0,0.0,0.0,0.0,0.0,0.0,0.0,0.0,0.0,0.0,0.0,0.0,0.0,0.0,0.0,0.0,0.0,0.0,0.0,0.0,0.0,0.0,0.0,0.0,0.0,0.0,0.0,0.0,0.0,0.0,0.0,0.0,0.0,0.0,0.0,0.0,0.0,0.0,0.0,0.0,0.0,0.0,0.0,0.0,0.0,0.0,0.0,0.0,0.0,0.0,0.0,0.0,0.0,0.0,0.0,0.0,0.0,0.0,0.0,0.0,0.0,0.0,0.0,0.0,0.0,0.0,0.0,0.0,0.0,0.0,0.0,0.0,0.0,0.0,0.0,0.0,0.0,0.0,0.0,0.0,0.0,0.0,0.0,0.0,0.0,0.0,0.0,0.0,0.0,0.0,0.0,0.0,0.0,0.0,0.0,0.0,0.0,0.0,0.0,0.0,0.0,0.0,0.0,0.0,0.0,0.0,0.0,0.0,0.0,0.0,0.0,0.0,0.0,0.0,0.0,0.0,0.0,0.0,0.0,0.0,0.0,0.0,0.0,0.0,0.0,0.0,0.0,0.0,0.0,0.0,0.0,0.0,0.0,0.0,0.0,0.0,0.0,0.0,0.0,0.0,0.0,0.0,0.0,0.0,0.0,0.0,0.0,0.0,0.0,0.0,0.0,0.0,0.0,0.0,0.0,0.0,0.0,0.0,0.0,0.0,0.0,0.0,0.0,0.0,0.0,0.0,0.0,0.0,0.0,0.0,0.0,0.0,0.0,0.0,0.0,0.0,0.0,0.0,0.0,0.0,0.0,0.0,0.0,0.0,0.0,0.0,0.0,0.0,0.0,0.0,0.0,0.0,0.0,0.0,0.0,0.0,0.0,0.0,0.0,0.0,0.0,0.0,0.0,0.0,0.0,0.0,0.0,0.0,0.0,0.0,0.0,0.0,0.0,0.0,0.0,0.0,0.0,0.0,0.0,0.0,0.0,0.0,0.0,0.0,0.0,0.0,0.0,0.0,0.0,0.0,0.0,0.0,0.0,0.0,0.0,0.0,0.0,0.0,0.0,0.0,0.0,0.0,0.0,0.0,0.0,0.0,0.0,0.0,0.0,0.0,0.0,0.0,0.0,0.0,0.0,0.0,0.0,0.0,0.0,0.0,0.0,0.0,0.0,0.0,0.0,0.0,0.0,0.0,0.0,0.0,0.0,0.0,0.0,0.0,0.0,0.0,0.0,0.0,0.0,0.0,0.0,0.0,0.0,0.0,0.0,0.0,0.0,0.0,0.0,0.0,0.0,0.0,0.0,0.0,0.0,0.0,0.0,0.0,0.0,0.0,0.0,0.0,0.0,0.0,0.0,0.0,0.0,0.0,0.0,0.0,0.0,0.0,0.0,0.0,0.0,0.0,0.0,0.0,0.0,0.0,0.0,0.0,0.0,0.0,0.0,0.0,0.0,0.0,0.0,0.0,0.0,0.0,0.0,0.0,0.0,0.0,0.0,0.0,0.0,0.0,0.0,0.0,0.0,0.0,0.0,0.0,0.0,0.0,0.0,0.0,0.0,0.0,0.0,0.0,0.0,0.0,0.0,0.0,0.0,0.0,0.0,0.0,0.0,0.0,0.0,0.0,0.0,0.0,0.0,0.0,0.0,0.0,0.0,0.0,0.0,0.0,0.0,0.0,0.0,0.0,0.0,0.0,0.0,0.0,0.0,0.0,0.0,0.0,0.0,0.0,0.0,0.0,0.0,0.0,0.0,0.0,0.0,0.0,0.0,0.0,0.0,0.0,0.0,0.0,0.0,0.0,0.0,0.0,0.0,0.0,0.0,0.0,0.0,0.0,0.0,0.0,0.0,0.0,0.0,0.0,0.0,0.0,0.0,0.0,0.0,0.0,0.0,0.0,0.0,0.0,0.0,0.0,0.0,0.0,0.0,0.0,0.0,0.0,0.0,0.0,0.0,0.0,0.0,0.0,0.0,0.0,0.0,0.0,0.0,0.0,0.0,0.0,0.0,0.0,0.0,0.0,0.0,0.0,0.0,0.0,0.0,0.0,0.0,0.0,0.0,0.0,0.0,0.0,0.0,0.0,0.0,0.0,0.0,0.0,0.0,0.0,0.0,0.0,0.0,0.0,0.0,0.0,0.0,0.0,0.0,0.0,0.0,0.0,0.0,0.0,0.0,0.0,0.0,0.0,0.0,0.0,0.0,0.0,0.0,0.0,0.0,0.0,0.0,0.0,0.0,0.0,0.0,0.0,0.0,0.0,0.0,0.0,0.0,0.0,0.0,0.0,0.0,0.0,0.0,0.0,0.0,0.0,0.0,0.0,0.0,0.0,0.0,0.0,0.0,0.0,0.0,0.0,0.0,0.0,0.0,0.0,0.0,0.0,0.0,0.0,0.0,0.0,0.0,0.0,0.0,0.0,0.0,0.0,-0.1572,0.0,0.0,0.0,0.0,0.0,0.0,0.0,0.0,0.0,0.0,0.0,0.0,0.0,0.0,0.0,0.0,0.0,0.0,0.0,0.0,0.0,0.0,0.0,0.0,0.0,0.0,0.0,0.0,0.0,0.0,0.0,0.0,0.0,0.0,0.0,0.0,0.0,0.0,0.0,0.0,0.0,0.0,0.0,0.0,0.0,0.0,0.0,0.0,0.0,0.0,0.0,0.0,0.0,0.0,0.0,0.0,0.0,0.0,0.0,0.0,0.0,0.0,0.0,0.0,0.0,0.0,0.0,0.0,0.0,0.0,0.0,0.0,0.0,0.0,0.0,0.0,0.0,0.0,0.0,0.0,0.0,0.0,0.0,0.0,0.0,0.0,0.0,0.0,0.0,0.0,0.0,0.0,0.0,0.0,0.0,0.0,0.0,0.0,0.0,0.0,0.0,0.0,0.0,0.0,0.0,0.0,0.0,0.0,0.0,0.0,-0.0239,-0.0773,-0.0773,-0.1304,-0.2367,0.0,0.0,0.0,0.0,0.0,0.0,0.0,0.0,0.0,0.0,0.0,0.0,0.0,0.0,0.0,0.0,0.0,0.0,0.0,0.0,0.0,0.0,0.0,0.0,0.0,0.0,0.0,0.0,0.0,0.0,0.0,0.0,0.0,0.0,0.0,0.0,0.0,0.0,0.0,0.0,0.0,0.0,0.0,0.0,0.0,0.0,0.0,0.0,0.0,0.0,0.0,0.0,0.0,0.0,0.0,0.0,0.0,0.0,0.0,0.0,0.0,0.0,0.0,0.0,0.0,0.0,0.0,0.0,0.0,0.0,0.0,0.0,0.0,0.0,0.0,0.0,0.0,0.0,0.0,0.0,0.0,0.0,0.0,0.0,0.0,0.0,0.0,0.0,0.0,0.0,0.0,0.0,0.0,0.0,0.0,0.0,0.0,0.0,0.0,0.0,0.0,0.0,0.0,0.0,0.0,0.0,0.0,0.0,0.0,0.0,0.0,0.0,-0.0823,-0.1549,-0.3057,0.0,0.0,0.0,0.0,0.0,0.0,0.0,0.0,0.0,0.0,0.0,0.0,0.0,0.0,0.0,0.0,0.0,0.0,0.0,0.0,0.0,0.0,0.0,0.0,0.0,0.0,0.0,0.0,0.0,0.0,0.0,0.0,0.0,0.0,0.0,0.0,0.0,0.0,0.0,0.0,0.0,0.0,0.0,0.0,0.0,0.0,0.0,0.0,0.0,0.0,0.0,0.0,0.0,0.0,0.0,0.0,0.0,0.0,0.0,0.0,0.0,0.0,0.0,0.0,0.0,0.0,0.0,0.0,0.0,0.0,0.0,0.0,0.0,0.0,0.0,0.0,0.0,0.0,0.0,0.0,0.0,0.0,0.0,0.0,0.0,0.0,0.0,0.0,0.0,0.0,0.0,0.0,0.0,0.0,0.0,0.0,0.0,0.0,0.0,0.0,0.0,0.0,0.0,0.0,0.0,0.0,0.0,0.0,0.0,0.0,-0.024,-0.0771,-0.0861,0.0,-0.3268,0.0,0.0,0.0,0.0,0.0,0.0,0.0,0.0,0.0,0.0,0.0,0.0,0.0,0.0,0.0,0.0,0.0,0.0,0.0,0.0,0.0,0.0,0.0,0.0,0.0,0.0,0.0,0.0,0.0,0.0,0.0,0.0,0.0,0.0,0.0,0.0,0.0,0.0,0.0,0.0,0.0,0.0,0.0,0.0,0.0,0.0,0.0,0.0,0.0,0.0,0.0,0.0,0.0,0.0,0.0,0.0,0.0,0.0,0.0,0.0,0.0,0.0,0.0,0.0,0.0,0.0,0.0,0.0,0.0,0.0,0.0,0.0,0.0,0.0,0.0,0.0,0.0,0.0,0.0,0.0,0.0,0.0,0.0,0.0,0.0,0.0,0.0,0.0,0.0,0.0,0.0,0.0,0.0,0.0,0.0,0.0,0.0,0.0,0.0,0.0,0.0,0.0,0.0,0.0,0.0,0.0,0.0,0.0,0.0,0.0,-0.0282,-0.0853,-0.2241,-0.341,0.0,0.0,0.0,0.0,0.0,0.0,0.0,0.0,0.0,0.0,0.0,0.0,0.0,0.0,0.0,0.0,0.0,0.0,0.0,0.0,0.0,0.0,0.0,0.0,0.0,0.0,0.0,0.0,0.0,0.0,0.0,0.0,0.0,0.0,0.0,0.0,0.0,0.0,0.0,0.0,0.0,0.0,0.0,0.0,0.0,0.0,0.0,0.0,0.0,0.0,0.0,0.0,0.0,0.0,0.0,0.0,0.0,0.0,0.0,0.0,0.0,0.0,0.0,0.0,0.0,0.0,0.0,0.0,0.0,0.0,0.0,0.0,0.0,0.0,0.0,0.0,0.0,0.0,0.0,0.0,0.0,0.0,0.0,0.0,0.0,0.0,0.0,0.0,0.0,0.0,0.0,0.0,0.0,0.0,0.0,0.0,0.0,0.0,0.0,0.0,0.0,0.0,0.0,0.0,0.0,0.0,0.0,0.0,0.0,0.0,0.0,-0.0284,-0.095,-0.2668,-0.3987,-0.4786,0.0,0.0,0.0,0.0,0.0,0.0,0.0,0.0,0.0,0.0,0.0,0.0,0.0,0.0,0.0,0.0,0.0,0.0,0.0,0.0,0.0,0.0,0.0,0.0,0.0,0.0,0.0,0.0,0.0,0.0,0.0,0.0,0.0,0.0,0.0,0.0,0.0,0.0,0.0,0.0,0.0,0.0,0.0,0.0,0.0,0.0,0.0,0.0,0.0,0.0,0.0,0.0,0.0,0.0,0.0,0.0,0.0,0.0,0.0,0.0,0.0,0.0,0.0,0.0,0.0,0.0,0.0,0.0,0.0,0.0,0.0,0.0,0.0,0.0,0.0,0.0,0.0,0.0,0.0,0.0,0.0,0.0,0.0,0.0,0.0,0.0,0.0,0.0,0.0,0.0,0.0,0.0,0.0,0.0,0.0,0.0,0.0,0.0,0.0,0.0,0.0,0.0,0.0,0.0,0.0,0.0,0.0,0.0,0.0,0.0,-0.0301,-0.0899,-0.1464,-0.2498,0.0,0.0,0.0,0.0,0.0,0.0,0.0,0.0,0.0,0.0,0.0,0.0,0.0,0.0,0.0,0.0,0.0,0.0,0.0,0.0,0.0,0.0,0.0,0.0,0.0,0.0,0.0,0.0,0.0,0.0,0.0,0.0,0.0,0.0,0.0,0.0,0.0,0.0,0.0,0.0,0.0,0.0,0.0,0.0,0.0,0.0,0.0,0.0,0.0,0.0,0.0,0.0,0.0,0.0,0.0,0.0,0.0,0.0,0.0,0.0,0.0,0.0,0.0,0.0,0.0,0.0,0.0,0.0,0.0,0.0,0.0,0.0,0.0,0.0,0.0,0.0,0.0,0.0,0.0,0.0,0.0,0.0,0.0,0.0,0.0,0.0,0.0,0.0,0.0,0.0,0.0,0.0,0.0,0.0,0.0,0.0,0.0,0.0,0.0,0.0,0.0,0.0,0.0,0.0,0.0,0.0,0.0,0.0,0.0,0.0,-0.0383,-0.0698,-0.0925,-0.1924,-0.2983,0.0,0.0,0.0,0.0,0.0,0.0,0.0,0.0,0.0,0.0,0.0,0.0,0.0,0.0,0.0,0.0,0.0,0.0,0.0,0.0,0.0,0.0,0.0,0.0,0.0,0.0,0.0,0.0,0.0,0.0,0.0,0.0,0.0,0.0,0.0,0.0,0.0,0.0,0.0,0.0,0.0,0.0,0.0,0.0,0.0,0.0,0.0,0.0,0.0,0.0,0.0,0.0,0.0,0.0,0.0,0.0,0.0,0.0,0.0,0.0,0.0,0.0,0.0,0.0,0.0,0.0,0.0,0.0,0.0,0.0,0.0,0.0,0.0,0.0,0.0,0.0,0.0,0.0,0.0,0.0,0.0,0.0,0.0,0.0,0.0,0.0,0.0,0.0,0.0,0.0,0.0,0.0,0.0,0.0,0.0,0.0,0.0,0.0,0.0,0.0,0.0,0.0,0.0,0.0,0.0,0.0,0.0,0.0,0.0,0.0,0.0,-0.0869,-0.0858,-0.1958,-0.2935,0.0,0.0,0.0,0.0,0.0,0.0,0.0,0.0,0.0,0.0,0.0,0.0,0.0,0.0,0.0,0.0,0.0,0.0,0.0,0.0,0.0,0.0,0.0,0.0,0.0,0.0,0.0,0.0,0.0,0.0,0.0,0.0,0.0,0.0,0.0,0.0,0.0,0.0,0.0,0.0,0.0,0.0,0.0,0.0,0.0,0.0,0.0,0.0,0.0,0.0,0.0,0.0,0.0,0.0,0.0,0.0,0.0,0.0,0.0,0.0,0.0,0.0,0.0,0.0,0.0,0.0,0.0,0.0,0.0,0.0,0.0,0.0,0.0,0.0,0.0,0.0,0.0,0.0,0.0,0.0,0.0,0.0,0.0,0.0,0.0,0.0,0.0,0.0,0.0,0.0,0.0,0.0,0.0,0.0,0.0,0.0,0.0,0.0,0.0,0.0,0.0,0.0,0.0,0.0,0.0,0.0,0.0,0.0,0.0,0.0,-0.0592,-0.0808,-0.0709,-0.1335,-0.2246,0.0,0.0,0.0,0.0,0.0,0.0,0.0,0.0,0.0,0.0,0.0,0.0,0.0,0.0,0.0,0.0,0.0,0.0,0.0,0.0,0.0,0.0,0.0,0.0,0.0,0.0,0.0,0.0,0.0,0.0,0.0,0.0,0.0,0.0,0.0,0.0,0.0,0.0,0.0,0.0,0.0,0.0,0.0,0.0,0.0,0.0,0.0,0.0,0.0,0.0,0.0,0.0,0.0,0.0,0.0,0.0,0.0,0.0,0.0,0.0,0.0,0.0,0.0,0.0,0.0,0.0,0.0,0.0,0.0,0.0,0.0,0.0,0.0,0.0,0.0,0.0,0.0,0.0,0.0,0.0,0.0,0.0,0.0,0.0,0.0,0.0,0.0,0.0,0.0,0.0,0.0,0.0,0.0,0.0,0.0,0.0,0.0,0.0,0.0,0.0,0.0,0.0,0.0,0.0,0.0,0.0,0.0,0.0,0.0,0.0,-0.0539,-0.0821,-0.0873,-0.1232,-0.2194,0.0,0.0,0.0,0.0,0.0,0.0,0.0,0.0,0.0,0.0,0.0,0.0,0.0,0.0,0.0,0.0,0.0,0.0,0.0,0.0,0.0,0.0,0.0,0.0,0.0,0.0,0.0,0.0,0.0,0.0,0.0,0.0,0.0,0.0,0.0,0.0,0.0,0.0,0.0,0.0,0.0,0.0,0.0,0.0,0.0,0.0,0.0,0.0,0.0,0.0,0.0,0.0,0.0,0.0,0.0,0.0,0.0,0.0,0.0,0.0,0.0,0.0,0.0,0.0,0.0,0.0,0.0,0.0,0.0,0.0,0.0,0.0,0.0,0.0,0.0,0.0,0.0,0.0,0.0,0.0,0.0,0.0,0.0,0.0,0.0,0.0,0.0,0.0,0.0,0.0,0.0,0.0,0.0,0.0,0.0,0.0,0.0,0.0,0.0,0.0,0.0,0.0,0.0,0.0,0.0,0.0,0.0,0.0,0.0,0.0,-0.0444,-0.0724,-0.0831,-0.1433,-0.247,-0.397,0.0,0.0,0.0,0.0,0.0,0.0,0.0,0.0,0.0,0.0,0.0,0.0,0.0,0.0,0.0,0.0,0.0,0.0,0.0,0.0,0.0,0.0,0.0,0.0,0.0,0.0,0.0,0.0,0.0,0.0,0.0,0.0,0.0,0.0,0.0,0.0,0.0,0.0,0.0,0.0,0.0,0.0,0.0,0.0,0.0,0.0,0.0,0.0,0.0,0.0,0.0,0.0,0.0,0.0,0.0,0.0,0.0,0.0,0.0,0.0,0.0,0.0,0.0,0.0,0.0,0.0,0.0,0.0,0.0,0.0,0.0,0.0,0.0,0.0,0.0,0.0,0.0,0.0,0.0,0.0,0.0,0.0,0.0,0.0,0.0,0.0,0.0,0.0,0.0,0.0,0.0,0.0,0.0,0.0,0.0,0.0,0.0,0.0,0.0,0.0,0.0,0.0,0.0,0.0,0.0,0.0,0.0,0.0,0.0,-0.0269,-0.0494,-0.0732,-0.1701,-0.2949,0.0,0.0,0.0,0.0,0.0,0.0,0.0,0.0,0.0,0.0,0.0,0.0,0.0,0.0,0.0,0.0,0.0,0.0,0.0,0.0,0.0,0.0,0.0,0.0,0.0,0.0,0.0,0.0,0.0,0.0,0.0,0.0,0.0,0.0,0.0,0.0,0.0,0.0,0.0,0.0,0.0,0.0,0.0,0.0,0.0,0.0,0.0,0.0,0.0,0.0,0.0,0.0,0.0,0.0,0.0,0.0,0.0,0.0,0.0,0.0,0.0,0.0,0.0,0.0,0.0,0.0,0.0,0.0,0.0,0.0,0.0,0.0,0.0,0.0,0.0,0.0,0.0,0.0,0.0,0.0,0.0,0.0,0.0,0.0,0.0,0.0,0.0,0.0,0.0,0.0,0.0,0.0,0.0,0.0,0.0,0.0,0.0,0.0,0.0,0.0,0.0,0.0,0.0,0.0,0.0,0.0,0.0,0.0,0.0,0.0,-0.0335,-0.0572,-0.0825,-0.1161,-0.2385,0.0,0.0,0.0,0.0,0.0,0.0,0.0,0.0,0.0,0.0,0.0,0.0,0.0,0.0,0.0,0.0,0.0,0.0,0.0,0.0,0.0,0.0,0.0,0.0,0.0,0.0,0.0,0.0,0.0,0.0,0.0,0.0,0.0,0.0,0.0,0.0,0.0,0.0,0.0,0.0,0.0,0.0,0.0,0.0,0.0,0.0,0.0,0.0,0.0,0.0,0.0,0.0,0.0,0.0,0.0,0.0,0.0,0.0,0.0,0.0,0.0,0.0,0.0,0.0,0.0,0.0,0.0,0.0,0.0,0.0,0.0,0.0,0.0,0.0,0.0,0.0,0.0,0.0,0.0,0.0,0.0,0.0,0.0,0.0,0.0,0.0,0.0,0.0,0.0,0.0,0.0,0.0,0.0,0.0,0.0,0.0,0.0,0.0,0.0,0.0,0.0,0.0,0.0,0.0,0.0,0.0,0.0,0.0,0.0,0.0,-0.0283,-0.058,-0.0859,-0.1386,-0.2591,0.0,0.0,0.0,0.0,0.0,0.0,0.0,0.0,0.0,0.0,0.0,0.0,0.0,0.0,0.0,0.0,0.0,0.0,0.0,0.0,0.0,0.0,0.0,0.0,0.0,0.0,0.0,0.0,0.0,0.0,0.0,0.0,0.0,0.0,0.0,0.0,0.0,0.0,0.0,0.0,0.0,0.0,0.0,0.0,0.0,0.0,0.0,0.0,0.0,0.0,0.0,0.0,0.0,0.0,0.0,0.0,0.0,0.0,0.0,0.0,0.0,0.0,0.0,0.0,0.0,0.0,0.0,0.0,0.0,0.0,0.0,0.0,0.0,0.0,0.0,0.0,0.0,0.0,0.0,0.0,0.0,0.0,0.0,0.0,0.0,0.0,0.0,0.0,0.0,0.0,0.0,0.0,0.0,0.0,0.0,0.0,0.0,0.0,0.0,0.0,0.0,0.0,0.0,0.0,0.0,0.0,0.0,0.0,0.0,0.0,-0.0284,-0.0578,-0.0934,-0.1921,-0.3022,0.0,0.0,0.0,0.0,0.0,0.0,0.0,0.0,0.0,0.0,0.0,0.0,0.0,0.0,0.0,0.0,0.0,0.0,0.0,0.0,0.0,0.0,0.0,0.0,0.0,0.0,0.0,0.0,0.0,0.0,0.0,0.0,0.0,0.0,0.0,0.0,0.0,0.0,0.0,0.0,0.0,0.0,0.0,0.0,0.0,0.0,0.0,0.0,0.0,0.0,0.0,0.0,0.0,0.0,0.0,0.0,0.0,0.0,0.0,0.0,0.0,0.0,0.0,0.0,0.0,0.0,0.0,0.0,0.0,0.0,0.0,0.0,0.0,0.0,0.0,0.0,0.0,0.0,0.0,0.0,0.0,0.0,0.0,0.0,0.0,0.0,0.0,0.0,0.0,0.0,0.0,0.0,0.0,0.0,0.0,0.0,0.0,0.0,0.0,0.0,0.0,0.0,0.0,0.0,0.0,0.0,0.0,0.0,0.0,0.0,-0.0503,-0.0853,-0.0889,-0.122,-0.2143,0.0,0.0,0.0,0.0,0.0,0.0,0.0,0.0,0.0,0.0,0.0,0.0,0.0,0.0,0.0,0.0,0.0,0.0,0.0,0.0,0.0,0.0,0.0,0.0,0.0,0.0,0.0,0.0,0.0,0.0,0.0,0.0,0.0,0.0,0.0,0.0,0.0,0.0,0.0,0.0,0.0,0.0,0.0,0.0,0.0,0.0,0.0,0.0,-1.4472,0.0,0.0,0.0,0.0,0.0,0.0,0.0,0.0,0.0,0.0,0.0,0.0,0.0,0.0,0.0,0.0,0.0,0.0,0.0,0.0,0.0,0.0,0.0,0.0,0.0,0.0,0.0,0.0,0.0,0.0,0.0,0.0,0.0,0.0,0.0,0.0,0.0,0.0,0.0,0.0,0.0,0.0,0.0,0.0,0.0,0.0,0.0,0.0,0.0,0.0,0.0,0.0,0.0,0.0,0.0,0.0,0.0,0.0,0.0,-0.0051,-0.021,-0.0654,-0.0939,-0.1092,-0.1442,-0.2218,0.0,0.0,0.0,0.0,0.0,0.0,0.0,0.0,0.0,0.0,0.0,0.0,0.0,0.0,0.0,0.0,0.0,0.0,0.0,0.0,0.0,0.0,0.0,0.0,0.0,0.0,0.0,0.0,0.0,0.0,0.0,0.0,0.0,0.0,0.0,0.0,0.0,0.0,0.0,0.0,0.0,0.0,0.0,0.0,0.0,0.0,0.0,0.0,0.0,0.0,0.0,0.0,0.0,0.0,0.0,0.0,0.0,0.0,0.0,0.0,0.0,0.0,0.0,0.0,0.0,0.0,0.0,0.0,0.0,0.0,0.0,0.0,0.0,0.0,0.0,0.0,0.0,0.0,0.0,0.0,0.0,0.0,0.0,0.0,0.0,0.0,0.0,0.0,0.0,0.0,0.0,0.0,0.0,0.0,0.0,0.0,0.0,0.0,0.0,0.0,0.0,0.0,0.0,0.0,0.0,0.0,0.0,-0.0093,-0.01,-0.0422,-0.0743,-0.1015,-0.1295,-0.1925,-0.254,-0.316,0.0,0.0,0.0,0.0,0.0,0.0,0.0,0.0,0.0,0.0,0.0,0.0,0.0,0.0,0.0,0.0,0.0,0.0,0.0,0.0,0.0,0.0,0.0,0.0,0.0,0.0,0.0,0.0,0.0,0.0,0.0,0.0,0.0,0.0,0.0,0.0,0.0,0.0,-1.2924,-1.2554,0.0,0.0,0.0,0.0,0.0,0.0,0.0,0.0,-1.431,0.0,0.0,0.0,0.0,0.0,0.0,0.0,0.0,0.0,0.0,0.0,0.0,0.0,0.0,0.0,0.0,0.0,0.0,0.0,0.0,0.0,0.0,0.0,0.0,0.0,0.0,0.0,0.0,0.0,0.0,0.0,0.0,0.0,0.0,0.0,0.0,0.0,0.0,0.0,0.0,0.0,0.0,0.0,0.0,0.0,0.0,0.0,0.0,0.0,0.0,0.0,0.0,0.0,0.0,0.0,0.0,-0.0318,-0.0093,-0.0144,-0.0407,-0.0673,-0.0933,-0.1228,-0.1865,-0.2307,-0.2632,0.0,0.0,0.0,0.0,0.0,0.0,0.0,0.0,0.0,0.0,0.0,0.0,0.0,0.0,0.0,0.0,0.0,0.0,0.0,0.0,0.0,0.0,0.0,0.0,0.0,0.0,0.0,0.0,0.0,0.0,0.0,0.0,0.0,0.0,0.0,0.0,0.0,0.0,0.0,-1.3196,-1.3083,0.0,0.0,0.0,0.0,0.0,0.0,0.0,0.0,-1.4715,0.0,0.0,0.0,0.0,0.0,0.0,0.0,0.0,0.0,0.0,0.0,0.0,0.0,0.0,0.0,0.0,0.0,0.0,0.0,0.0,0.0,0.0,0.0,0.0,0.0,0.0,0.0,0.0,0.0,0.0,0.0,0.0,0.0,0.0,0.0,0.0,0.0,0.0,0.0,0.0,0.0,0.0,0.0,0.0,0.0,0.0,0.0,0.0,0.0,0.0,0.0,0.0,0.0,0.0,0.0,-0.0439,-0.0364,-0.0429,-0.0604,-0.085,-0.1094,-0.1393,-0.2069,-0.243,0.0,0.0,0.0,0.0,0.0,0.0,0.0,0.0,0.0,0.0,0.0,0.0,0.0,0.0,0.0,0.0,0.0,0.0,0.0,0.0,0.0,0.0,0.0,0.0,0.0,0.0,0.0,0.0,0.0,0.0,0.0,0.0,0.0,0.0,0.0,0.0,0.0,0.0,0.0,0.0,-1.3651,-1.3616,-1.3593,0.0,0.0,0.0,0.0,0.0,0.0,-1.4216,-1.418,0.0,0.0,0.0,0.0,0.0,0.0,0.0,0.0,0.0,0.0,0.0,0.0,0.0,0.0,0.0,0.0,0.0,0.0,0.0,0.0,0.0,0.0,0.0,0.0,0.0,0.0,0.0,0.0,0.0,0.0,0.0,0.0,0.0,0.0,0.0,0.0,0.0,0.0,0.0,0.0,0.0,0.0,0.0,0.0,0.0,0.0,0.0,0.0,0.0,0.0,0.0,0.0,0.0,0.0,0.0,-0.0623,-0.0664,-0.0753,-0.0845,-0.1018,-0.1252,-0.1617,-0.2263,-0.2543,0.0,0.0,0.0,0.0,0.0,0.0,0.0,0.0,0.0,0.0,0.0,0.0,0.0,0.0,0.0,0.0,0.0,0.0,0.0,0.0,0.0,0.0,0.0,0.0,0.0,0.0,0.0,0.0,0.0,0.0,0.0,0.0,0.0,0.0,0.0,0.0,0.0,0.0,0.0,0.0,0.0,-1.4139,-1.4369,-1.4256,0.0,0.0,0.0,0.0,-1.3842,-1.4155,0.0,0.0,0.0,0.0,0.0,0.0,0.0,0.0,0.0,0.0,0.0,0.0,0.0,0.0,0.0,0.0,0.0,0.0,0.0,0.0,0.0,0.0,0.0,0.0,0.0,0.0,0.0,0.0,0.0,0.0,0.0,0.0,0.0,0.0,0.0,0.0,0.0,0.0,0.0,0.0,0.0,0.0,0.0,0.0,0.0,0.0,0.0,0.0,0.0,0.0,0.0,0.0,0.0,0.0,0.0,0.0,-0.0871,-0.0763,-0.0813,-0.1053,-0.1099,-0.1252,-0.1568,-0.2232,-0.2544,0.0,0.0,0.0,0.0,0.0,0.0,0.0,0.0,0.0,0.0,0.0,0.0,0.0,0.0,0.0,0.0,0.0,0.0,0.0,0.0,0.0,0.0,0.0,0.0,0.0,0.0,0.0,0.0,0.0,0.0,0.0,0.0,0.0,0.0,0.0,0.0,0.0,0.0,0.0,0.0,0.0,-1.4849,-1.3932,-1.4342,-1.4518,0.0,0.0,-1.5125,-1.5676,-1.6213,0.0,0.0,0.0,0.0,0.0,0.0,0.0,0.0,0.0,0.0,0.0,0.0,0.0,0.0,0.0,0.0,0.0,0.0,0.0,0.0,0.0,0.0,0.0,0.0,0.0,0.0,0.0,0.0,0.0,0.0,0.0,0.0,0.0,0.0,0.0,0.0,0.0,0.0,0.0,0.0,0.0,0.0,0.0,0.0,0.0,0.0,0.0,0.0,0.0,0.0,0.0,0.0,0.0,0.0,0.0,-0.1699,-0.0942,-0.0985,-0.1038,-0.1056,-0.1172,-0.1394,-0.1835,-0.2216,-0.2525,0.0,0.0,0.0,0.0,0.0,0.0,0.0,0.0,0.0,0.0,0.0,0.0,0.0,0.0,0.0,0.0,0.0,0.0,0.0,0.0,0.0,0.0,0.0,0.0,0.0,0.0,0.0,0.0,0.0,0.0,0.0,0.0,0.0,0.0,0.0,0.0,0.0,0.0,0.0,0.0,0.0,0.0,-1.4613,-1.4804,0.0,0.0,0.0,-1.54,-1.5676,0.0,0.0,0.0,0.0,0.0,0.0,0.0,0.0,0.0,0.0,0.0,0.0,0.0,0.0,0.0,0.0,0.0,0.0,0.0,0.0,0.0,0.0,0.0,0.0,0.0,0.0,0.0,0.0,0.0,0.0,0.0,0.0,0.0,0.0,0.0,0.0,0.0,0.0,0.0,0.0,0.0,0.0,0.0,0.0,0.0,0.0,0.0,0.0,0.0,0.0,0.0,0.0,0.0,0.0,0.0,0.0,0.0,-0.1002,-0.1199,-0.1255,-0.1101,-0.137,-0.1616,-0.1995,-0.2294,0.0,0.0,0.0,0.0,0.0,0.0,0.0,0.0,0.0,0.0,0.0,0.0,0.0,0.0,0.0,0.0,0.0,0.0,0.0,0.0,0.0,0.0,0.0,0.0,0.0,0.0,0.0,-0.8732,0.0,0.0,0.0,0.0,0.0,0.0,0.0,0.0,0.0,0.0,0.0,0.0,0.0,0.0,-1.4487,-1.5064,-1.5239,-1.5535,0.0,0.0,-1.5506,-1.5513,-1.5474,-1.5094,0.0,0.0,0.0,0.0,0.0,0.0,0.0,0.0,0.0,0.0,0.0,0.0,0.0,0.0,0.0,0.0,0.0,0.0,0.0,0.0,0.0,0.0,0.0,0.0,0.0,0.0,0.0,0.0,0.0,0.0,0.0,0.0,0.0,0.0,0.0,0.0,0.0,0.0,0.0,0.0,0.0,0.0,0.0,0.0,0.0,0.0,0.0,0.0,0.0,0.0,0.0,0.0,0.0,0.0,-0.1855,-0.121,-0.1258,-0.1319,-0.131,-0.1728,-0.1955,-0.1994,-0.257,-0.288,0.0,0.0,0.0,0.0,0.0,0.0,0.0,0.0,0.0,0.0,0.0,0.0,0.0,0.0,0.0,0.0,0.0,0.0,0.0,0.0,0.0,0.0,0.0,0.0,0.0,0.0,0.0,0.0,0.0,0.0,0.0,0.0,0.0,0.0,0.0,0.0,0.0,0.0,0.0,0.0,0.0,-1.4819,-1.474,-1.541,-1.6061,0.0,-1.6118,-1.5884,-1.5877,-1.6345,-1.6104,-1.4313,0.0,0.0,0.0,0.0,0.0,0.0,0.0,0.0,0.0,0.0,0.0,0.0,0.0,0.0,0.0,0.0,0.0,0.0,0.0,0.0,0.0,0.0,0.0,0.0,0.0,0.0,0.0,0.0,0.0,0.0,0.0,0.0,0.0,0.0,0.0,0.0,0.0,0.0,0.0,0.0,0.0,0.0,0.0,0.0,0.0,0.0,0.0,0.0,0.0,0.0,0.0,0.0,0.0,-0.1882,-0.1203,-0.1219,-0.1379,-0.1651,-0.1853,-0.217,-0.2599,-0.2825,-0.2956,0.0,0.0,0.0,0.0,0.0,0.0,0.0,0.0,0.0,0.0,0.0,0.0,0.0,0.0,0.0,0.0,0.0,0.0,0.0,0.0,0.0,0.0,0.0,0.0,0.0,0.0,0.0,0.0,-0.9384,-1.0091,-1.1014,0.0,0.0,0.0,0.0,0.0,0.0,0.0,0.0,0.0,0.0,-1.4266,-1.4396,-1.4956,0.0,0.0,-1.5515,-1.5352,-1.5542,-1.5321,-1.4757,-1.3836,-1.326,0.0,0.0,0.0,0.0,0.0,0.0,0.0,0.0,0.0,0.0,0.0,0.0,0.0,0.0,0.0,0.0,0.0,0.0,0.0,0.0,0.0,0.0,0.0,0.0,0.0,0.0,0.0,0.0,0.0,0.0,0.0,0.0,0.0,0.0,0.0,0.0,0.0,0.0,0.0,0.0,0.0,0.0,0.0,0.0,0.0,0.0,0.0,0.0,0.0,0.0,0.0,0.0,-0.1868,-0.1202,-0.1289,-0.1504,-0.1822,-0.2079,-0.2436,-0.2957,-0.3029,-0.3102,0.0,0.0,0.0,0.0,0.0,0.0,0.0,0.0,0.0,0.0,0.0,0.0,0.0,0.0,0.0,0.0,0.0,0.0,0.0,0.0,0.0,0.0,0.0,0.0,0.0,0.0,0.0,0.0,-0.9576,-1.037,-1.1279,0.0,0.0,0.0,0.0,0.0,0.0,0.0,0.0,0.0,0.0,-1.3839,-1.4132,-1.4626,-1.5029,-1.5243,-1.4966,-1.4834,-1.5101,-1.4487,-1.3806,-1.3287,0.0,0.0,0.0,0.0,0.0,0.0,0.0,0.0,0.0,0.0,0.0,0.0,0.0,0.0,0.0,0.0,0.0,0.0,0.0,0.0,0.0,0.0,0.0,0.0,0.0,0.0,0.0,0.0,0.0,0.0,0.2189,0.0,0.0,0.0,0.0,0.0,0.0,0.0,0.0,0.0,0.0,0.0,0.0,0.0,0.0,0.0,0.0,0.0,0.0,0.0,0.0,0.0,0.0,-0.1868,-0.1201,-0.1531,-0.1694,-0.174,-0.2477,-0.2883,-0.2914,-0.3234,-0.3322,-0.3192,0.0,0.0,0.0,0.0,0.0,0.0,0.0,0.0,0.0,0.0,0.0,0.0,0.0,0.0,0.0,0.0,0.0,0.0,0.0,0.0,0.0,0.0,0.0,0.0,0.0,0.0,-0.8705,-0.9468,-1.0212,0.0,0.0,0.0,0.0,0.0,0.0,0.0,0.0,0.0,0.0,-1.3278,-1.3755,-1.3937,-1.4491,-1.4871,-1.4863,-1.4648,-1.4504,-1.4504,-1.4225,-1.3653,0.0,0.0,0.0,0.0,0.0,0.0,0.0,0.0,0.0,0.0,0.0,0.0,0.0,0.0,0.0,0.0,0.0,0.0,0.0,0.0,0.0,0.0,0.0,0.0,0.0,0.0,0.0,0.278,0.2637,0.0,0.0,0.0,0.0,0.0,0.0,0.0,0.0,0.0,0.0,0.0,0.2396,0.2287,0.0,0.0,0.0,0.0,0.0,0.0,0.0,0.0,0.0,0.0,0.0,0.0,-0.2327,-0.1879,-0.1972,-0.2175,-0.2505,-0.2744,-0.2999,-0.3232,-0.3344,-0.3298,-0.3084,0.0,0.0,0.0,0.0,0.0,0.0,0.0,0.0,0.0,0.0,0.0,0.0,0.0,0.0,0.0,0.0,0.0,0.0,0.0,0.0,0.0,0.0,0.0,0.0,0.0,-0.8538,0.0,0.0,0.0,0.0,0.0,0.0,0.0,0.0,0.0,0.0,0.0,-1.1877,-1.2054,-1.2754,-1.3078,-1.2586,-1.3382,-1.3723,0.0,0.0,0.0,0.0,0.0,0.0,0.0,0.0,0.0,0.0,0.0,0.0,0.0,0.0,-1.8012,-1.7899,-1.7615,-1.7311,-1.7049,0.0,0.0,0.0,0.0,0.0,0.0,0.0,0.0,0.0,0.0,0.0,0.0,0.0,0.0,0.3101,0.0,0.2508,0.0,0.0,0.0,0.0,0.0,0.0,0.0,0.0,0.2452,0.2456,0.2398,0.232,0.2212,0.0,0.2069,0.1035,0.0,0.0,0.0,0.0,0.0,0.0,0.0,0.0,-0.2318,-0.2036,-0.2246,-0.2509,-0.2796,-0.2916,-0.3069,-0.3259,-0.3255,-0.3156,-0.2915,-0.318,-0.324,0.0,0.0,0.0,0.0,0.0,0.0,0.0,0.0,0.0,0.0,0.0,0.0,0.0,0.0,0.0,0.0,0.0,0.0,0.0,0.0,0.0,0.0,0.0,-0.8576,0.0,0.0,0.0,0.0,0.0,0.0,0.0,0.0,0.0,-1.0793,-1.0982,-1.1196,-1.1577,-1.1924,-1.2005,-1.1648,0.0,0.0,0.0,0.0,0.0,0.0,0.0,-1.2375,-1.2054,-1.2171,-1.2215,-1.1894,-1.3203,-1.4463,-1.5028,0.0,0.0,-1.6807,-1.6678,-1.636,-1.6084,-1.6162,-1.647,-1.7082,-1.7434,-1.7861,0.0,0.0,0.0,0.0,0.0,0.0,0.0,0.0,0.3428,0.3293,0.0,0.2875,0.0,0.0,0.0,0.0,0.0,0.2581,0.0,0.0,0.2728,0.2691,0.221,0.2213,0.2213,0.2213,0.2212,0.1729,0.0841,0.0556,0.0,0.0,0.0,0.0,0.0,0.0,-0.1961,-0.1712,-0.2348,-0.2649,-0.2614,-0.2906,-0.308,-0.2995,-0.2991,-0.295,-0.2834,-0.3116,-0.3242,-0.3135,-0.3965,0.0,0.0,0.0,0.0,0.0,0.0,0.0,0.0,0.0,0.0,0.0,0.0,0.0,0.0,0.0,0.0,0.0,0.0,0.0,0.0,-0.8014,0.0,0.0,0.0,0.0,0.0,0.0,0.0,0.0,0.0,0.0,-0.9958,-0.999,-1.0322,-1.1152,0.0,0.0,0.0,0.0,-1.0876,-1.0539,-1.1176,-1.1744,-1.171,-1.2158,-1.232,-1.2,0.0,0.0,-1.1711,-1.1667,-1.2115,-1.2973,-1.33,-1.3937,-1.6407,-1.6084,-1.5553,-1.5496,-1.5223,-1.524,-1.6037,-1.6405,-1.6697,1.0258,0.0,0.0,0.0,0.0,0.6057,0.572,0.5458,0.4631,0.4141,0.3878,0.3491,0.0,0.0,0.0,0.0,0.0,0.0,0.2245,0.2221,0.236,0.2356,0.2212,0.2253,0.2273,0.2272,0.223,0.206,0.1798,0.1683,0.0515,-0.154,0.0,0.0,0.0,0.0,-0.2749,-0.2704,-0.2866,-0.2769,-0.2345,-0.2784,-0.3012,-0.2985,-0.2985,-0.2972,-0.2943,-0.3173,-0.33,-0.3332,-0.3663,0.0,0.0,0.0,0.0,0.0,0.0,0.0,0.0,0.0,0.0,0.0,0.0,0.0,0.0,0.0,0.0,0.0,0.0,0.0,-0.8382,-0.8349,-0.8447,0.0,0.0,0.0,0.0,0.0,0.0,0.0,0.0,0.0,-0.8952,-0.955,-1.0162,0.0,0.0,-1.0115,-1.0085,-1.0175,-1.014,-0.9683,-1.0147,0.0,-1.0497,-1.1133,-1.1549,-1.117,-1.1625,-1.2145,-1.2606,-1.2858,-1.3105,-1.3412,-1.3633,-1.3981,-1.4325,-1.4537,-1.4418,-1.4219,-1.452,-1.494,-1.5253,-1.6063,-1.6835,1.2372,1.1194,0.9732,0.8414,0.72,0.6566,0.6186,0.587,0.5089,0.4565,0.4282,0.3917,0.3562,0.3225,0.2927,0.0,0.0,0.0,0.2348,0.2421,0.2306,0.2232,0.2212,0.2246,0.2264,0.226,0.2237,0.2196,0.2172,0.2075,0.1131,-0.065,0.0,0.0,-0.208,-0.2572,-0.2706,-0.2487,-0.261,-0.2389,-0.1737,-0.2018,-0.2163,-0.2164,-0.2462,-0.2623,-0.2627,-0.3123,-0.3388,-0.3393,-0.353,-0.3866,0.0,0.0,0.0,0.0,0.0,0.0,0.0,0.0,0.0,0.0,0.0,-0.935,-0.921,0.0,0.0,0.0,-0.8467,-0.8414,-0.8474,-0.8517,0.0,0.0,0.0,0.0,0.0,0.0,0.0,-0.8958,-0.87,-0.8517,-0.8517,-0.9017,-0.9552,-0.9911,-0.9659,-0.9417,-0.9473,0.0,-0.93,-0.9017,-0.9582,-1.0021,-1.0028,-1.0784,-1.1365,-1.1157,-1.1492,-1.2025,-1.2575,-1.288,-1.3068,-1.3335,-1.3528,-1.3639,-1.3523,-1.3708,-1.3802,-1.3571,-1.3948,-1.4426,-1.4803,-1.5582,-1.6278,1.3877,1.3537,1.0372,0.8392,0.7196,0.6258,0.5687,0.5445,0.5171,0.481,0.4389,0.4292,0.4006,0.362,0.3294,0.0,0.3192,0.2894,0.276,0.2725,0.2476,0.2288,0.2238,0.2191,0.2193,0.22,0.2206,0.2146,0.2095,0.2034,0.1637,0.0881,0.0381,-0.0145,-0.0732,-0.1737,-0.2027,-0.1469,-0.1815,-0.1662,-0.1024,-0.088,-0.0838,-0.0895,-0.1671,-0.2079,-0.2049,-0.2958,-0.3452,-0.3405,-0.3514,-0.3515,-0.3395,0.0,0.0,0.0,0.0,0.0,0.0,0.0,0.0,0.0,0.0,0.0,0.0,0.0,0.0,0.0,-0.8178,0.0,-0.8393,-0.8414,0.0,0.0,0.0,-0.8517,-0.8517,-0.8517,-0.8517,-0.8517,0.0,0.0,-0.8517,-0.8517,-0.8673,-0.9177,-0.8797,-0.8679,-0.9206,-0.8819,-0.8517,-0.8544,-0.9268,-0.9894,-0.9926,-1.0776,-1.1488,-1.1591,-1.163,-1.1808,-1.2127,-1.2259,-1.2452,-1.2922,-1.3019,-1.3133,-1.345,-1.3498,-1.348,-1.3489,-1.3519,-1.3796,-1.4532,-1.4816,-1.5173,1.3655,1.2736,1.1759,1.1209,1.0847,0.8134,0.7282,0.757,0.6033,0.5237,0.4975,0.487,0.4483,0.3881,0.3749,0.3542,0.3297,0.3265,0.3156,0.3056,0.2702,0.2546,0.2572,0.221,0.2118,0.2199,0.2098,0.2063,0.2091,0.2033,0.1881,0.1617,0.0969,0.0202,-0.0673,-0.1127,-0.1262,-0.1115,-0.1213,-0.114,-0.0934,-0.0478,-0.0448,-0.0894,-0.1634,-0.206,-0.2155,-0.2861,-0.3309,-0.3393,-0.3447,-0.339,-0.327,-0.3465,0.0,0.0,0.0,0.0,0.0,0.0,0.0,0.0,0.0,-0.7642,-0.7999,0.0,-0.7933,0.0,-0.797,-0.7695,-0.7749,-0.7754,0.0,0.0,-0.8182,-0.8517,-0.8517,-0.8517,-0.8517,-0.8517,-0.8517,-0.8517,-0.8517,-0.8517,-0.8549,-0.8673,-0.8608,-0.8614,-0.8937,-0.8717,-0.8517,-0.8544,-0.8732,-0.9017,-0.9524,-1.032,-1.1247,-1.1879,-1.1996,-1.2089,-1.2367,-1.2613,-1.2836,-1.2989,-1.3216,-1.339,-1.3455,-1.348,-1.3472,-1.348,-1.348,-1.3528,-1.3805,-1.4104,-1.4433,1.3466,1.2424,1.1754,1.1484,1.13,0.8804,0.7667,0.7411,0.616,0.5446,0.5175,0.501,0.471,0.4344,0.424,0.4057,0.3835,0.3647,0.3494,0.3364,0.2992,0.2745,0.2555,0.2316,0.2273,0.2375,0.2141,0.2109,0.2241,0.2052,0.1932,0.1845,0.1382,0.0884,0.0308,-0.0484,-0.0723,-0.0411,-0.0232,-0.0142,-0.0112,0.0252,0.0252,-0.0084,-0.081,-0.1387,-0.1749,-0.2476,-0.2915,-0.3007,-0.3318,-0.3319,-0.2923,-0.3219,-0.3415,0.0,0.0,0.0,0.0,0.0,0.0,0.0,0.0,0.0,0.0,0.0,-0.7066,-0.7535,-0.7113,-0.6869,-0.6985,-0.6994,-0.7027,-0.7027,-0.7321,-0.7689,-0.8019,-0.8052,-0.8155,-0.8447,-0.842,-0.8393,-0.8463,-0.842,-0.8393,-0.8495,-0.8517,-0.856,-0.8667,-0.8592,-0.8517,-0.8517,-0.8732,-0.9268,-1.0123,-1.073,-1.1365,-1.2089,-1.2274,-1.232,-1.2474,-1.2644,-1.2753,-1.2743,-1.2898,-1.3014,-1.3006,-1.3014,-1.3014,-1.3014,-1.3006,-1.3134,-1.3434,-1.357,-1.3673,1.3386,1.2516,1.1344,1.0642,1.019,0.883,0.7581,0.6513,0.5999,0.5564,0.5213,0.4955,0.482,0.4804,0.4635,0.4566,0.4515,0.4114,0.3827,0.3711,0.3335,0.2952,0.2576,0.2496,0.253,0.2581,0.2248,0.2216,0.2434,0.209,0.1853,0.18,0.1684,0.1631,0.158,0.028,-0.0142,0.0408,0.0771,0.0929,0.0898,0.0874,0.0874,0.087,0.0167,-0.0493,-0.1064,-0.1894,-0.235,-0.2368,-0.301,-0.3067,-0.2405,-0.2878,-0.3167,0.0,-0.2998,0.0,0.0,0.0,0.0,0.0,0.0,0.0,0.0,-0.6307,-0.6223,-0.6319,-0.6065,-0.5986,-0.6221,-0.6213,-0.6233,-0.6229,-0.6298,-0.6599,-0.7247,-0.7353,-0.758,-0.8243,-0.818,-0.8163,-0.8371,-0.8263,-0.8251,-0.8382,-0.8446,-0.8446,-0.8489,-0.8533,-0.8565,-0.8544,-0.9032,-0.9687,-1.0616,-1.114,-1.1507,-1.2149,-1.2323,-1.2418,-1.2472,-1.2489,-1.2496,-1.2408,-1.2449,-1.2423,-1.2389,-1.2406,-1.2406,-1.244,-1.2406,-1.2569,-1.3108,-1.3129,-1.2949,1.3449,1.3197,1.2024,1.1045,1.019,0.8966,0.8209,0.7774,0.6599,0.5856,0.5425,0.5123,0.498,0.4938,0.4936,0.4857,0.4723,0.4589,0.4434,0.4322,0.371,0.3404,0.3337,0.2658,0.24,0.2506,0.2169,0.2046,0.2094,0.1971,0.1853,0.1798,0.1769,0.1792,0.1802,0.0,0.0,0.0,0.1069,0.1066,0.09,0.0893,0.0893,0.087,0.0136,0.0,-0.0505,-0.1136,-0.1514,-0.1553,-0.2064,0.0,0.0,0.0,0.0,0.0,0.0,0.0,0.0,0.0,0.0,0.0,-0.4148,-0.459,-0.5279,-0.5758,-0.6024,-0.5965,-0.5483,-0.5253,-0.5414,-0.5342,-0.5263,-0.5263,-0.5759,-0.6181,-0.6409,-0.6461,-0.6687,-0.7269,-0.745,-0.7588,-0.7902,-0.8072,-0.8186,-0.8122,-0.8177,-0.8237,-0.8284,-0.852,-0.8681,-0.8635,-0.8859,-0.9084,-0.9147,-1.0112,-1.0916,-1.132,-1.1751,-1.2069,-1.2321,-1.238,-1.2408,-1.2346,-1.2389,-1.2355,-1.2346,-1.2389,-1.2286,-1.2372,-1.2132,-1.2054,-1.25,-1.2543,-1.25,1.3046,0.0,1.1948,1.1071,0.0,0.9304,0.8703,0.8174,0.6868,0.6027,0.5537,0.5274,0.5168,0.5165,0.4991,0.486,0.4738,0.4654,0.4501,0.4289,0.395,0.3713,0.3525,0.3127,0.2908,0.2766,0.2409,0.225,0.2245,0.1971,0.1826,0.1797,0.1797,0.1811,0.1837,0.1754,0.1515,0.1094,0.1056,0.0998,0.0899,0.0884,0.0884,0.087,0.0496,0.0,0.0,0.0,0.0,0.0,0.0,0.0,0.0,0.0,0.0,-0.1312,-0.185,-0.226,-0.2419,-0.28,-0.3212,-0.3607,-0.3701,-0.392,-0.4367,-0.474,-0.4965,-0.4931,-0.4631,-0.4479,-0.4544,-0.4522,-0.4448,-0.4479,-0.4752,-0.5118,-0.552,-0.5663,-0.5975,-0.6607,-0.6954,-0.727,-0.7563,-0.7863,-0.8061,-0.8099,-0.8156,-0.8239,-0.8327,-0.8431,-0.8474,-0.8391,-0.8569,-0.8823,-0.8989,-0.9551,-1.0458,-1.1128,-1.1354,-1.1519,-1.2032,-1.1862,-1.1672,-1.16,-1.1567,-1.149,-1.1285,-1.1276,-1.1285,-1.1267,-1.1097,-1.1004,-1.1242,-1.1576,-1.1859,1.2598,1.1877,1.1701,1.103,1.0029,0.9644,0.8985,0.8124,0.0,0.0,0.0,0.5363,0.5236,0.5172,0.4884,0.4749,0.4681,0.4561,0.4397,0.4181,0.4083,0.3919,0.3608,0.3573,0.3423,0.3181,0.2748,0.2523,0.2494,0.205,0.1822,0.1812,0.1812,0.1817,0.1826,0.1789,0.1586,0.1217,0.1076,0.0988,0.0983,0.0987,0.0987,0.0982,0.0948,0.0685,0.0213,0.0,-0.0106,-0.0132,-0.0767,-0.0858,-0.0247,-0.0785,-0.1038,-0.0894,-0.1321,-0.1662,-0.1807,-0.2495,-0.3084,-0.3406,-0.3528,-0.3652,-0.3776,-0.3816,-0.3851,-0.387,-0.3854,-0.3849,-0.387,-0.3854,-0.3841,-0.3843,-0.3871,-0.4114,-0.468,-0.49,-0.5258,-0.5956,-0.6401,-0.6845,-0.7182,-0.7545,-0.7835,-0.8051,-0.8097,-0.8201,-0.8323,-0.8294,-0.8201,-0.8124,-0.8267,-0.8537,-0.8903,-0.93,-0.9918,-1.0652,-1.0604,-1.0701,-1.1121,-1.104,-1.0718,-1.0683,-1.0602,-1.0499,-1.0194,-1.0203,-1.01,-1.0092,-1.0041,-1.0024,-1.0118,-1.0574,-1.1001,1.2673,1.2502,1.1672,1.1107,1.0679,0.9845,0.8835,0.7733,0.6673,0.5949,0.5501,0.5231,0.4984,0.4776,0.472,0.4706,0.4718,0.4561,0.4487,0.4435,0.4105,0.3944,0.3993,0.36,0.3453,0.3471,0.2954,0.2591,0.2477,0.2169,0.1951,0.1904,0.1898,0.1923,0.1939,0.181,0.167,0.1611,0.1523,0.1416,0.1264,0.1299,0.13,0.1236,0.1118,0.1045,0.0933,0.075,0.066,0.0635,0.0105,0.0053,0.0565,-0.0351,-0.0514,0.0384,-0.008,-0.0518,-0.0742,-0.1416,-0.2332,-0.3448,-0.3602,-0.3621,-0.3635,-0.3623,-0.3672,-0.3791,-0.3699,-0.3672,-0.3786,-0.3725,-0.3651,-0.3645,-0.3665,-0.3755,-0.3998,-0.4133,-0.4452,-0.5031,-0.5327,-0.5904,-0.6568,-0.7012,-0.7383,-0.7705,-0.7901,-0.7991,-0.8044,-0.8152,-0.8163,-0.8,-0.7958,-0.7943,-0.8014,-0.8482,-0.8917,-0.8839,-0.9235,-0.9497,-0.9947,-0.9883,-0.9881,-1.0134,-1.02,-1.0157,-1.0049,-1.01,-1.0032,-1.0012,-0.9833,-0.9739,-0.9969,-1.0,-0.9983,1.2705,1.2662,1.2229,1.192,1.1579,1.0412,0.9553,0.8768,0.7481,0.6465,0.5779,0.5501,0.5242,0.4981,0.4834,0.4726,0.4586,0.4528,0.4471,0.4368,0.4208,0.4129,0.4175,0.4,0.3804,0.3682,0.3152,0.2786,0.2563,0.2175,0.1987,0.1962,0.1961,0.1975,0.1967,0.1917,0.1857,0.1795,0.1564,0.1396,0.1319,0.131,0.1282,0.1178,0.1133,0.1069,0.1013,0.09,0.0865,0.0855,0.064,0.0586,0.083,0.0358,0.0304,0.0778,0.0248,-0.0167,-0.0328,-0.1439,-0.2514,-0.3502,-0.3613,-0.3613,-0.3613,-0.3613,-0.3635,-0.3684,-0.3638,-0.3632,-0.3684,-0.3641,-0.3613,-0.3613,-0.3613,-0.3632,-0.3704,-0.3889,-0.4113,-0.442,-0.4956,-0.5449,-0.5837,-0.6593,-0.7139,-0.7381,-0.7628,-0.7875,-0.7895,-0.7898,-0.7882,-0.7774,-0.7826,-0.7736,-0.7492,-0.7778,-0.8119,-0.8181,-0.8134,-0.853,-0.919,-0.9313,-0.9296,-0.9712,-0.9824,-0.9739,-0.9585,-0.9508,-0.9508,-0.95,-0.9406,-0.9384,-0.9533,-0.951,-0.9601,1.2705,1.2705,1.2705,1.2518,1.2098,1.0982,1.0275,0.9776,0.8589,0.7378,0.6291,0.5841,0.5434,0.5074,0.4894,0.4699,0.4473,0.4468,0.4384,0.4303,0.427,0.4273,0.4295,0.4276,0.4138,0.3882,0.3479,0.3081,0.2702,0.2315,0.2096,0.2005,0.2016,0.2023,0.2024,0.201,0.1979,0.193,0.1574,0.1431,0.1431,0.1431,0.1347,0.1262,0.1234,0.1178,0.1064,0.0985,0.0955,0.095,0.0903,0.0872,0.0896,0.0897,0.0897,0.0841,0.0449,0.0084,-0.0251,-0.1478,-0.2569,-0.3302,-0.3471,-0.353,-0.3416,-0.353,-0.3613,-0.3613,-0.3616,-0.3613,-0.3619,-0.3613,-0.3613,-0.3613,-0.3613,-0.3613,-0.3666,-0.3855,-0.4021,-0.4104,-0.468,-0.5148,-0.5418,-0.61,-0.6756,-0.7112,-0.7467,-0.7741,-0.7851,-0.7762,-0.7661,-0.7631,-0.7683,-0.7621,-0.734,-0.7394,-0.7579,-0.7745,-0.7416,-0.7732,-0.8481,-0.8573,-0.8723,-0.9157,-0.9406,-0.9354,-0.9081,-0.9021,-0.9047,-0.9072,-0.9076,-0.9122,-0.9249,-0.92,-0.9325,1.2705,1.2705,1.2705,1.2415,1.188,1.1274,1.0617,0.996,0.9728,0.8693,0.7126,0.5994,0.5256,0.4714,0.4672,0.4565,0.4353,0.4317,0.4314,0.4289,0.4154,0.4194,0.4284,0.4191,0.4159,0.4187,0.388,0.346,0.3065,0.2634,0.2285,0.2041,0.2059,0.2087,0.2082,0.2031,0.2001,0.1962,0.1825,0.1741,0.1769,0.1769,0.1741,0.1741,0.16,0.1543,0.1487,0.1231,0.109,0.1066,0.0978,0.0894,0.0897,0.0897,0.0897,0.0897,0.0841,0.0532,-0.0168,-0.095,-0.176,-0.2541,-0.3077,-0.3218,-0.285,-0.3246,-0.3585,-0.3557,-0.3557,-0.3613,-0.3613,-0.3613,-0.3613,-0.3613,-0.361,-0.3638,-0.3769,-0.3938,-0.4049,-0.4162,-0.4436,-0.4732,-0.5171,-0.5469,-0.5964,-0.6891,-0.7166,-0.7359,-0.7622,-0.7803,-0.7669,-0.7543,-0.7399,-0.7358,-0.7413,-0.7352,-0.7211,-0.703,-0.6887,-0.7077,-0.7412,-0.773,-0.7951,-0.8501,-0.8811,-0.8921,-0.8937,-0.8996,-0.8935,-0.8834,-0.8926,-0.9148,-0.9199,-0.8999,-0.895,1.2705,1.2705,1.2705,1.2403,1.1838,1.1341,1.0925,1.0588,1.0105,0.9446,0.8644,0.7674,0.6687,0.5681,0.5559,0.5319,0.5024,0.4661,0.4398,0.4295,0.4246,0.4254,0.4289,0.4254,0.4257,0.4261,0.3961,0.3704,0.3431,0.2904,0.2436,0.2147,0.2139,0.2149,0.2146,0.2088,0.2058,0.2053,0.1937,0.1846,0.1872,0.1815,0.1769,0.1713,0.1628,0.1543,0.1431,0.129,0.1234,0.1206,0.1178,0.115,0.1122,0.1122,0.1094,0.101,0.0954,0.0588,-0.0168,-0.0475,-0.0977,-0.1758,-0.2124,-0.2235,-0.2096,-0.2348,-0.2545,-0.2629,-0.316,-0.3613,-0.3585,-0.3585,-0.3613,-0.3613,-0.3694,-0.3744,-0.3796,-0.3993,-0.4135,-0.4193,-0.438,-0.4574,-0.4818,-0.5117,-0.5637,-0.6426,-0.6837,-0.7058,-0.6993,-0.7363,-0.7425,-0.6968,-0.686,-0.6995,-0.7115,-0.72,-0.7,-0.6708,-0.6574,-0.6625,-0.6947,-0.7126,-0.744,-0.7897,-0.8165,-0.8288,-0.8185,-0.8218,-0.8226,-0.8288,-0.8316,-0.8411,-0.8504,-0.8472,-0.8513,1.2705,1.2681,1.2554,1.227,1.1838,1.1341,1.1117,1.1037,1.0475,1.0043,0.9695,0.9296,0.8363,0.7186,0.6516,0.6011,0.564,0.4937,0.4495,0.4334,0.4303,0.4303,0.4303,0.4303,0.4303,0.4267,0.4064,0.3844,0.3555,0.2988,0.2493,0.2196,0.2163,0.2161,0.2157,0.2114,0.2096,0.2084,0.1975,0.1888,0.1894,0.1835,0.1741,0.1656,0.1656,0.1572,0.1431,0.1403,0.1403,0.1403,0.1318,0.1318,0.1318,0.1318,0.1229,0.1108,0.0996,0.0691,0.011,-0.0056,-0.0391,-0.0922,-0.1314,-0.1476,-0.1439,-0.1613,-0.1699,-0.1628,-0.2502,-0.3107,-0.3357,-0.3502,-0.3613,-0.361,-0.3716,-0.3824,-0.3852,-0.4079,-0.4221,-0.4276,-0.4408,-0.4491,-0.4543,-0.4814,-0.5281,-0.5878,-0.6285,-0.6588,-0.6335,-0.6776,-0.6911,-0.6192,-0.6367,-0.6622,-0.6742,-0.6834,-0.6778,-0.6655,-0.6498,-0.652,-0.6816,-0.6901,-0.7021,-0.7482,-0.7579,-0.7724,-0.7848,-0.7786,-0.7703,-0.7731,-0.7773,-0.7863,-0.8103,-0.8041,-0.7979,1.2705,1.2626,1.2168,1.1974,1.1844,1.1359,1.1117,1.1117,1.0999,1.0619,1.0045,1.0366,0.9993,0.8864,0.7376,0.6348,0.5908,0.5081,0.4573,0.4347,0.4314,0.4306,0.4303,0.4303,0.4303,0.4303,0.4267,0.3883,0.321,0.2817,0.2423,0.2137,0.211,0.2105,0.2109,0.2102,0.2096,0.2114,0.2005,0.1965,0.2002,0.1882,0.1853,0.1825,0.1797,0.1769,0.1741,0.1656,0.1572,0.16,0.1431,0.1318,0.1318,0.1317,0.1243,0.1129,0.1042,0.0961,0.0777,0.0329,-0.0056,-0.0306,-0.0831,-0.1128,-0.0804,-0.1282,-0.1397,-0.099,-0.1557,-0.2164,-0.2637,-0.3065,-0.3416,-0.3471,-0.3633,-0.3769,-0.3882,-0.3968,-0.4273,-0.438,-0.4463,-0.4491,-0.4519,-0.4519,-0.4818,-0.5199,-0.5386,-0.555,-0.5987,-0.6185,-0.6123,-0.5821,-0.5861,-0.6192,-0.6551,-0.66,-0.6586,-0.6564,-0.6489,-0.6416,-0.6553,-0.6696,-0.688,-0.7063,-0.7287,-0.7474,-0.762,-0.7662,-0.7586,-0.7593,-0.7593,-0.7697,-0.7614,-0.7558,-0.7496,1.2705,1.2668,1.2283,1.2077,1.1844,1.1489,1.1242,1.1117,1.1117,1.0925,1.0726,1.0898,1.0735,1.03,0.9113,0.7899,0.6751,0.5936,0.5191,0.4626,0.456,0.452,0.4414,0.4443,0.4368,0.4308,0.4303,0.4043,0.3546,0.3177,0.2816,0.2482,0.2287,0.2156,0.2147,0.2114,0.2193,0.234,0.2217,0.2278,0.2472,0.2438,0.2383,0.2355,0.1992,0.1797,0.1797,0.1769,0.1741,0.1713,0.1656,0.1628,0.1597,0.1512,0.1405,0.1359,0.1121,0.1003,0.0927,0.0703,0.0498,0.0419,0.0052,-0.0209,-0.0078,-0.0364,-0.0547,-0.0466,-0.0884,-0.1336,-0.1587,-0.2096,-0.246,-0.246,-0.2573,-0.2764,-0.2907,-0.3294,-0.371,-0.3935,-0.4239,-0.4491,-0.4491,-0.4491,-0.457,-0.4787,-0.5089,-0.5226,-0.5254,-0.5691,-0.5833,-0.5108,-0.5332,-0.5773,-0.5483,-0.5984,-0.6276,-0.6425,-0.6459,-0.6428,-0.6496,-0.6517,-0.666,-0.6696,-0.6922,-0.6985,-0.7048,-0.7027,-0.7055,-0.7034,-0.7083,-0.7181,-0.7027,-0.7076,-0.702,1.2705,1.2662,1.2421,1.2161,1.1902,1.1603,1.1327,1.1129,1.1117,1.1117,1.1117,1.1117,1.1032,1.0899,1.0283,0.9265,0.7827,0.6808,0.5888,0.5205,0.4941,0.4695,0.4523,0.4469,0.4446,0.4317,0.4303,0.4131,0.3792,0.3393,0.3058,0.2686,0.2487,0.2354,0.2344,0.2354,0.2523,0.2643,0.2565,0.2595,0.2812,0.275,0.2691,0.2635,0.23,0.2049,0.1934,0.1943,0.1887,0.182,0.1778,0.1777,0.1788,0.1639,0.1493,0.1409,0.1188,0.0991,0.0944,0.0852,0.0782,0.0782,0.0554,0.0402,0.0373,0.015,0.0,0.0,-0.0327,-0.0605,-0.0661,-0.0975,-0.1359,-0.1701,-0.1926,-0.2049,-0.215,-0.2623,-0.3095,-0.3541,-0.4073,-0.438,-0.4491,-0.4491,-0.4491,-0.4491,-0.4818,-0.4846,-0.4712,-0.5058,-0.5383,-0.4492,-0.4785,-0.5067,-0.5035,-0.5356,-0.5908,-0.613,-0.6381,-0.6382,-0.641,-0.641,-0.641,-0.641,-0.641,-0.641,-0.641,-0.641,-0.641,-0.641,-0.6538,-0.6723,-0.666,-0.6632,-0.6723,1.2705,1.2668,1.2427,1.2192,1.1944,1.1676,1.1363,1.114,1.1141,1.1148,1.1117,1.1117,1.0997,1.0761,1.0677,1.0147,0.9143,0.7677,0.6638,0.6086,0.5351,0.4819,0.456,0.4512,0.4443,0.4306,0.4303,0.4133,0.3828,0.346,0.309,0.2787,0.2753,0.2721,0.272,0.2852,0.304,0.3105,0.2928,0.2902,0.298,0.2898,0.2783,0.2721,0.2689,0.2493,0.2183,0.217,0.2062,0.1838,0.1741,0.1737,0.1773,0.166,0.1518,0.1336,0.1194,0.1003,0.0839,0.0786,0.0771,0.0746,0.0551,0.0393,0.0361,0.0,0.0,0.0,0.0,0.0,0.0,0.0,0.0,-0.1529,-0.1674,-0.175,-0.1877,-0.2093,-0.251,-0.3262,-0.3879,-0.4245,-0.4408,-0.4491,-0.4491,-0.4519,-0.4574,-0.4601,-0.4519,-0.4653,-0.448,-0.4297,-0.4425,-0.4625,-0.4673,-0.4788,-0.5357,-0.5846,-0.6158,-0.6326,-0.6386,-0.641,-0.641,-0.641,-0.641,-0.641,-0.641,-0.641,-0.6432,-0.6432,-0.641,-0.6453,-0.6538,-0.6617,-0.666,1.2705,1.2693,1.262,1.2433,1.2198,1.2101,1.1823,1.1381,1.1363,1.126,1.1141,1.1117,1.1063,1.1009,1.0985,1.0795,1.0389,0.8867,0.7611,0.6658,0.5617,0.5006,0.4852,0.4617,0.4409,0.4319,0.4303,0.4267,0.4097,0.3794,0.3558,0.3424,0.3159,0.3058,0.3056,0.3131,0.3243,0.3443,0.3396,0.3428,0.3527,0.3508,0.3323,0.3002,0.2965,0.2742,0.2265,0.2194,0.2059,0.182,0.174,0.1734,0.1762,0.1655,0.1543,0.1378,0.1185,0.1028,0.0895,0.0788,0.0726,0.0701,0.0514,0.0418,0.0367,0.0162,0.0,0.0,0.0,0.0,0.0,0.0,0.0,0.0,-0.059,-0.0729,-0.0915,-0.1377,-0.223,-0.3121,-0.3597,-0.399,-0.4349,-0.446,-0.4436,-0.4405,-0.4432,-0.446,-0.446,-0.4463,-0.4406,-0.4257,-0.4334,-0.4303,-0.4343,-0.4523,-0.5004,-0.5538,-0.5917,-0.635,-0.6433,-0.6471,-0.6459,-0.641,-0.641,-0.6432,-0.6432,-0.6432,-0.6474,-0.6511,-0.6538,-0.6581,-0.6645,-0.6687,-0.6751,1.2705,1.2705,1.2705,1.2487,1.2198,1.2264,1.1916,1.1411,1.1453,1.1371,1.1154,1.1117,1.1117,1.1117,1.1117,1.1117,1.0956,0.9728,0.8741,0.7759,0.6026,0.5392,0.5371,0.4843,0.4484,0.4333,0.4344,0.4341,0.4267,0.3961,0.3825,0.3758,0.3525,0.3424,0.3453,0.3522,0.3645,0.3843,0.3768,0.3773,0.3862,0.3827,0.3658,0.3393,0.3207,0.2882,0.2402,0.2275,0.207,0.1826,0.1704,0.1693,0.1719,0.1628,0.1531,0.1349,0.1208,0.105,0.0857,0.0744,0.0697,0.0674,0.0539,0.045,0.0405,0.0202,0.009,0.0067,0.0,0.0,0.0,0.0,0.0,0.0,0.0,0.0,-0.0234,-0.0887,-0.164,-0.2437,-0.3099,-0.3536,-0.3766,-0.4073,-0.4045,-0.3932,-0.4015,-0.4156,-0.4211,-0.438,-0.4321,-0.4281,-0.4297,-0.4216,-0.407,-0.4314,-0.469,-0.5202,-0.5707,-0.6196,-0.655,-0.6591,-0.6589,-0.6474,-0.6447,-0.6517,-0.6538,-0.656,-0.6575,-0.6617,-0.6666,-0.6687,-0.6751,-0.6815,-0.6851,1.2705,1.2705,1.2705,1.2445,1.2077,1.2223,1.1928,1.1309,1.1423,1.1405,1.1238,1.1141,1.1135,1.1141,1.1141,1.1117,1.0925,1.0218,0.9836,0.9087,0.7325,0.6097,0.6059,0.5141,0.4558,0.4365,0.4449,0.4432,0.4272,0.403,0.3828,0.3861,0.3925,0.3892,0.3977,0.4086,0.4232,0.4306,0.4085,0.4005,0.4048,0.389,0.3759,0.3682,0.3326,0.2938,0.2593,0.2266,0.2014,0.1725,0.167,0.1655,0.1638,0.1597,0.1467,0.1233,0.1193,0.0996,0.0793,0.0719,0.0697,0.0697,0.0584,0.0494,0.045,0.0337,0.0225,0.0202,0.009,0.0,0.0,0.0,0.0,0.0,0.0,0.0,0.0,-0.0623,-0.1166,-0.1578,-0.2431,-0.3211,-0.2869,-0.3294,-0.3239,-0.3098,-0.3264,-0.3483,-0.3622,-0.3848,-0.42,-0.4197,-0.4098,-0.4142,-0.4004,-0.4076,-0.4446,-0.4976,-0.5434,-0.588,-0.6457,-0.657,-0.6651,-0.6548,-0.6532,-0.6596,-0.6638,-0.666,-0.6687,-0.673,-0.6772,-0.6793,-0.6851,-0.6914,-0.6977,1.2881,1.2705,1.2705,1.262,1.2512,1.2578,1.2373,1.1999,1.1848,1.1763,1.163,1.128,1.1244,1.1383,1.1202,1.1117,1.0925,1.0293,1.025,1.04,0.8685,0.7098,0.6222,0.5213,0.4651,0.4519,0.4605,0.4409,0.4308,0.4317,0.4211,0.4197,0.4603,0.4758,0.4776,0.4818,0.4854,0.4818,0.4411,0.4194,0.4128,0.4005,0.3694,0.3431,0.3279,0.2891,0.2369,0.1956,0.1766,0.1732,0.1738,0.1749,0.1723,0.1555,0.1405,0.1284,0.1084,0.0912,0.0746,0.0697,0.0697,0.0674,0.0584,0.0494,0.0494,0.0405,0.036,0.0315,0.0225,0.0135,0.0135,0.0045,0.0,0.0,0.0,0.0,0.0,-0.035,-0.0774,-0.1269,-0.1845,-0.2253,-0.2563,-0.2747,-0.283,-0.2692,-0.2741,-0.2918,-0.3003,-0.3329,-0.3694,-0.3756,-0.3742,-0.3909,-0.4008,-0.3998,-0.4243,-0.4755,-0.5173,-0.547,-0.6017,-0.6421,-0.6499,-0.6511,-0.6623,-0.6708,-0.673,-0.6772,-0.6793,-0.6829,-0.6893,-0.695,-0.6943,-0.7006,-0.7076,1.3015,1.2881,1.2747,1.2638,1.2566,1.2656,1.2493,1.2198,1.2119,1.2017,1.1866,1.1606,1.1479,1.1471,1.1359,1.1176,1.1049,1.0625,1.0663,1.0738,0.9372,0.795,0.6764,0.5905,0.5514,0.538,0.5377,0.5364,0.5268,0.5205,0.5205,0.5302,0.5447,0.5548,0.5548,0.5479,0.5422,0.5385,0.5123,0.4949,0.4835,0.4703,0.4578,0.4285,0.4083,0.365,0.3065,0.2622,0.2216,0.1797,0.1636,0.1656,0.1654,0.1569,0.1412,0.1283,0.1096,0.0946,0.0781,0.0728,0.0697,0.0697,0.0629,0.0584,0.0562,0.0494,0.0427,0.0427,0.0292,0.0225,0.018,0.0067,0.0,0.0,0.0,0.0,0.0,0.0,-0.0546,-0.0912,-0.1366,-0.1698,-0.1951,-0.2115,-0.2115,-0.2003,-0.2073,-0.2186,-0.2291,-0.2751,-0.3105,-0.3216,-0.3423,-0.3625,-0.3846,-0.3897,-0.3958,-0.4467,-0.494,-0.5208,-0.5776,-0.6275,-0.648,-0.6602,-0.6708,-0.6772,-0.6793,-0.6829,-0.6907,-0.695,-0.7034,-0.7076,-0.7091,-0.7105,-0.7181,1.3143,1.3094,1.279,1.2572,1.2427,1.2596,1.2475,1.2125,1.2216,1.2198,1.2035,1.1886,1.167,1.1531,1.1417,1.1291,1.1117,1.0999,1.0993,1.0619,0.9631,0.8435,0.7646,0.6901,0.6537,0.6379,0.6621,0.6517,0.6286,0.6347,0.6437,0.6309,0.6275,0.6333,0.6306,0.6165,0.6056,0.6045,0.5929,0.5828,0.5763,0.5647,0.5495,0.542,0.5026,0.4608,0.411,0.3657,0.2989,0.1818,0.1681,0.1727,0.1677,0.1666,0.1498,0.1265,0.1176,0.1054,0.0871,0.082,0.0808,0.0876,0.0876,0.0831,0.0943,0.0898,0.0786,0.0696,0.0449,0.0494,0.0314,0.018,0.0,0.0,0.0,0.0,0.0,-0.0232,-0.0404,-0.0454,-0.1157,-0.1223,-0.1158,-0.1183,-0.1465,-0.14,-0.1468,-0.1558,-0.1742,-0.2102,-0.2478,-0.2761,-0.305,-0.3372,-0.3592,-0.3802,-0.3891,-0.4137,-0.4633,-0.5079,-0.5679,-0.6164,-0.6456,-0.6617,-0.6462,-0.6568,-0.6781,-0.6838,-0.6922,-0.7034,-0.7076,-0.7146,-0.723,-0.7265,-0.7307,1.3264,1.3052,1.2833,1.2674,1.2632,1.2681,1.2632,1.2518,1.2367,1.2397,1.2367,1.1868,1.1694,1.1805,1.1393,1.116,1.1117,1.1074,1.0962,1.0513,0.9695,0.9188,0.8562,0.7625,0.6901,0.6793,0.6704,0.6647,0.6573,0.6673,0.6531,0.6599,0.6975,0.7068,0.7051,0.7001,0.7001,0.6935,0.6612,0.6421,0.6395,0.6167,0.6017,0.595,0.5483,0.5019,0.4622,0.4163,0.3675,0.3255,0.2873,0.2571,0.2232,0.2081,0.1853,0.1499,0.1264,0.1161,0.1066,0.1108,0.1186,0.1497,0.1477,0.1547,0.1923,0.1767,0.1544,0.1366,0.141,0.1252,0.0807,0.0627,0.0381,0.0,0.0,0.0,0.0,-0.0249,-0.0416,-0.0592,-0.0792,-0.0928,-0.0827,-0.0874,-0.0951,-0.083,-0.0874,-0.0993,-0.1224,-0.1545,-0.1915,-0.2301,-0.2837,-0.3188,-0.3552,-0.381,-0.4012,-0.41,-0.4491,-0.4871,-0.5476,-0.5821,-0.6057,-0.6114,-0.6087,-0.6301,-0.6632,-0.6781,-0.6844,-0.6977,-0.7125,-0.723,-0.7307,-0.737,-0.7475,1.3264,1.3094,1.279,1.2705,1.2705,1.2705,1.2705,1.2674,1.2566,1.2572,1.2572,1.2073,1.188,1.1884,1.1465,1.1256,1.1061,1.0887,1.0657,1.0253,0.9616,0.9263,0.9048,0.8324,0.7681,0.7639,0.7672,0.7567,0.7549,0.7523,0.7623,0.7515,0.7734,0.7803,0.7807,0.7718,0.7646,0.7641,0.7411,0.7229,0.7209,0.6992,0.6767,0.6674,0.6297,0.5947,0.5649,0.5213,0.4799,0.4453,0.41,0.3595,0.3003,0.2782,0.2557,0.2215,0.2015,0.1868,0.1814,0.1761,0.1897,0.2095,0.2077,0.2121,0.2255,0.2233,0.2057,0.1834,0.1765,0.1652,0.1186,0.0828,0.056,0.0381,0.0135,-0.0045,-0.018,-0.0315,-0.0429,-0.0531,-0.0673,-0.075,-0.0761,-0.0749,-0.0769,-0.0761,-0.0759,-0.0848,-0.0892,-0.1204,-0.1542,-0.1967,-0.2583,-0.3065,-0.3467,-0.3836,-0.4188,-0.432,-0.4513,-0.4801,-0.5157,-0.5392,-0.5561,-0.5728,-0.5986,-0.6206,-0.6489,-0.6617,-0.6745,-0.6914,-0.7055,-0.7245,-0.7426,-0.7551,-0.769,1.327,1.3052,1.2839,1.2705,1.2705,1.2705,1.2705,1.2705,1.2705,1.2681,1.265,1.2427,1.2119,1.1862,1.1597,1.1333,1.1057,1.0743,1.0484,1.0191,0.9611,0.9345,0.9119,0.8844,0.8764,0.8937,0.8837,0.8765,0.8723,0.888,0.8751,0.8746,0.8613,0.8453,0.8406,0.8365,0.8262,0.8168,0.8209,0.8164,0.8086,0.7899,0.7689,0.7428,0.7191,0.6915,0.6565,0.6189,0.5836,0.5469,0.5225,0.4653,0.4056,0.3606,0.3441,0.3136,0.2861,0.2675,0.2521,0.2509,0.2539,0.2627,0.2627,0.263,0.261,0.2632,0.2479,0.2255,0.2121,0.1943,0.1588,0.1343,0.1051,0.0783,0.0426,0.0045,-0.018,-0.0292,-0.0383,-0.0496,-0.059,-0.0641,-0.0685,-0.0688,-0.0703,-0.0697,-0.0697,-0.0742,-0.0808,-0.0965,-0.1349,-0.173,-0.2328,-0.3034,-0.348,-0.403,-0.436,-0.4513,-0.4639,-0.4845,-0.5029,-0.5198,-0.5474,-0.5804,-0.604,-0.6175,-0.6255,-0.6361,-0.6526,-0.6759,-0.695,-0.7091,-0.7377,-0.7724,-0.7855,1.327,1.3094,1.2833,1.2705,1.2705,1.2705,1.2705,1.2705,1.2705,1.2705,1.2668,1.2385,1.2168,1.188,1.1609,1.1383,1.1158,1.0817,1.0458,1.0206,0.9672,0.9465,0.9657,0.927,0.9439,1.0005,0.9898,0.9544,0.9418,0.971,0.9548,0.9256,0.912,0.8982,0.8817,0.8872,0.8842,0.8743,0.8864,0.8837,0.8602,0.8343,0.8072,0.7745,0.7517,0.7318,0.7066,0.672,0.6386,0.6134,0.5831,0.5512,0.5073,0.4443,0.3926,0.3545,0.3349,0.3271,0.3136,0.2981,0.309,0.3252,0.33,0.3391,0.348,0.3454,0.3145,0.2835,0.2637,0.2504,0.2475,0.2077,0.1808,0.145,0.0961,0.0538,0.0381,0.0067,-0.0315,-0.0517,-0.0562,-0.0584,-0.0629,-0.0652,-0.0629,-0.0697,-0.0764,-0.0853,-0.0964,-0.1121,-0.1367,-0.1725,-0.2105,-0.2835,-0.3524,-0.4114,-0.4574,-0.4688,-0.4818,-0.5024,-0.5181,-0.5219,-0.5436,-0.5739,-0.5782,-0.5739,-0.5868,-0.6083,-0.6276,-0.6489,-0.6689,-0.6894,-0.7252,-0.7607,-0.7925,1.3398,1.3094,1.2966,1.2833,1.2705,1.2705,1.2705,1.2705,1.2705,1.2705,1.2626,1.2433,1.2211,1.2036,1.1814,1.1609,1.1429,1.0964,1.0708,1.0463,0.9989,0.9809,1.0141,0.9721,1.0008,1.0519,1.064,1.0338,0.9856,0.9952,0.986,0.9433,0.9322,0.9208,0.9013,0.8955,0.9165,0.9203,0.9316,0.9241,0.8969,0.8562,0.811,0.7815,0.7603,0.7394,0.7213,0.7052,0.6757,0.647,0.6212,0.6014,0.571,0.5336,0.4755,0.4332,0.4153,0.4073,0.3969,0.3841,0.3876,0.3994,0.3917,0.384,0.388,0.377,0.359,0.3281,0.3129,0.304,0.2943,0.2568,0.2233,0.1943,0.1431,0.0984,0.0649,0.0358,-0.0022,-0.0405,-0.045,-0.0472,-0.0652,-0.0652,-0.0607,-0.0674,-0.0808,-0.0964,-0.112,-0.1321,-0.1502,-0.186,-0.2284,-0.299,-0.3675,-0.4224,-0.4748,-0.4884,-0.5014,-0.5219,-0.5355,-0.5442,-0.548,-0.5631,-0.5566,-0.5545,-0.5653,-0.5911,-0.6062,-0.6233,-0.6456,-0.6725,-0.7126,-0.7482,-0.778,1.3483,1.3143,1.3137,1.3052,1.2833,1.2796,1.279,1.279,1.2747,1.2705,1.2674,1.2493,1.2343,1.2198,1.2035,1.1868,1.1834,1.1254,1.1044,1.093,1.0409,1.0273,1.0523,1.0424,1.0545,1.1137,1.1134,1.1128,1.0539,1.0501,1.0089,0.9721,0.9544,0.9435,0.9392,0.9236,0.9463,0.9582,0.9733,0.9496,0.9122,0.8536,0.802,0.7782,0.7603,0.7408,0.7289,0.7194,0.7038,0.6778,0.6522,0.6322,0.6149,0.5992,0.571,0.5302,0.5187,0.505,0.4919,0.4674,0.4502,0.4546,0.4449,0.4268,0.4032,0.3917,0.3726,0.3508,0.342,0.3376,0.3217,0.2837,0.2591,0.239,0.1967,0.1432,0.1073,0.076,0.0426,0.0112,-0.0135,-0.036,-0.0539,-0.0763,-0.074,-0.0875,-0.1009,-0.1233,-0.1389,-0.1569,-0.1772,-0.2105,-0.2551,-0.3233,-0.3851,-0.4338,-0.4823,-0.5106,-0.5263,-0.5442,-0.555,-0.5658,-0.5658,-0.5642,-0.5658,-0.5658,-0.5723,-0.5739,-0.589,-0.6077,-0.6264,-0.6562,-0.6964,-0.7301,-0.7593,1.3568,1.3349,1.3392,1.3349,1.327,1.3094,1.3052,1.3009,1.279,1.2705,1.2699,1.265,1.2397,1.2107,1.1946,1.1898,1.1804,1.1551,1.1397,1.1372,1.0905,1.1011,1.1529,1.1131,1.1327,1.17,1.1364,1.102,1.0901,1.1251,1.1078,1.0409,0.9954,0.9803,0.9803,0.9652,0.9803,0.9954,1.018,0.9894,0.9133,0.8454,0.8025,0.7777,0.7612,0.747,0.7403,0.7304,0.719,0.7121,0.6866,0.6586,0.6318,0.6273,0.6057,0.5746,0.5487,0.531,0.5332,0.5106,0.4955,0.4922,0.4798,0.4602,0.4295,0.3953,0.3732,0.3622,0.3566,0.3554,0.3516,0.3341,0.3223,0.2926,0.2502,0.2146,0.1808,0.1319,0.0962,0.047,0.0179,-0.0157,-0.0405,-0.0673,-0.0918,-0.1075,-0.1232,-0.1435,-0.1636,-0.177,-0.1927,-0.2217,-0.2642,-0.3325,-0.3744,-0.4276,-0.4692,-0.5133,-0.5263,-0.542,-0.5522,-0.5544,-0.5696,-0.5674,-0.5701,-0.5712,-0.5723,-0.5744,-0.5782,-0.5927,-0.6163,-0.6462,-0.6823,-0.7139,-0.7426,1.3786,1.3568,1.3568,1.3434,1.3264,1.3264,1.3094,1.2924,1.2924,1.2833,1.2705,1.2705,1.2566,1.2343,1.2187,1.224,1.2272,1.1996,1.1849,1.1812,1.153,1.1585,1.1775,1.1607,1.1732,1.1952,1.179,1.1461,1.1405,1.1257,1.1071,1.0613,1.0325,1.0218,1.018,0.9992,1.0218,1.0368,1.0308,0.9904,0.927,0.8577,0.7985,0.7816,0.7603,0.7512,0.7465,0.7427,0.7361,0.7327,0.7135,0.6906,0.662,0.6456,0.6299,0.6055,0.5828,0.5721,0.5641,0.5418,0.5319,0.5199,0.5054,0.4747,0.4442,0.4096,0.3857,0.3826,0.3744,0.3707,0.3677,0.3586,0.3462,0.3209,0.2909,0.2603,0.2288,0.1988,0.1542,0.1006,0.047,0.0045,-0.0315,-0.0561,-0.083,-0.1009,-0.1233,-0.1479,-0.1703,-0.1902,-0.2059,-0.2237,-0.2751,-0.3331,-0.3638,-0.4034,-0.436,-0.4688,-0.4692,-0.4919,-0.521,-0.5347,-0.559,-0.5754,-0.5825,-0.5815,-0.5744,-0.5788,-0.5868,-0.5949,-0.6034,-0.6361,-0.666,-0.6964,-0.7314,1.3997,1.3822,1.3822,1.3616,1.3355,1.3434,1.3264,1.2918,1.3009,1.2924,1.2723,1.2644,1.2626,1.2632,1.2445,1.2409,1.262,1.2368,1.2241,1.2134,1.2052,1.2057,1.214,1.1989,1.2011,1.2222,1.1964,1.163,1.1405,1.1291,1.1111,1.0674,1.0513,1.055,1.0513,1.0363,1.0406,1.0887,1.0293,0.983,0.9416,0.8613,0.8085,0.7816,0.7626,0.7493,0.7493,0.7484,0.7484,0.7571,0.7307,0.7066,0.6927,0.6663,0.6417,0.6197,0.6032,0.5982,0.5896,0.5726,0.5637,0.551,0.5268,0.4907,0.4513,0.4249,0.4072,0.4052,0.3966,0.3907,0.3826,0.3757,0.3674,0.3486,0.3244,0.2919,0.2557,0.2217,0.1777,0.1185,0.0604,0.009,-0.0247,-0.0472,-0.0697,-0.092,-0.1189,-0.1502,-0.177,-0.2038,-0.2148,-0.2304,-0.2593,-0.3132,-0.3508,-0.3792,-0.4096,-0.4338,-0.436,-0.471,-0.5225,-0.5505,-0.5717,-0.5851,-0.5948,-0.5997,-0.5992,-0.5985,-0.5954,-0.5997,-0.6062,-0.6239,-0.6496,-0.6844,-0.721,1.4082,1.4082,1.4046,1.4004,1.3955,1.3786,1.3568,1.3264,1.3143,1.2966,1.2668,1.2481,1.2506,1.2596,1.2506,1.2481,1.2656,1.2254,1.2334,1.2382,1.2272,1.2314,1.2407,1.2451,1.2308,1.2,1.1884,1.1594,1.1335,1.1387,1.1254,1.1041,1.0825,1.0848,1.0812,1.0663,1.0663,1.085,1.0293,0.9835,0.9384,0.8699,0.8039,0.7821,0.7622,0.7493,0.7493,0.7559,0.7657,0.7874,0.7489,0.7319,0.7235,0.6774,0.645,0.6304,0.6182,0.6155,0.6068,0.6005,0.5977,0.5837,0.554,0.5118,0.4694,0.4592,0.4448,0.4235,0.4168,0.4065,0.403,0.3974,0.388,0.3707,0.3515,0.3298,0.2884,0.2349,0.1897,0.1329,0.0764,0.0204,-0.0292,-0.0539,-0.0697,-0.0898,-0.1346,-0.1681,-0.1951,-0.2196,-0.2237,-0.2348,-0.246,-0.2837,-0.3306,-0.3593,-0.381,-0.4136,-0.4334,-0.4928,-0.5593,-0.5781,-0.5794,-0.6015,-0.6143,-0.6202,-0.6218,-0.6132,-0.6058,-0.6022,-0.6106,-0.6326,-0.6708,-0.7143,-0.7405,1.4088,1.4088,1.4088,1.4004,1.3864,1.3913,1.3652,1.327,1.3264,1.3052,1.2687,1.2457,1.2457,1.2608,1.2638,1.2596,1.2699,1.2534,1.2571,1.2619,1.2577,1.2571,1.2668,1.2518,1.2264,1.1928,1.1748,1.1597,1.1405,1.1495,1.1567,1.1424,1.1213,1.1099,1.1033,1.0931,1.0999,1.0812,1.0346,0.9835,0.9484,0.8788,0.8122,0.7821,0.7769,0.7612,0.755,0.7727,0.7852,0.7899,0.768,0.7633,0.7476,0.6895,0.6549,0.637,0.6285,0.6219,0.62,0.6119,0.6064,0.5864,0.5662,0.5397,0.4939,0.4788,0.4673,0.4498,0.431,0.4216,0.4161,0.4129,0.4048,0.3893,0.3735,0.3581,0.3137,0.2528,0.1892,0.1246,0.0761,0.0231,-0.0228,-0.0651,-0.0763,-0.092,-0.1391,-0.1839,-0.2085,-0.2308,-0.235,-0.2437,-0.2571,-0.2684,-0.3109,-0.3328,-0.3502,-0.3928,-0.4376,-0.5032,-0.5659,-0.5727,-0.5803,-0.6054,-0.6342,-0.6417,-0.6396,-0.624,-0.6232,-0.6321,-0.6388,-0.6483,-0.6917,-0.7481,-0.7787,1.4088,1.4088,1.4088,1.3997,1.387,1.3997,1.3786,1.3355,1.344,1.3264,1.282,1.2602,1.2566,1.2668,1.2699,1.2693,1.2699,1.2662,1.2705,1.2705,1.2662,1.2705,1.2638,1.2524,1.2355,1.2006,1.1844,1.1724,1.1615,1.1688,1.176,1.1796,1.1772,1.1567,1.1254,1.1148,1.1117,1.0925,1.0496,0.9932,0.9643,0.8993,0.8394,0.8041,0.7897,0.7812,0.784,0.8009,0.8216,0.8236,0.8138,0.7965,0.765,0.725,0.6745,0.6535,0.6384,0.6276,0.6219,0.6178,0.6096,0.5841,0.5786,0.5527,0.5234,0.4992,0.4904,0.4818,0.4574,0.4387,0.4334,0.4334,0.429,0.417,0.3952,0.3726,0.3118,0.2495,0.1834,0.1161,0.0634,0.0046,-0.0297,-0.0764,-0.1057,-0.1259,-0.166,-0.1995,-0.217,-0.2348,-0.2437,-0.2549,-0.2684,-0.2798,-0.2932,-0.3293,-0.3691,-0.424,-0.4671,-0.5107,-0.5575,-0.5717,-0.6042,-0.647,-0.6665,-0.6676,-0.6622,-0.656,-0.6615,-0.6709,-0.6907,-0.7182,-0.7618,-0.8195,-0.8421,1.4088,1.4088,1.4088,1.4088,1.4046,1.4088,1.3913,1.3603,1.3578,1.3372,1.3039,1.2996,1.2869,1.2741,1.2705,1.2705,1.279,1.2747,1.2747,1.279,1.2833,1.2747,1.2741,1.2669,1.2523,1.2349,1.2151,1.2012,1.188,1.2024,1.2095,1.2059,1.2059,1.1908,1.1483,1.12,1.1123,1.1043,1.0669,1.0271,0.9879,0.9326,0.8873,0.8475,0.8185,0.8147,0.8166,0.8397,0.8618,0.8705,0.8538,0.8361,0.8095,0.7522,0.7013,0.6615,0.6516,0.6389,0.6229,0.621,0.6037,0.585,0.5791,0.5626,0.5384,0.5254,0.5152,0.4987,0.4843,0.4734,0.4666,0.4556,0.447,0.4375,0.4144,0.3755,0.3131,0.245,0.1773,0.1083,0.0352,-0.0271,-0.0541,-0.0856,-0.1285,-0.1623,-0.1977,-0.2201,-0.2299,-0.2395,-0.2489,-0.2617,-0.2758,-0.2826,-0.299,-0.344,-0.389,-0.4459,-0.4972,-0.5415,-0.5876,-0.6246,-0.6585,-0.6891,-0.6902,-0.6837,-0.6859,-0.6896,-0.72,-0.7586,-0.7834,-0.815,-0.8537,-0.8807,-0.8973,1.4088,1.4088,1.4088,1.4088,1.4088,1.4088,1.3962,1.3662,1.34,1.3184,1.3074,1.292,1.2819,1.2735,1.2747,1.279,1.2966,1.2966,1.3009,1.3137,1.3137,1.3052,1.3009,1.2893,1.2705,1.242,1.2306,1.2265,1.2145,1.2312,1.2415,1.2409,1.2113,1.186,1.1501,1.1274,1.1117,1.1037,1.07,1.0395,1.0244,0.9814,0.9353,0.8949,0.8749,0.8617,0.8538,0.8824,0.9036,0.9049,0.8826,0.8592,0.8239,0.7649,0.7084,0.6818,0.6752,0.6412,0.6234,0.6119,0.5978,0.5873,0.5763,0.5626,0.5352,0.5215,0.5156,0.5073,0.4932,0.4798,0.4684,0.457,0.447,0.4446,0.4202,0.3763,0.3177,0.2432,0.1731,0.1053,0.0324,-0.012,-0.0447,-0.0935,-0.1377,-0.1644,-0.1943,-0.2229,-0.2377,-0.2438,-0.2505,-0.2643,-0.2765,-0.2856,-0.3083,-0.3671,-0.4194,-0.4714,-0.5241,-0.5712,-0.6185,-0.6657,-0.6736,-0.6843,-0.6934,-0.6988,-0.7195,-0.748,-0.8105,-0.8543,-0.8741,-0.8853,-0.9039,-0.9236,-0.9377,1.4088,1.4088,1.4088,1.4088,1.4088,1.4088,1.4004,1.3789,1.35,1.3323,1.3201,1.2998,1.2926,1.2887,1.2875,1.2966,1.3185,1.3228,1.3228,1.3398,1.3398,1.3228,1.3137,1.3088,1.2844,1.2511,1.2445,1.2451,1.2409,1.2445,1.2463,1.2367,1.2018,1.1706,1.1435,1.128,1.1117,1.1037,1.0812,1.0663,1.0475,1.0146,0.9834,0.9407,0.9192,0.9106,0.9096,0.9226,0.9451,0.9247,0.9064,0.8799,0.8311,0.7788,0.7236,0.7102,0.678,0.6468,0.6323,0.6105,0.5991,0.59,0.5818,0.5599,0.5352,0.5242,0.5215,0.5132,0.4939,0.4881,0.4798,0.4684,0.4546,0.4522,0.4294,0.3846,0.3014,0.2288,0.1637,0.0946,0.0414,0.0,-0.0393,-0.0977,-0.1482,-0.1661,-0.1837,-0.2161,-0.2464,-0.2506,-0.2586,-0.2744,-0.2911,-0.3083,-0.3456,-0.4056,-0.4568,-0.5023,-0.5549,-0.6131,-0.6442,-0.6886,-0.6864,-0.6879,-0.7146,-0.741,-0.7679,-0.8098,-0.8659,-0.9179,-0.957,-0.9632,-0.9593,-0.961,-0.9706,1.4117,1.4068,1.4117,1.4075,1.4062,1.4068,1.4088,1.4088,1.4075,1.3822,1.3392,1.3379,1.3245,1.3088,1.3094,1.3222,1.3355,1.3392,1.3483,1.3483,1.3574,1.3355,1.3222,1.313,1.2923,1.2772,1.2662,1.2614,1.2681,1.256,1.2469,1.224,1.179,1.1543,1.1363,1.125,1.1123,1.108,1.1043,1.0856,1.0663,1.0545,1.0199,0.9855,0.96,0.9583,0.9627,0.98,0.9811,0.9719,0.9672,0.9124,0.8636,0.8146,0.7708,0.7271,0.6766,0.6643,0.645,0.617,0.6028,0.5936,0.5763,0.5517,0.538,0.5297,0.5274,0.5215,0.5105,0.5073,0.5046,0.4853,0.466,0.4574,0.4432,0.3754,0.2828,0.2101,0.15,0.0924,0.0389,-0.0051,-0.0406,-0.0909,-0.1415,-0.1694,-0.1917,-0.227,-0.2497,-0.2535,-0.2661,-0.2891,-0.3101,-0.3352,-0.3821,-0.4458,-0.4937,-0.5379,-0.6097,-0.6669,-0.6939,-0.7089,-0.7147,-0.7274,-0.7522,-0.783,-0.8282,-0.8705,-0.9145,-0.9629,-0.9888,-0.9964,-0.979,-0.9812,-0.9991,1.3841,1.3514,1.3908,1.3961,1.3773,1.4001,1.4088,1.4088,1.4088,1.3828,1.3398,1.3561,1.3434,1.3143,1.3222,1.344,1.3561,1.3646,1.3779,1.3828,1.3828,1.3616,1.344,1.327,1.3052,1.2826,1.2693,1.2674,1.262,1.2542,1.2235,1.1958,1.1627,1.1405,1.1236,1.1154,1.1129,1.1117,1.1117,1.1005,1.0931,1.0893,1.0574,1.0309,1.0169,1.019,1.0137,1.0308,1.0255,1.0102,0.9811,0.933,0.901,0.8302,0.7669,0.7269,0.7038,0.688,0.6567,0.6308,0.6155,0.6037,0.5845,0.5709,0.5517,0.5403,0.5356,0.527,0.5187,0.5156,0.5073,0.4908,0.4688,0.4519,0.4239,0.3508,0.2635,0.2028,0.1404,0.0758,0.0239,-0.0053,-0.0393,-0.0813,-0.1287,-0.1638,-0.1994,-0.2332,-0.262,-0.2685,-0.2792,-0.3027,-0.3502,-0.3813,-0.4271,-0.4861,-0.5306,-0.5811,-0.6468,-0.6971,-0.7143,-0.7272,-0.745,-0.7696,-0.799,-0.8468,-0.9021,-0.9309,-0.9394,-0.9577,-0.9803,-0.9914,-0.9994,-0.9923,-0.9973,1.3534,1.3293,1.3714,1.3861,1.3861,1.4008,1.4088,1.4088,1.4088,1.387,1.3568,1.3652,1.3561,1.3398,1.3483,1.3652,1.3828,1.387,1.3955,1.3997,1.4088,1.3779,1.3525,1.3336,1.3013,1.2796,1.2602,1.2572,1.2433,1.2155,1.1838,1.1724,1.1465,1.1304,1.1166,1.1123,1.1123,1.1117,1.1117,1.1117,1.1117,1.1105,1.0912,1.0755,1.0737,1.0622,1.0526,1.0647,1.0497,1.029,0.9885,0.9485,0.8976,0.8083,0.7641,0.735,0.7387,0.7188,0.69,0.6625,0.6449,0.6239,0.5996,0.5818,0.5709,0.5595,0.5434,0.5325,0.5242,0.516,0.5073,0.4936,0.4684,0.4432,0.3821,0.3236,0.2601,0.1975,0.1294,0.0612,0.0193,-0.0055,-0.0408,-0.0788,-0.1197,-0.1635,-0.2024,-0.2336,-0.2692,-0.2929,-0.3047,-0.3223,-0.3845,-0.4381,-0.4827,-0.522,-0.5734,-0.6171,-0.6629,-0.7068,-0.7273,-0.7509,-0.775,-0.8096,-0.8474,-0.8916,-0.9309,-0.9335,-0.9439,-0.9595,-0.9647,-0.9673,-0.9673,-0.9592,-0.9761,1.3186,1.3146,1.344,1.3741,1.3988,1.4015,1.4015,1.4021,1.3961,1.3915,1.3717,1.3737,1.3737,1.3652,1.3695,1.387,1.3997,1.4039,1.4039,1.4088,1.4088,1.3828,1.3512,1.3311,1.2908,1.2595,1.2451,1.2445,1.2035,1.1754,1.1609,1.1471,1.1274,1.1129,1.1129,1.1117,1.1117,1.1117,1.1117,1.1117,1.1117,1.1081,1.1003,1.0822,1.0779,1.0749,1.0743,1.0671,1.0539,1.0286,0.9937,0.9498,0.8696,0.7989,0.7701,0.7551,0.7601,0.7428,0.717,0.6939,0.6782,0.6523,0.6225,0.6064,0.5947,0.5698,0.5489,0.5407,0.5321,0.527,0.5187,0.4763,0.4429,0.3984,0.3428,0.282,0.2199,0.1634,0.1111,0.0531,0.0251,-0.0028,-0.0332,-0.0718,-0.1102,-0.1613,-0.1953,-0.2266,-0.282,-0.3164,-0.3354,-0.3525,-0.4063,-0.4678,-0.5105,-0.5529,-0.6109,-0.6593,-0.6896,-0.7106,-0.7268,-0.7643,-0.809,-0.8468,-0.8844,-0.9099,-0.9387,-0.9387,-0.9387,-0.9543,-0.9543,-0.9432,-0.9361,-0.9335,-0.9387,1.2939,1.2579,1.3054,1.3367,1.3447,1.3613,1.3586,1.3427,1.342,1.3551,1.372,1.3857,1.3893,1.374,1.3906,1.4039,1.4088,1.4088,1.4088,1.4082,1.4082,1.3795,1.3419,1.3194,1.2794,1.2479,1.2349,1.2264,1.2047,1.1751,1.1471,1.1447,1.125,1.1117,1.1117,1.1117,1.1117,1.1117,1.1117,1.1117,1.1117,1.1117,1.1057,1.1009,1.1003,1.0991,1.0936,1.0773,1.0683,1.0527,1.0013,0.9459,0.8737,0.8322,0.8039,0.7889,0.7705,0.7534,0.7338,0.7205,0.7081,0.6876,0.659,0.6433,0.617,0.5819,0.5572,0.5489,0.5407,0.5352,0.5105,0.4594,0.4064,0.3536,0.301,0.2402,0.1818,0.1343,0.0868,0.0588,0.0308,0.0,-0.0308,-0.0644,-0.1008,-0.137,-0.1705,-0.2155,-0.2993,-0.3511,-0.3757,-0.3953,-0.4319,-0.4842,-0.5297,-0.5704,-0.6218,-0.6571,-0.6842,-0.7052,-0.7321,-0.7931,-0.8521,-0.8844,-0.9159,-0.929,-0.9335,-0.929,-0.9342,-0.9465,-0.9387,-0.9256,-0.9283,-0.9263,-0.9185,1.2725,1.2483,1.2844,1.3166,1.334,1.34,1.3387,1.3347,1.3267,1.33,1.3523,1.3738,1.3805,1.3726,1.3973,1.4082,1.4082,1.4088,1.4088,1.4082,1.3977,1.3675,1.3403,1.3102,1.2572,1.2249,1.1893,1.1763,1.1902,1.1606,1.1323,1.1335,1.1172,1.1123,1.1123,1.1117,1.1117,1.1117,1.1117,1.1117,1.1117,1.1117,1.1117,1.1117,1.1117,1.1117,1.1027,1.0876,1.0755,1.0486,0.9979,0.9673,0.9078,0.8518,0.8141,0.8002,0.7844,0.7665,0.7466,0.7358,0.7305,0.7094,0.6835,0.6611,0.6377,0.6029,0.575,0.5631,0.5388,0.5301,0.4767,0.426,0.3511,0.2901,0.2428,0.1928,0.1456,0.1036,0.0701,0.0504,0.0224,-0.0028,-0.0336,-0.0561,-0.098,-0.1567,-0.1818,-0.2209,-0.3047,-0.3802,-0.4049,-0.4325,-0.4688,-0.5077,-0.5521,-0.5868,-0.6213,-0.6539,-0.681,-0.7375,-0.7851,-0.8435,-0.8968,-0.908,-0.9166,-0.9211,-0.9237,-0.9211,-0.9237,-0.9316,-0.9237,-0.9087,-0.9185,-0.9361,-0.9413,1.2657,1.2603,1.2783,1.3038,1.3367,1.3253,1.324,1.3327,1.3193,1.308,1.3114,1.34,1.354,1.37,1.3888,1.4008,1.4082,1.4088,1.4088,1.4046,1.3913,1.3707,1.3438,1.3121,1.2637,1.211,1.1725,1.1585,1.1567,1.1431,1.1347,1.1178,1.1135,1.1154,1.1129,1.1117,1.1117,1.1117,1.1117,1.1117,1.1117,1.1117,1.1117,1.1117,1.1117,1.1117,1.1033,1.0858,1.0707,1.042,0.9984,0.9712,0.9293,0.8711,0.8346,0.8096,0.7928,0.7746,0.7613,0.7575,0.747,0.7334,0.7027,0.6777,0.6564,0.6262,0.5982,0.5658,0.5413,0.5026,0.4491,0.3843,0.3067,0.2374,0.1928,0.1511,0.112,0.0757,0.0561,0.0393,0.014,-0.0112,-0.0337,-0.0562,-0.1009,-0.1596,-0.2127,-0.2571,-0.3074,-0.3771,-0.427,-0.4574,-0.4932,-0.5352,-0.5658,-0.6005,-0.6268,-0.6642,-0.6993,-0.7691,-0.8309,-0.8685,-0.8949,-0.9035,-0.9113,-0.9113,-0.914,-0.9113,-0.9166,-0.9342,-0.9316,-0.9342,-0.9706,-0.988,-0.9891,1.2753,1.2627,1.2845,1.2806,1.2619,1.279,1.2777,1.2572,1.2538,1.2478,1.2672,1.3073,1.336,1.3606,1.364,1.3834,1.4082,1.4088,1.4088,1.4088,1.3913,1.3782,1.3554,1.3218,1.2815,1.238,1.1977,1.1841,1.1733,1.1673,1.1483,1.1128,1.1339,1.1291,1.1129,1.1123,1.1135,1.1178,1.1172,1.116,1.1141,1.1135,1.1117,1.1117,1.1117,1.1117,1.1003,1.0605,1.0569,1.0419,1.0128,0.9754,0.9312,0.881,0.8408,0.8124,0.795,0.7705,0.7587,0.7596,0.7512,0.7426,0.7161,0.7078,0.6792,0.6473,0.6112,0.5645,0.5341,0.4925,0.4342,0.3541,0.276,0.2124,0.1595,0.1204,0.0813,0.0589,0.0421,0.0252,0.0084,-0.0141,-0.0367,-0.0592,-0.0844,-0.1432,-0.2046,-0.2549,-0.3294,-0.3879,-0.4467,-0.4794,-0.5152,-0.5238,-0.5384,-0.5946,-0.6317,-0.6696,-0.723,-0.801,-0.8527,-0.8718,-0.8917,-0.9037,-0.8996,-0.8969,-0.8969,-0.9221,-0.9413,-0.9595,-0.9569,-0.9673,-1.0087,-1.0395,-1.0438]}]]